GFSSGP_925_thetae_000.txt.gz
Theta_e
308 310 314 313 311 308 310 313 313 314 320 332 337 337 337 336 339 342 340 337 335 334 323 321 324 331 335 337 340 338 340 340 339 339 338 336 333 331 330 328 330 328 323 324 323 326 331 331 332
311 314 311 307 309 310 312 313 314 315 327 329 330 338 340 345 340 339 339 338 337 335 325 320 320 323 328 332 334 336 336 334 333 336 336 336 336 336 334 334 332 328 323 323 325 325 329 324 324
314 314 306 307 307 312 313 313 314 318 328 323 337 335 339 339 338 340 338 338 337 333 327 324 321 319 319 320 323 325 328 331 332 332 333 335 335 333 333 331 329 322 325 327 328 327 329 325 325
314 308 304 307 311 312 313 312 313 317 330 331 335 339 337 336 338 339 338 337 338 332 328 326 323 321 319 319 319 319 320 321 323 326 330 332 333 333 332 330 327 326 326 327 331 329 329 325 324
313 303 306 308 310 312 310 311 315 327 330 331 331 333 338 336 339 339 338 338 338 332 329 328 326 325 323 322 321 321 322 323 325 326 326 330 330 331 330 325 328 327 327 329 330 330 330 328 325
306 304 306 308 310 311 311 310 314 321 327 329 332 334 334 337 339 339 339 339 336 332 332 332 330 328 325 324 325 324 324 324 324 325 325 323 326 328 330 330 330 331 329 326 323 323 326 326 323
307 305 307 309 308 311 312 311 311 311 311 322 325 333 333 332 335 338 339 338 337 337 336 334 334 332 330 324 322 323 324 325 325 326 326 326 324 324 325 327 328 328 327 326 326 326 325 327 327
305 305 308 307 308 311 310 312 309 312 312 321 324 328 326 332 337 336 336 339 339 339 338 336 335 334 331 327 327 324 324 325 325 325 325 326 326 325 324 323 323 323 325 326 327 329 330 329 328
306 306 307 311 310 311 307 313 313 313 313 314 321 324 326 337 337 335 333 334 337 338 339 338 337 335 333 330 330 330 329 328 328 325 325 327 327 324 324 323 323 322 321 322 323 325 325 325 325
306 305 312 311 310 311 310 312 312 312 313 314 326 324 327 335 334 335 332 331 331 335 333 330 333 335 333 333 330 331 330 329 329 328 328 328 327 324 324 321 320 318 317 317 319 318 319 322 322
311 312 313 313 313 312 313 314 312 312 313 315 327 324 327 333 332 331 331 331 328 326 324 322 320 320 330 329 329 332 329 329 329 329 327 327 326 323 322 322 321 319 316 316 316 315 316 317 317
314 314 314 314 314 314 315 314 314 313 313 314 317 324 326 328 329 330 326 327 324 322 321 320 319 324 329 329 331 331 329 330 328 327 326 323 321 318 318 320 319 320 317 317 317 319 319 318 317
315 315 315 315 314 314 315 315 314 314 312 311 314 316 319 320 322 326 325 325 322 320 319 319 318 318 327 327 330 329 329 328 326 323 321 321 321 321 319 319 319 319 318 317 317 318 319 320 320
318 317 317 314 315 315 315 314 314 313 310 312 315 314 313 315 317 318 318 319 319 319 318 318 317 316 319 324 324 323 321 319 317 317 316 317 320 320 320 321 320 317 315 313 309 307 307 307 309
318 318 315 315 316 315 313 312 312 310 309 312 312 313 314 314 317 318 318 316 317 317 317 317 316 317 318 320 323 322 320 317 314 314 313 314 317 317 317 316 316 316 312 310 309 305 304 304 304
318 315 316 315 315 314 312 312 312 310 310 311 310 311 312 313 315 318 318 318 316 316 316 316 314 316 317 316 320 319 316 314 312 311 311 312 312 312 311 311 311 311 308 307 305 304 304 304 304
312 314 315 316 314 314 313 312 312 312 310 311 309 309 310 310 311 314 315 315 315 315 315 313 313 313 312 312 314 315 313 313 310 310 311 312 312 309 310 311 311 309 305 305 305 305 304 304 304
316 314 312 316 315 315 315 314 313 311 310 310 307 309 311 312 314 314 314 314 314 313 313 312 311 311 310 309 311 311 310 310 310 309 311 312 312 309 307 308 308 307 306 305 305 305 304 304 304
315 315 316 316 316 317 316 314 314 313 309 309 308 309 309 311 312 311 312 313 312 312 312 312 311 311 310 309 309 309 309 308 308 308 309 313 310 310 307 306 306 307 306 305 305 305 304 304 304
314 318 317 315 316 318 316 316 310 310 311 309 310 309 310 310 310 310 311 312 313 312 312 312 311 311 310 309 309 309 309 308 308 307 307 308 310 310 308 307 305 306 306 305 304 304 305 304 303
314 318 317 317 316 317 317 317 312 313 313 311 311 310 310 310 310 310 312 313 313 313 313 313 313 312 312 311 310 309 308 307 307 307 307 306 307 309 308 307 306 305 304 304 304 303 303 303 302
316 315 317 318 318 320 317 321 316 313 313 313 312 310 310 311 311 311 311 312 313 313 313 313 313 313 312 311 310 309 309 307 308 308 307 307 307 308 307 306 305 305 304 303 303 301 301 300 299
316 315 318 319 318 319 318 317 315 313 314 313 312 311 310 310 310 311 312 312 312 313 313 313 313 313 312 312 311 311 310 309 309 308 307 307 306 306 306 306 305 305 303 302 301 300 297 295 295
316 318 319 319 318 320 319 317 316 315 314 313 313 312 311 311 311 311 313 312 313 314 314 314 313 313 312 312 312 312 311 311 309 309 307 306 305 305 306 305 305 302 300 300 300 298 296 296 296
316 318 318 318 318 320 319 318 316 314 313 313 313 312 311 310 311 309 311 311 313 313 313 311 311 311 310 310 310 310 310 310 310 310 307 306 304 303 301 300 299 297 295 295 295 296 298 298 297
318 319 317 324 318 319 317 321 318 314 314 312 310 310 311 311 310 311 310 311 312 311 311 310 311 310 309 309 309 309 308 308 308 308 307 304 300 298 296 295 295 296 296 296 296 297 297 297 294
320 319 318 318 307 314 318 319 315 314 316 315 314 315 313 310 309 309 312 311 310 310 310 310 310 309 308 307 305 306 305 305 305 304 302 299 296 295 296 296 297 297 297 298 297 294 293 293 292
319 317 319 315 316 326 321 320 318 318 318 317 314 313 310 309 309 309 309 310 310 310 310 309 308 308 306 302 303 303 303 303 302 299 297 295 295 296 299 299 298 296 294 293 293 293 292 292 292
316 318 319 321 318 323 323 322 316 318 317 317 315 312 310 309 308 308 309 310 310 310 309 308 308 306 302 303 302 301 301 299 297 295 295 296 296 298 297 295 293 293 293 292 292 292 293 292 292
318 319 318 315 321 315 315 322 317 316 316 313 312 312 311 309 308 308 309 309 309 308 307 307 307 304 303 304 301 300 299 296 295 295 295 295 294 294 294 293 293 292 292 292 292 291 290 290 289

GFSSGP_925_thetae_003.txt.gz
Theta_e
309 312 313 312 311 306 310 313 311 313 337 335 333 333 334 336 337 331 338 334 325 322 324 329 334 337 340 340 341 342 341 340 338 335 333 330 328 326 326 323 324 327 324 325 323 324 328 328 327
311 313 310 305 309 310 311 311 314 322 336 334 334 336 340 344 338 338 335 331 327 324 320 323 326 329 333 335 337 335 336 335 335 335 335 335 333 331 330 330 331 330 326 324 323 323 328 327 332
313 313 305 306 306 311 312 312 319 330 329 324 338 336 338 341 338 338 336 333 331 327 323 320 319 322 326 328 330 331 331 330 331 333 334 335 334 333 332 331 329 327 321 322 325 325 325 324 324
313 306 302 306 311 312 312 313 312 322 328 332 335 338 336 335 338 338 335 335 332 327 325 322 321 320 320 319 320 321 322 323 325 327 330 331 331 330 329 327 324 325 324 324 326 326 327 326 323
308 302 305 307 310 311 311 320 323 327 329 329 330 336 338 336 338 337 336 337 330 329 327 326 324 323 322 321 320 319 321 323 324 325 324 324 326 326 326 323 324 326 326 327 327 330 328 327 325
305 302 305 307 309 309 310 314 316 324 326 328 330 333 335 337 338 337 336 338 329 328 328 327 325 324 321 322 323 323 322 323 324 325 324 324 324 323 324 326 326 328 327 326 325 324 324 325 327
306 304 307 307 309 309 310 310 310 309 314 321 326 338 335 334 338 338 337 336 331 333 332 332 331 329 325 322 321 323 322 323 323 324 324 323 322 322 323 324 325 326 324 324 326 327 326 324 327
303 303 306 306 308 309 308 311 310 310 312 320 322 328 336 334 336 339 338 337 335 335 334 334 333 332 328 324 324 322 322 323 324 324 324 324 324 323 322 322 323 323 323 324 325 326 328 328 328
303 305 307 310 309 310 308 312 310 310 316 314 322 322 324 336 335 337 338 338 338 337 336 335 334 334 331 327 327 326 325 324 325 324 325 325 324 322 321 321 320 320 319 320 321 321 322 323 323
305 305 309 310 309 310 310 311 310 310 315 325 327 324 329 334 333 331 332 335 338 338 337 336 336 335 333 330 330 329 328 328 327 326 326 326 325 322 320 319 317 317 316 315 315 316 315 317 319
310 310 311 312 310 309 312 313 311 309 314 322 326 324 329 333 333 331 332 335 335 336 336 333 330 331 332 331 331 330 329 328 328 328 326 325 325 323 320 320 319 317 316 312 313 314 313 313 313
313 312 312 313 312 312 313 313 314 312 311 312 321 320 328 330 329 328 328 330 330 333 327 324 324 327 330 330 329 330 330 329 328 327 325 325 323 320 316 318 320 319 319 314 314 315 317 316 317
315 314 314 314 314 313 313 314 313 312 311 311 319 321 326 327 328 327 328 326 329 325 323 322 320 325 324 326 328 330 329 329 329 326 324 322 320 320 318 318 319 319 318 318 317 314 314 313 311
316 316 315 315 314 313 314 313 313 313 310 310 315 320 322 322 325 321 323 325 325 323 320 319 319 320 321 325 326 325 327 327 328 324 322 318 318 319 319 318 320 320 317 314 309 306 304 303 303
316 316 314 315 315 314 312 311 312 311 309 310 313 314 314 314 317 316 322 325 323 320 319 318 318 317 318 320 321 322 320 318 317 316 316 315 314 318 318 318 318 318 315 311 309 305 304 304 304
313 312 313 313 313 313 311 311 310 310 308 308 308 310 311 311 313 315 318 318 318 318 317 318 316 315 316 316 318 319 319 316 315 313 312 312 312 313 313 312 313 312 311 308 306 304 305 304 304
310 313 314 314 313 315 312 310 309 311 308 309 308 307 309 310 311 313 314 314 314 314 316 315 314 313 313 313 313 314 314 314 313 312 311 311 312 311 310 308 309 309 309 305 304 305 305 304 304
314 313 312 314 314 314 315 311 311 311 308 308 308 307 309 309 311 311 312 312 313 314 314 313 312 311 310 310 310 310 310 310 310 309 310 310 312 312 310 307 308 310 308 305 305 305 305 304 304
314 315 316 315 314 316 316 313 313 309 308 308 305 307 309 310 309 310 311 311 313 313 312 312 311 311 310 310 309 309 309 309 308 308 308 308 307 309 312 308 306 307 308 306 305 305 305 304 304
315 317 315 314 314 316 315 315 308 308 310 309 308 308 309 309 308 308 310 311 312 312 311 311 312 311 311 311 311 310 310 309 309 308 308 307 307 307 311 309 307 306 306 307 305 305 305 304 304
313 316 316 316 315 315 315 316 312 312 311 310 310 308 308 308 309 309 309 310 311 311 311 312 312 312 311 311 310 310 309 308 309 309 308 308 307 307 309 309 308 307 305 307 306 305 304 303 302
315 313 315 316 318 319 314 318 315 312 313 312 309 307 308 309 309 309 310 311 311 312 312 312 311 311 311 310 310 309 309 307 309 309 310 310 309 307 306 306 309 307 305 306 305 303 303 302 300
316 315 315 318 317 318 316 315 316 312 313 312 311 311 310 310 310 311 311 310 310 311 311 312 312 312 312 311 311 310 310 310 310 310 309 309 308 306 306 306 308 306 304 304 303 302 300 297 295
315 317 316 316 316 319 318 317 314 313 313 313 312 311 311 310 311 310 310 311 312 312 312 311 311 310 310 309 309 308 308 308 308 308 308 308 308 307 305 304 306 305 303 301 297 295 295 296 295
315 316 316 315 316 319 318 316 314 314 313 313 312 311 310 309 308 308 308 310 311 310 310 310 310 309 308 308 308 307 306 306 307 306 306 307 306 303 302 303 302 299 297 295 296 298 298 298 299
318 317 315 319 317 318 316 320 316 314 312 311 312 310 311 310 308 308 309 309 309 309 310 309 308 307 307 307 304 304 304 304 304 304 304 304 302 298 297 297 297 297 296 297 297 297 298 297 298
319 318 316 315 305 312 317 318 314 314 315 314 313 312 309 308 308 309 309 309 309 309 309 309 308 307 307 303 304 305 304 303 303 303 301 301 298 296 297 298 298 298 298 298 297 294 294 294 293
317 316 318 314 315 322 321 320 319 317 316 315 312 309 308 307 308 307 308 309 309 309 308 308 307 307 306 305 305 305 303 302 301 301 300 298 296 297 298 299 299 299 297 294 293 293 292 293 292
317 317 316 318 315 319 318 320 315 315 314 314 310 310 309 309 307 307 308 309 309 308 308 307 307 307 304 304 304 304 302 300 297 297 297 295 297 296 294 295 294 293 294 293 293 292 292 291 290
317 317 315 318 317 313 310 318 314 314 313 311 310 310 308 307 307 307 308 309 308 308 308 306 306 306 303 303 302 301 300 298 295 295 295 295 294 294 292 292 292 292 292 292 292 291 290 289 289

GFSSGP_925_thetae_009.txt.gz
Theta_e
309 311 312 311 316 315 314 315 311 328 338 335 334 333 338 339 336 336 334 333 323 327 334 337 339 339 339 340 341 340 339 336 332 331 333 335 334 332 332 330 326 325 327 330 329 325 331 333 333
311 311 309 311 316 319 321 316 319 334 339 335 336 338 340 340 339 336 334 331 322 324 329 332 336 337 338 339 340 339 338 336 335 333 330 329 332 331 329 326 327 330 330 327 324 331 332 330 330
312 309 312 313 313 317 324 320 336 336 332 334 339 337 339 342 337 335 333 326 321 319 324 327 330 333 333 333 336 336 335 333 334 334 334 334 332 330 330 332 329 326 324 323 325 328 329 329 328
311 308 308 319 317 314 320 325 336 334 331 336 337 339 336 335 337 336 331 328 323 320 319 321 324 327 328 330 331 331 331 331 331 333 333 334 333 332 329 326 322 325 325 326 327 328 329 330 329
307 309 314 318 318 318 318 319 326 329 330 332 333 339 339 337 337 335 333 330 324 322 321 320 320 321 321 321 321 321 322 322 323 323 324 325 324 323 322 322 323 326 327 327 325 324 324 324 323
310 309 316 319 316 311 316 315 324 326 330 332 336 336 338 335 334 334 333 327 324 323 322 322 322 321 321 321 321 321 321 322 322 322 323 324 324 324 323 323 323 323 323 322 322 324 326 326 327
310 310 309 309 310 311 311 308 314 318 321 325 331 335 336 336 334 334 332 327 326 324 323 323 323 322 322 321 321 321 321 322 322 322 323 322 322 322 322 321 321 321 320 320 321 322 324 326 327
307 309 308 308 310 310 309 310 310 314 319 322 326 332 339 336 335 334 333 329 327 327 327 327 327 326 324 322 323 323 321 322 322 322 322 322 321 321 321 320 319 317 317 318 319 319 320 322 323
305 311 310 309 310 311 309 312 310 311 320 316 322 330 326 335 335 335 335 332 330 330 330 331 330 330 327 325 325 324 325 324 323 324 323 322 322 322 320 317 317 315 316 316 316 315 315 316 317
310 312 311 309 309 311 311 310 310 314 320 324 326 325 330 335 335 336 337 335 334 333 332 332 332 332 329 327 327 326 326 326 326 326 325 324 324 323 321 319 318 317 316 315 314 313 312 311 313
311 313 311 311 309 311 312 313 310 315 317 320 320 328 333 335 336 337 337 336 336 335 334 333 333 332 329 329 328 327 327 327 327 327 326 325 325 323 323 320 316 316 318 316 316 313 313 314 313
314 311 312 312 310 311 313 312 312 312 314 314 320 329 333 334 334 336 337 337 336 335 336 335 333 332 327 326 327 328 329 328 328 327 327 326 325 323 323 318 317 316 317 316 315 314 314 311 310
315 313 312 312 310 311 311 313 313 312 312 310 319 329 333 334 333 334 335 335 334 334 335 335 334 328 322 324 327 328 328 328 329 328 327 327 325 322 320 318 317 317 317 317 317 315 311 305 303
315 315 314 313 313 313 314 314 313 313 310 311 319 327 332 334 334 331 329 331 331 333 333 334 330 323 322 322 323 324 326 327 326 326 325 326 324 321 317 315 314 314 315 317 318 314 309 305 303
314 315 313 313 312 314 311 315 314 312 310 311 314 322 329 331 331 331 327 326 326 329 330 332 324 320 318 319 319 319 319 319 319 317 317 317 316 314 314 313 312 311 312 314 317 314 310 305 304
313 313 317 314 315 313 313 318 315 310 312 314 311 313 322 326 325 321 321 318 317 323 325 327 322 318 316 317 316 314 314 315 316 314 314 313 312 312 312 311 310 310 310 311 314 313 310 306 305
313 314 315 315 313 316 317 319 316 313 312 314 312 310 316 320 316 312 312 312 316 321 324 322 319 317 315 315 313 312 312 312 312 311 311 311 310 310 311 311 310 310 310 309 309 310 308 307 306
316 314 315 315 315 317 317 318 315 309 308 311 310 309 312 315 313 310 310 311 314 319 319 318 317 315 314 314 312 311 310 310 310 309 309 309 309 309 310 310 310 311 311 310 309 308 308 306 306
314 314 316 315 314 317 317 316 313 311 310 310 310 311 312 313 309 309 310 310 311 313 314 316 315 313 313 311 309 308 309 308 309 309 309 309 309 308 307 307 308 309 311 311 309 308 307 306 305
314 315 314 315 313 317 317 316 312 312 311 310 312 313 313 312 311 309 309 310 311 313 313 311 309 307 307 307 307 307 308 309 309 309 309 308 308 308 307 307 307 307 309 310 310 309 308 307 306
316 315 315 316 315 315 315 317 315 312 311 311 311 311 311 313 313 311 310 309 308 308 307 307 307 308 309 309 309 308 308 308 307 307 306 305 305 304 304 304 305 306 307 308 308 309 308 308 307
318 314 316 316 319 321 315 320 317 313 313 312 312 312 313 312 312 311 310 309 308 307 309 309 309 308 308 307 306 305 305 305 305 304 303 301 302 303 304 304 303 304 306 307 307 307 307 307 308
319 315 316 317 319 319 320 320 318 314 314 313 313 311 312 310 310 310 310 309 308 309 309 308 308 308 307 307 305 305 305 304 304 303 303 302 301 301 302 302 302 303 303 305 305 305 305 305 305
315 316 314 315 318 324 319 319 319 318 315 314 313 313 311 310 309 309 309 309 308 308 309 308 308 308 307 306 305 305 304 304 304 303 302 301 301 301 301 301 301 301 301 300 300 298 299 299 299
318 316 321 325 326 325 317 319 318 315 312 312 313 312 312 311 311 311 310 309 309 308 308 308 307 307 306 306 305 304 304 304 303 302 300 300 300 300 299 299 299 299 298 298 298 298 298 297 297
319 318 323 321 324 323 316 321 319 314 313 312 312 311 310 310 310 311 309 309 308 308 307 307 307 307 306 305 305 304 304 303 301 300 299 299 298 298 298 298 298 297 297 297 298 297 297 296 294
319 322 316 317 308 322 319 319 316 314 315 314 311 311 311 310 310 310 310 309 309 308 308 308 307 305 305 305 305 303 303 300 299 299 297 297 296 297 297 298 298 297 297 297 297 296 297 293 291
318 315 320 320 323 322 320 319 319 316 315 313 312 313 312 312 311 311 310 309 308 308 307 308 307 305 304 304 302 301 299 298 297 296 295 295 295 298 298 296 294 294 294 294 292 293 294 294 294
319 319 317 317 319 325 324 321 316 315 315 314 312 312 312 312 312 311 310 309 308 308 307 306 306 305 304 302 300 299 298 296 294 293 294 294 296 295 293 293 293 293 292 292 291 292 293 293 292
316 316 314 318 316 317 317 318 312 314 314 313 313 312 312 311 311 310 309 308 308 307 306 306 305 303 301 300 299 297 295 294 292 293 293 293 293 292 293 293 293 293 293 293 292 291 290 289 289

GFSSGP_925_thetae_012.txt.gz
Theta_e
312 312 315 317 321 324 326 326 329 338 337 337 335 334 337 340 339 341 337 334 330 334 339 340 339 340 339 340 340 339 337 334 335 336 336 335 335 334 332 330 327 326 326 329 329 329 334 334 333
313 311 314 319 321 323 325 325 329 335 337 336 336 336 334 335 336 337 336 331 329 333 337 339 338 340 341 341 340 339 338 335 332 331 332 334 333 331 329 328 330 329 327 328 331 333 333 329 327
312 311 318 320 321 324 325 328 336 337 335 337 337 337 337 335 335 335 332 328 327 331 334 336 335 337 339 340 340 339 336 335 335 333 334 332 330 329 329 332 330 324 324 328 330 332 330 328 328
314 315 319 321 321 324 327 331 332 334 337 336 331 334 336 337 336 335 332 329 325 326 330 327 329 331 332 332 331 331 332 332 332 333 333 333 333 332 328 324 320 321 323 324 325 327 328 328 329
313 318 322 322 324 325 329 332 333 331 333 335 333 335 336 338 338 334 333 330 327 326 328 328 323 323 322 322 323 324 324 324 324 324 325 325 324 323 322 322 323 324 323 323 323 324 324 324 324
317 321 322 322 323 325 326 328 327 326 329 332 332 332 335 337 334 333 332 329 326 327 329 328 321 321 321 321 321 321 322 322 322 323 323 323 323 322 321 321 321 321 321 321 322 323 324 326 327
318 319 320 320 321 321 321 321 324 324 325 326 328 329 334 335 333 332 329 328 327 327 328 329 329 327 322 322 322 322 323 322 322 322 323 322 322 322 321 321 321 321 320 320 320 320 322 323 324
315 317 316 316 316 315 315 315 316 319 324 330 328 325 331 332 334 333 330 329 329 330 329 331 331 330 330 329 323 323 322 322 323 322 323 322 323 323 323 320 321 318 317 317 317 317 317 317 319
314 316 315 314 315 315 315 315 316 320 322 321 324 327 328 333 335 334 333 331 332 332 333 333 333 332 331 329 328 325 325 324 324 327 326 327 327 327 325 321 318 317 315 315 314 314 313 312 315
317 316 315 314 315 315 315 315 315 317 319 321 324 328 331 335 336 336 335 333 334 334 335 335 335 334 332 327 330 330 329 329 331 331 331 329 329 328 324 324 319 316 315 316 315 314 313 315 316
317 316 315 314 315 315 315 315 315 315 316 317 318 326 333 335 336 335 334 329 331 333 334 335 337 336 333 329 328 328 327 328 329 332 332 330 329 328 327 326 323 323 322 320 320 320 318 319 318
316 316 315 315 315 315 315 316 316 316 316 317 319 324 330 333 333 331 330 329 328 331 334 336 337 337 335 330 328 328 327 328 328 329 332 330 328 327 327 324 322 321 320 321 320 319 320 318 316
317 317 317 316 315 315 315 316 317 317 316 316 321 326 327 329 329 329 329 328 330 334 336 338 338 337 332 330 327 328 329 327 328 328 327 329 326 325 324 322 320 319 319 318 318 318 318 314 312
319 319 318 317 317 317 318 318 318 317 317 317 320 325 327 327 326 327 330 330 333 334 335 337 338 336 328 326 328 326 326 326 326 324 324 326 326 323 321 319 317 317 316 317 317 316 315 313 312
319 319 320 318 318 318 316 319 318 317 316 317 318 321 325 327 326 327 327 330 332 331 332 336 336 331 327 325 324 322 321 321 320 320 322 323 323 320 320 318 317 316 316 317 317 317 315 314 311
319 320 320 319 319 319 320 320 319 318 318 318 318 319 324 326 327 329 331 330 327 326 329 332 331 327 325 323 322 320 319 319 318 318 319 319 319 319 319 318 317 316 316 316 316 315 314 313 311
318 317 318 319 319 320 320 321 321 317 316 320 319 319 320 325 329 327 322 322 322 322 325 329 329 325 323 322 320 320 320 319 318 317 316 316 316 316 316 316 316 316 316 315 315 314 314 313 311
317 317 318 318 319 319 319 321 318 317 316 319 320 318 318 323 326 321 319 316 317 322 325 328 326 323 322 319 318 315 315 314 314 313 313 313 313 313 314 314 315 316 316 315 314 314 313 312 312
318 318 318 318 318 320 321 320 318 317 318 318 318 317 319 322 318 316 316 316 316 320 322 322 320 315 315 314 313 313 313 312 313 313 312 312 312 311 311 311 312 312 313 314 314 314 314 314 312
318 318 318 319 318 320 322 320 318 317 317 318 318 319 319 318 318 316 316 316 317 316 314 313 312 311 311 311 311 312 312 313 312 312 311 310 308 308 308 309 309 309 310 311 312 313 314 314 313
320 319 321 321 320 320 321 322 319 317 317 317 317 318 318 318 317 316 315 315 314 314 313 313 313 312 312 312 312 311 312 312 311 309 308 307 306 306 306 306 306 307 308 308 309 310 311 312 313
321 319 320 321 322 322 321 323 320 318 318 317 317 318 317 317 316 315 315 315 315 314 314 313 312 312 311 310 310 310 310 310 309 308 307 306 305 305 304 304 305 306 306 306 307 307 309 310 311
322 320 321 321 323 323 323 323 322 319 318 317 317 317 317 316 316 316 315 314 314 313 313 313 312 311 311 310 309 309 309 308 307 307 306 304 303 303 303 303 304 304 305 306 307 307 307 308 309
320 321 321 322 325 327 324 323 324 322 319 318 317 317 317 317 315 315 314 314 314 314 314 313 312 311 310 310 308 307 308 307 306 305 304 303 302 302 302 302 303 304 304 304 304 303 303 303 303
322 322 325 329 329 328 321 322 323 319 317 318 318 318 318 318 317 316 315 315 314 314 313 312 311 311 309 309 308 306 306 305 305 304 303 302 301 301 301 302 303 303 302 302 301 299 298 297 296
322 323 327 326 326 324 321 322 323 318 318 317 317 316 316 316 316 315 314 314 314 313 313 312 311 310 308 308 307 305 306 305 303 302 301 300 300 300 301 302 301 301 301 300 301 300 297 294 293
322 324 320 324 319 328 322 322 320 318 318 317 317 317 317 316 315 315 313 313 313 313 312 311 311 311 309 308 307 306 305 303 301 299 298 298 299 299 301 301 300 300 299 298 297 296 295 295 293
321 319 324 322 330 319 317 319 319 321 319 317 317 317 316 316 315 315 314 313 312 312 312 311 310 309 309 307 305 304 302 300 298 297 297 298 299 300 300 299 297 297 296 295 294 294 294 295 295
322 322 321 320 323 322 321 317 320 319 318 317 317 316 316 316 315 314 313 312 312 311 310 309 309 308 306 305 303 302 300 298 297 297 297 297 297 296 296 296 296 296 294 293 293 294 294 293 292
319 320 319 320 319 321 322 318 316 317 317 316 316 315 315 315 314 313 313 311 311 309 308 306 305 304 303 302 301 300 298 297 297 297 297 297 296 296 296 296 295 294 293 295 293 292 292 291 291

GFSSGP_925_thetae_015.txt.gz
Theta_e
310 314 317 320 322 325 330 331 332 333 335 335 332 334 334 337 342 346 334 329 335 340 340 341 340 340 340 340 339 338 335 336 336 337 336 336 335 334 332 330 328 326 327 328 330 334 333 329 330
316 315 317 322 323 326 328 327 332 333 332 331 330 331 332 335 336 336 331 330 334 338 339 341 339 340 340 341 340 338 336 333 332 332 334 334 333 332 330 329 330 328 328 330 333 333 330 328 327
316 315 318 321 323 325 327 326 333 332 332 333 332 332 333 334 333 332 329 329 331 334 337 336 338 340 341 340 339 338 336 335 334 333 333 332 331 330 331 331 326 322 323 326 328 329 328 328 328
316 316 319 322 326 326 327 331 331 331 332 332 328 332 336 334 333 331 327 326 328 329 331 331 333 332 333 334 334 334 333 331 331 332 332 331 331 330 325 321 321 323 325 325 324 324 324 323 322
315 320 322 323 325 327 329 329 329 331 331 330 328 328 337 337 333 330 327 325 325 325 326 330 324 323 323 323 323 323 324 324 325 326 327 327 325 323 322 322 322 322 321 320 321 323 324 325 326
319 322 324 324 325 327 328 328 327 327 327 326 328 330 336 335 331 330 327 325 324 326 327 325 320 320 321 321 322 322 323 324 324 325 325 325 324 323 322 321 321 319 318 318 318 320 321 322 324
319 323 324 324 323 324 324 324 323 323 324 323 324 329 333 331 330 328 325 324 324 326 327 328 328 326 321 321 322 322 322 322 323 323 323 322 322 321 321 319 319 317 315 316 317 317 317 317 319
320 321 321 321 321 319 318 319 320 321 325 323 325 326 332 331 329 327 325 325 327 327 329 330 330 329 330 331 323 323 322 323 323 324 323 323 328 327 326 323 322 316 315 315 314 314 313 313 312
318 318 318 317 317 317 316 317 317 319 321 321 322 326 329 331 330 328 327 327 329 330 332 331 331 329 328 326 328 326 325 324 326 329 330 329 329 327 326 325 321 318 316 315 316 314 313 312 315
318 318 317 317 317 317 316 317 316 319 319 320 323 324 330 331 330 329 328 329 330 331 331 331 333 331 329 325 328 328 327 328 329 330 330 329 329 328 326 326 325 324 323 322 320 320 319 319 319
318 318 317 316 316 316 316 315 316 317 318 320 321 323 330 330 331 330 330 328 328 330 329 331 337 334 330 327 325 326 326 327 328 330 330 328 329 328 327 325 324 324 323 322 321 321 320 320 319
317 317 316 316 315 316 316 317 317 317 318 318 319 324 328 330 330 330 330 327 327 328 329 331 336 337 333 328 325 325 326 326 326 328 328 326 325 325 324 323 321 320 319 319 319 319 319 320 319
316 316 316 316 315 316 317 317 318 317 317 318 321 324 327 329 329 328 328 328 327 328 329 330 333 339 332 329 326 326 327 326 327 326 325 325 324 323 322 321 320 318 318 318 318 318 318 318 316
319 319 319 318 318 318 318 318 319 319 318 317 320 323 325 326 327 327 328 328 328 329 329 330 333 337 332 325 326 326 326 325 325 323 322 323 323 323 321 320 319 318 317 317 317 317 318 317 315
320 320 321 320 320 320 319 319 319 319 319 318 318 321 324 325 325 326 327 328 328 328 329 331 334 336 330 325 324 323 321 320 320 320 320 321 321 320 320 319 319 318 318 317 317 317 317 317 316
320 321 322 321 321 321 321 323 320 320 320 320 320 320 322 324 324 325 325 326 327 327 326 328 333 335 329 323 322 321 320 320 320 320 320 320 320 320 319 318 318 318 318 318 317 316 316 316 316
320 322 320 321 321 321 321 323 322 322 320 320 321 321 320 323 325 326 328 327 325 324 324 327 333 332 327 323 321 321 321 320 319 319 317 317 317 316 317 317 317 317 317 317 317 316 316 316 316
320 318 318 319 321 319 320 321 322 320 320 321 321 321 321 322 325 327 324 322 321 322 325 328 331 328 325 322 320 318 317 317 316 316 316 316 316 315 315 315 315 315 315 315 315 316 316 316 316
318 318 319 320 320 319 320 321 320 321 321 322 322 321 321 322 325 322 320 320 321 325 326 327 325 320 318 317 316 316 316 315 315 316 315 315 314 312 312 312 311 312 311 312 312 313 314 315 315
320 320 321 321 320 320 322 321 320 320 321 322 321 322 323 323 321 320 320 320 320 320 319 318 317 316 315 315 315 315 315 315 315 315 313 312 311 310 309 309 309 308 309 309 310 311 312 313 314
322 321 323 322 321 321 321 322 320 320 320 320 320 320 320 320 319 319 319 319 319 318 317 316 316 315 315 314 314 314 314 314 314 313 312 311 310 309 308 307 307 307 307 308 308 309 309 311 311
323 321 321 322 322 323 322 325 323 321 320 320 320 320 320 319 319 319 319 319 318 318 316 316 315 315 314 314 313 314 313 313 313 312 311 310 308 307 306 305 305 306 306 307 307 307 309 309 310
323 322 322 323 324 323 322 322 324 321 321 320 320 320 320 319 320 319 318 318 317 317 317 316 315 315 314 314 312 312 312 311 311 310 309 307 306 305 304 304 304 305 305 306 306 307 307 307 307
322 323 323 325 326 327 325 324 326 324 323 320 319 319 320 319 319 318 317 317 317 317 317 316 315 314 314 313 312 311 310 309 308 308 306 305 304 303 303 303 303 304 305 305 305 305 303 302 301
323 325 329 330 330 330 324 321 326 322 321 321 320 321 321 320 320 319 318 317 317 316 316 315 315 314 313 312 311 310 309 308 307 306 305 303 302 301 301 302 303 303 303 302 302 301 300 298 296
323 325 330 327 328 325 323 321 325 321 320 320 319 319 319 319 318 318 317 317 316 316 315 315 314 314 313 312 311 310 309 307 305 304 302 301 300 300 301 302 303 302 301 300 297 297 297 295 295
324 325 322 327 325 328 322 322 323 321 320 319 319 319 319 318 317 317 316 316 315 315 314 314 313 312 311 311 310 308 306 305 303 301 300 300 300 300 301 302 301 299 298 298 298 297 297 296 296
323 321 326 324 328 321 319 317 323 322 321 320 319 318 318 318 317 317 316 315 314 314 313 312 311 311 310 308 307 306 304 303 300 299 299 299 299 299 298 299 298 297 297 296 296 296 296 296 296
324 324 322 320 322 324 321 319 319 319 319 319 318 317 317 318 317 316 315 314 313 313 312 310 309 308 307 305 304 303 302 301 299 299 299 298 298 297 298 297 297 297 296 295 295 295 295 295 294
321 322 320 321 319 320 322 321 318 318 317 317 317 317 317 316 316 315 314 313 313 311 310 308 307 305 304 303 302 301 300 300 299 299 297 297 296 297 297 297 296 295 295 295 294 294 294 293 293

GFSSGP_925_thetae_018.txt.gz
Theta_e
308 313 315 319 322 322 324 331 334 334 334 332 331 331 334 338 343 343 332 338 342 341 342 339 339 340 340 339 338 336 335 336 336 336 336 335 334 333 331 329 328 329 329 330 331 331 327 326 326
311 317 317 320 322 325 328 330 332 332 330 327 330 330 334 336 335 331 333 338 340 342 342 340 339 340 340 339 338 337 334 332 331 332 332 332 332 330 329 330 329 325 325 331 333 331 327 327 326
311 317 318 321 322 323 328 330 333 330 328 331 330 334 333 334 332 329 332 336 337 340 337 339 340 340 339 339 338 336 334 333 332 333 334 333 333 333 330 324 321 322 325 327 325 324 324 324 324
316 316 316 319 322 326 327 332 330 329 331 330 330 334 333 332 330 328 329 331 332 335 331 331 331 333 332 332 332 331 331 331 331 331 330 329 328 324 322 322 323 323 321 319 319 320 321 322 323
317 318 318 322 327 328 330 329 328 330 329 328 328 336 337 332 328 326 326 327 327 329 324 324 323 322 322 322 322 322 323 323 323 324 324 323 323 322 320 320 319 317 315 315 316 317 319 319 319
316 319 320 323 326 328 328 328 328 331 328 325 329 334 336 331 328 325 324 325 325 328 322 319 319 319 320 321 321 322 322 322 322 322 322 322 321 320 320 319 318 316 314 314 315 315 315 314 314
318 318 320 325 325 326 326 325 323 324 325 324 326 333 333 330 329 325 324 324 326 326 326 325 320 321 321 320 321 322 321 321 321 322 322 321 323 325 323 320 318 315 314 313 313 312 312 311 311
317 318 319 323 322 323 320 322 322 322 324 323 325 331 332 330 327 325 324 324 326 328 329 329 330 330 332 329 320 321 321 321 322 325 325 327 329 327 326 325 322 319 314 315 314 315 313 311 310
318 319 321 320 320 317 317 317 317 320 321 321 325 327 330 329 326 325 324 326 327 329 330 330 329 328 329 329 325 328 322 326 330 330 330 330 329 329 327 324 325 324 323 321 321 319 319 318 317
318 319 318 317 317 317 316 317 316 319 319 321 325 331 330 328 328 326 326 328 329 330 331 331 330 329 327 325 328 328 327 330 330 330 330 330 328 328 327 327 326 325 323 321 323 321 320 320 321
318 318 317 316 316 317 316 315 317 318 318 321 321 330 330 329 328 327 327 328 329 329 330 332 334 331 330 327 324 327 327 327 329 331 329 328 327 326 325 324 324 321 321 322 320 321 320 321 320
317 317 316 315 316 316 315 316 316 317 319 320 321 325 330 329 329 329 329 328 328 330 329 335 335 334 331 328 326 326 327 326 327 327 327 325 325 324 322 322 320 319 318 318 319 318 318 318 319
316 316 315 315 315 316 317 317 318 317 318 318 322 324 328 328 329 329 329 327 327 328 329 330 334 337 332 326 326 326 326 328 325 326 324 324 324 323 322 321 320 319 318 318 317 317 318 318 317
317 317 317 317 317 317 316 318 318 318 317 318 321 324 327 328 328 328 328 328 327 328 329 330 333 336 333 326 326 326 327 325 324 322 322 323 323 323 321 320 320 319 319 318 317 317 318 318 318
319 319 319 319 319 318 318 319 318 319 318 317 319 322 325 326 327 327 327 328 327 329 329 330 330 335 332 326 325 324 322 320 320 320 320 321 321 320 320 320 319 319 319 318 318 318 318 317 317
319 320 321 320 321 320 319 321 319 319 319 319 318 319 322 325 324 326 327 327 327 327 327 329 333 336 333 326 323 322 321 320 320 320 320 320 320 319 318 318 318 318 318 318 318 318 318 318 317
321 321 322 322 321 322 320 321 320 320 321 320 321 320 320 323 324 325 325 326 326 325 324 325 333 334 332 325 323 322 322 320 321 319 317 317 316 316 316 316 316 316 315 316 316 317 317 318 318
320 320 319 319 321 319 319 320 322 321 321 321 320 321 321 321 324 327 324 322 322 324 325 327 331 329 326 323 321 320 319 318 317 317 317 316 315 315 314 312 313 313 313 313 313 313 314 314 316
319 318 319 321 320 319 318 320 321 321 321 322 322 323 322 325 323 322 321 322 325 326 326 327 323 320 319 318 316 316 316 316 316 316 316 315 313 312 311 310 310 309 309 310 309 310 311 312 313
319 320 320 321 320 319 319 321 321 321 322 322 322 322 325 323 322 322 321 321 320 319 319 318 318 317 316 316 316 316 315 316 315 315 314 313 312 311 310 309 308 308 308 308 308 309 311 311 311
321 321 324 322 321 321 321 321 321 320 321 321 322 323 322 321 321 321 321 321 319 318 318 317 316 316 315 314 315 315 315 314 314 314 313 312 311 309 308 306 305 306 306 307 307 306 308 310 310
322 323 322 321 322 323 322 322 322 320 320 321 321 321 321 320 320 320 321 320 319 318 317 316 316 315 315 315 314 313 314 313 312 312 311 309 308 307 305 304 304 304 305 305 306 307 307 308 307
323 322 322 322 323 323 322 323 324 321 321 321 321 321 321 321 320 320 319 319 318 318 318 317 316 316 315 314 314 313 312 311 310 309 309 307 306 304 303 302 302 303 303 304 306 306 305 303 302
321 324 324 324 325 333 323 324 327 323 322 321 320 320 320 320 320 319 318 318 318 318 317 317 316 315 315 313 312 312 311 310 309 308 306 304 302 302 302 302 302 302 304 303 302 302 302 301 300
324 325 334 337 337 336 326 321 327 323 322 321 321 321 321 321 321 320 319 318 317 317 316 316 316 315 314 313 313 312 310 308 307 305 303 301 301 301 301 302 303 302 302 300 300 299 299 298 297
324 324 336 331 334 329 322 321 324 322 321 321 320 320 320 320 319 319 317 316 316 316 315 315 315 314 312 312 311 310 308 306 305 302 301 300 300 300 300 299 300 300 298 298 298 298 297 297 296
324 326 320 327 326 331 321 325 323 321 320 320 320 319 319 319 318 318 317 316 316 315 314 314 313 312 311 309 308 307 305 304 303 301 300 299 300 299 298 298 299 298 298 297 296 295 295 296 296
322 320 327 331 331 325 319 320 325 323 321 320 319 319 318 318 318 318 316 316 315 314 314 312 310 309 308 307 305 304 303 302 301 300 300 299 297 297 297 298 298 298 297 296 296 296 295 295 295
323 324 322 320 325 327 325 320 318 318 320 319 318 318 318 318 317 317 315 314 313 312 311 310 309 307 305 305 304 303 301 300 300 300 299 297 296 296 296 297 297 296 296 295 293 293 294 293 293
320 321 320 330 323 329 327 321 318 318 318 319 318 317 317 317 316 315 314 314 312 311 310 309 306 305 305 303 302 300 300 300 300 298 298 296 296 296 295 294 294 294 294 294 294 292 292 293 292

GFSSGP_925_thetae_021.txt.gz
Theta_e
308 309 316 315 317 317 319 322 330 330 327 331 333 336 336 334 338 340 342 341 339 338 338 339 340 339 338 337 335 335 335 335 335 334 334 333 332 331 329 329 329 327 323 321 325 323 324 325 326
308 314 317 314 318 320 322 329 327 325 326 332 331 332 331 332 332 334 340 342 341 338 338 339 339 339 338 337 336 334 332 332 331 331 331 330 330 330 330 326 321 320 321 321 320 320 320 321 322
309 313 313 315 317 318 323 329 326 326 327 331 334 331 331 330 330 335 342 342 339 337 338 339 339 338 337 336 334 333 332 334 335 335 332 330 329 325 320 320 320 319 317 315 315 317 319 320 321
315 314 311 314 316 321 329 327 327 329 328 332 331 333 329 329 330 335 338 335 332 335 336 336 333 332 331 329 329 328 327 327 327 326 324 323 321 320 320 319 318 315 314 313 314 314 314 315 315
318 313 314 316 319 328 326 326 326 328 327 334 334 332 328 327 330 332 332 325 324 328 326 326 324 322 322 321 321 321 321 321 321 321 321 321 320 319 319 319 317 315 313 313 312 312 312 311 310
313 312 315 316 325 326 324 322 329 328 326 334 335 332 327 325 325 327 326 322 319 321 320 319 319 319 319 319 320 320 320 320 320 320 319 319 321 319 319 317 314 313 312 311 311 311 310 309 309
315 314 315 315 320 325 323 321 320 324 321 331 332 332 327 325 324 325 326 326 324 318 317 318 322 321 319 317 319 319 320 320 320 319 321 326 326 324 324 323 321 319 314 317 314 316 316 313 310
313 313 315 316 322 318 319 317 318 320 319 323 329 332 329 326 324 324 325 326 326 327 328 328 329 330 327 318 315 316 317 320 326 327 327 329 328 327 325 324 324 323 322 321 320 320 320 318 317
314 312 314 314 316 315 316 314 314 317 318 325 325 328 327 326 323 323 325 326 326 328 329 330 330 330 329 326 326 323 329 329 330 329 330 329 329 327 326 326 325 324 321 322 322 320 321 320 320
312 312 313 313 312 312 313 312 315 316 317 328 329 328 326 325 324 324 324 326 329 330 330 329 328 327 328 327 328 327 329 328 330 329 329 329 327 328 327 326 325 320 321 321 319 319 319 320 320
314 312 312 312 312 311 310 313 316 314 315 325 329 327 325 325 325 324 325 328 329 330 331 329 329 328 328 327 328 328 328 329 330 330 327 325 327 325 323 322 320 319 318 318 318 319 318 319 318
314 312 312 313 312 311 311 312 314 313 314 319 328 327 326 325 325 325 325 328 329 331 331 332 326 324 329 326 326 327 327 329 329 327 327 324 324 323 321 320 319 319 318 318 318 318 317 317 317
312 312 312 312 313 313 314 315 315 314 314 317 327 328 327 325 326 327 327 327 329 330 332 331 328 322 323 325 325 324 327 327 326 326 324 320 323 322 321 321 320 319 319 318 318 317 316 317 317
314 312 312 313 314 315 315 316 317 313 313 318 325 326 325 325 326 328 328 328 328 329 334 335 335 333 330 327 326 326 326 324 325 323 322 318 319 322 321 320 319 319 319 319 319 318 317 318 318
316 315 314 315 314 316 316 317 315 312 312 315 319 324 323 325 326 327 328 327 328 328 331 335 332 326 325 326 324 324 326 323 321 321 320 320 320 320 319 319 319 319 318 318 317 316 317 318 317
317 316 316 316 315 316 315 315 314 313 313 314 315 315 321 323 325 328 327 327 327 329 333 333 330 328 329 325 323 322 321 319 320 320 320 320 320 319 317 316 316 315 315 314 314 315 315 316 317
317 316 319 318 317 317 316 316 314 313 314 313 312 313 315 319 321 325 325 324 324 325 330 331 333 331 327 323 322 321 321 320 319 318 318 317 316 316 316 315 313 311 311 310 310 311 310 309 310
318 317 319 318 318 317 316 316 316 316 317 317 317 313 315 320 319 322 325 325 326 328 330 328 327 324 323 322 321 319 320 318 317 316 316 315 314 313 312 311 310 309 308 307 307 307 307 307 309
317 317 318 317 318 318 318 314 317 318 318 318 316 320 320 321 320 319 320 321 321 320 320 320 318 316 316 316 316 315 315 315 314 315 313 313 312 311 310 308 307 306 306 306 307 307 308 307 305
318 319 321 318 318 317 316 317 317 318 318 316 320 319 319 319 319 319 319 318 317 317 317 317 316 316 315 315 315 315 314 315 314 312 312 310 308 307 307 305 304 304 304 304 305 305 305 305 308
321 321 320 320 318 318 319 317 318 318 318 319 318 318 318 318 319 319 318 317 317 316 316 316 315 315 314 314 314 314 313 313 313 311 310 307 307 305 304 303 302 302 302 302 302 303 306 306 306
324 322 322 321 320 320 317 318 318 318 318 318 317 315 315 316 318 318 318 318 317 317 316 316 315 315 315 314 314 313 312 311 310 309 307 306 305 304 302 301 300 301 301 303 305 306 305 305 302
323 321 321 321 320 321 321 319 318 317 320 319 317 317 316 315 315 315 317 318 318 317 317 316 316 315 315 314 313 312 311 310 308 306 305 304 303 301 300 300 302 303 303 303 302 302 302 300 299
319 322 323 323 321 323 327 324 326 320 321 319 318 317 316 315 314 316 318 318 318 317 316 316 315 315 312 313 312 311 309 307 306 304 303 302 300 300 299 301 299 300 301 300 299 299 299 298 298
321 323 324 326 326 326 327 325 326 320 319 319 319 317 316 315 314 313 315 317 317 316 316 315 315 313 312 311 310 308 307 306 305 303 302 300 300 300 299 298 298 300 299 298 298 298 298 297 296
323 323 320 329 325 323 324 325 322 319 318 319 318 316 316 315 314 313 315 315 315 314 314 314 314 312 310 308 308 306 305 304 303 302 301 299 300 299 297 297 298 298 297 297 297 295 295 295 295
322 320 319 323 322 319 321 322 320 319 319 318 317 317 315 315 313 314 314 314 313 314 313 312 311 309 308 306 304 304 302 302 301 301 300 299 298 297 296 295 297 297 297 296 296 294 294 294 294
320 318 322 319 322 323 319 324 325 322 322 321 318 315 314 314 313 311 312 312 312 312 311 310 309 307 305 304 304 302 301 300 300 301 299 299 296 295 295 295 295 296 295 294 294 293 293 293 293
320 322 320 319 317 320 318 317 316 320 322 320 316 316 313 312 311 311 312 312 311 310 310 309 306 305 304 303 302 302 300 299 300 300 298 297 295 295 295 294 293 291 291 291 292 291 290 291 292
319 320 320 315 320 315 315 316 315 316 316 315 314 314 313 311 310 310 311 310 309 308 306 306 304 304 304 303 302 300 300 299 299 298 297 296 296 295 294 292 291 290 290 290 290 290 289 289 288

GFSSGP_925_thetae_024.txt.gz
Theta_e
308 308 314 315 316 316 317 319 329 331 334 333 332 332 333 333 337 343 340 339 339 340 339 339 338 337 336 336 335 336 336 335 334 333 332 330 329 328 328 326 320 318 319 320 319 319 320 320 320
308 314 316 313 316 319 322 326 334 333 332 330 330 336 338 342 339 340 340 340 338 338 339 339 338 337 335 334 333 332 331 331 330 330 329 329 328 324 319 318 318 317 314 313 315 316 317 318 319
309 313 312 314 315 316 324 326 325 329 331 332 331 329 330 331 337 340 341 339 337 339 339 339 338 336 335 334 332 331 332 333 331 327 325 323 320 319 318 317 315 312 312 312 311 311 311 311 311
316 311 309 313 314 315 327 325 331 333 331 330 329 330 327 334 337 341 341 338 337 338 339 337 335 334 332 330 328 327 327 327 324 322 321 320 319 318 317 316 314 311 310 310 310 310 310 310 309
317 310 313 314 318 325 325 325 329 333 333 330 329 330 327 335 341 340 338 336 336 337 335 332 328 325 323 323 323 322 321 320 320 320 319 318 317 317 316 314 312 311 310 310 310 310 310 309 309
312 311 314 315 320 326 322 326 332 334 329 328 328 328 325 334 335 334 329 327 325 328 326 321 319 319 319 319 319 319 319 319 319 318 319 323 322 321 321 321 318 317 314 316 315 318 317 314 311
313 313 315 314 315 322 322 320 326 334 334 332 326 327 323 324 329 324 320 319 320 319 318 318 318 318 316 316 315 318 318 319 318 321 326 326 326 324 323 324 323 321 321 320 320 319 319 318 317
312 312 314 314 321 321 319 318 317 329 328 329 326 328 324 321 325 322 320 317 317 318 321 324 325 324 317 312 315 316 320 325 325 328 328 327 326 325 326 325 324 321 322 321 320 319 320 320 319
312 313 312 313 317 316 313 316 315 319 325 326 325 324 323 323 326 326 324 320 319 320 325 328 327 326 323 319 317 324 328 328 328 329 329 327 327 326 326 325 323 321 321 320 318 318 319 319 319
312 311 312 312 314 312 311 312 314 323 328 328 326 324 321 323 324 323 323 324 325 325 327 328 327 327 325 325 323 328 328 328 329 329 328 327 327 327 326 325 321 320 319 318 317 318 318 318 317
310 311 311 311 311 311 311 313 314 322 328 329 327 323 321 321 322 322 323 325 327 328 329 328 325 326 327 327 327 326 328 329 329 328 327 326 327 324 323 321 318 319 318 318 318 318 317 316 316
311 311 311 313 311 310 311 311 313 313 322 327 325 323 322 320 321 322 323 325 328 329 329 327 327 328 327 326 327 328 328 329 330 327 326 325 324 322 321 320 319 319 318 319 318 317 317 317 316
310 311 311 311 312 311 311 312 314 313 322 326 324 324 323 323 322 323 324 327 329 329 328 328 328 328 326 325 326 327 327 330 327 327 325 320 323 321 320 321 320 319 319 319 319 318 317 317 317
311 311 311 311 313 314 314 314 314 313 324 326 326 325 324 324 324 324 324 325 327 330 330 328 322 323 323 325 325 325 327 325 326 325 323 318 317 319 320 319 318 319 318 317 315 314 314 314 315
311 312 312 313 314 314 314 316 313 312 327 328 327 326 325 325 325 325 325 325 326 331 332 329 327 326 327 327 325 325 326 324 325 323 321 320 320 320 320 318 317 315 314 314 313 312 312 312 312
315 313 314 315 313 315 313 314 314 309 319 327 326 325 325 324 324 325 324 325 327 331 333 333 329 327 325 326 324 323 325 320 320 320 320 320 320 319 317 315 314 311 310 310 309 308 307 307 307
314 314 316 317 313 315 314 314 313 309 313 316 318 318 319 318 321 322 323 327 329 333 335 333 331 328 327 326 323 321 320 320 319 317 318 316 315 314 313 311 310 309 308 307 307 306 306 306 306
315 315 315 315 315 315 315 314 314 312 310 311 310 317 319 320 319 320 323 324 329 330 332 331 330 328 326 321 320 320 316 315 316 314 313 312 310 309 308 307 306 305 305 305 305 305 305 305 303
316 316 316 316 317 317 314 316 317 316 313 317 319 319 318 317 317 317 317 317 321 322 318 317 316 318 317 315 315 314 314 312 312 311 310 309 308 306 305 304 303 302 302 302 302 302 302 302 304
318 318 318 317 317 315 314 315 316 315 316 319 320 319 318 317 317 316 316 316 316 315 315 315 314 315 315 314 313 313 313 312 310 309 308 307 306 306 304 302 300 300 300 299 300 301 304 306 306
321 319 320 319 318 316 314 316 317 318 318 319 318 318 318 317 317 315 315 315 315 315 315 315 315 315 314 314 314 313 313 311 310 308 307 305 305 304 301 299 300 300 301 303 304 305 304 304 303
323 320 320 319 317 317 315 317 317 317 317 316 316 316 317 318 316 315 315 316 316 316 316 315 315 315 314 314 313 312 311 310 307 306 305 305 304 302 299 299 300 300 300 300 301 301 300 300 299
321 320 320 320 319 319 320 316 317 318 319 318 316 316 316 316 316 315 316 317 317 316 316 315 315 314 314 313 312 311 310 308 306 306 305 304 301 299 298 299 298 298 299 299 299 298 298 297 297
319 321 321 321 319 321 325 319 319 317 318 318 317 316 315 313 313 314 316 317 317 316 316 315 313 312 313 312 311 311 309 306 305 304 303 300 299 299 299 298 296 297 298 298 297 297 297 295 295
317 321 321 324 322 323 326 325 323 319 318 318 317 314 313 312 312 313 315 316 316 316 315 314 313 311 310 310 309 308 306 305 304 303 301 300 299 299 298 296 296 297 296 296 295 296 295 294 294
321 320 318 329 322 320 319 324 321 319 319 317 316 314 314 313 312 312 313 314 314 313 313 313 311 309 308 307 306 304 303 302 301 301 300 299 299 298 296 294 295 296 296 295 295 295 294 293 294
321 318 317 319 317 317 320 320 319 318 319 318 319 318 315 311 310 310 311 311 312 312 311 310 309 308 306 305 304 303 302 301 300 300 300 300 299 296 295 294 294 295 295 294 294 293 292 292 291
316 316 320 315 319 322 318 322 322 320 319 317 315 313 312 312 311 309 310 310 310 310 309 308 308 305 304 304 303 303 302 300 300 300 300 300 298 296 295 295 294 293 291 290 290 291 291 291 290
318 319 317 315 314 318 317 315 313 319 320 315 313 312 312 311 310 310 309 308 307 307 306 305 305 304 304 303 303 302 301 300 299 299 299 299 297 295 295 294 292 290 290 289 289 289 289 289 288
317 319 316 313 316 313 312 313 315 314 314 313 314 312 311 310 309 307 307 307 306 305 303 304 302 302 302 303 303 302 300 299 299 299 299 298 296 296 294 293 291 290 289 289 289 289 288 287 286

GFSSGP_925_thetae_027.txt.gz
Theta_e
308 308 314 315 316 314 316 317 328 331 334 331 332 335 337 338 340 341 338 339 340 340 338 337 336 336 336 336 336 336 335 334 333 331 329 328 327 326 321 319 319 319 320 326 318 316 317 318 319
308 315 316 312 316 317 324 323 333 334 333 331 333 336 339 347 341 342 340 340 340 339 338 337 336 336 335 335 335 334 332 330 329 328 327 326 321 318 317 316 313 310 311 311 311 310 310 310 310
310 314 311 313 313 316 322 327 332 331 330 331 331 328 332 345 340 339 339 340 340 339 338 337 336 334 333 332 331 330 329 328 326 324 321 319 318 316 315 314 311 309 310 310 310 310 310 310 309
315 310 308 312 313 314 321 325 331 332 331 330 330 332 327 336 340 340 339 340 340 339 338 337 335 333 331 330 329 327 325 323 321 320 319 317 316 315 315 312 310 310 309 310 310 310 310 309 309
315 309 312 313 314 322 323 326 331 332 331 330 329 331 331 339 341 339 340 340 339 339 338 335 331 328 326 325 324 323 321 320 319 318 317 315 316 315 317 314 314 312 313 314 317 318 317 315 310
310 308 312 319 322 322 320 331 332 330 329 330 332 329 325 338 340 340 339 338 338 335 332 328 324 322 321 320 319 319 319 319 318 317 320 322 319 321 322 321 320 319 319 319 319 319 319 318 318
312 311 313 313 321 323 324 319 331 330 331 330 326 325 326 331 338 338 337 335 330 325 322 320 318 318 318 318 318 318 318 318 317 322 324 324 323 323 324 323 321 320 320 319 318 318 318 318 318
311 311 314 313 323 326 323 318 327 332 332 325 323 326 331 326 335 335 330 325 322 319 318 320 318 315 315 315 316 316 316 318 325 326 326 325 325 325 325 324 321 321 320 318 317 318 318 318 318
310 312 312 313 324 325 323 316 317 323 328 326 325 322 328 328 329 328 326 324 321 320 321 323 321 316 312 314 316 321 325 326 327 327 327 326 326 326 325 324 321 320 319 318 318 318 318 317 317
313 311 312 312 314 316 314 323 324 328 328 326 321 320 323 324 324 322 321 323 322 322 323 325 324 322 317 318 323 326 328 327 328 329 327 326 327 326 324 323 321 321 319 319 318 318 318 317 316
311 312 310 310 311 310 311 317 317 327 329 326 323 321 321 323 323 320 319 320 322 323 325 326 326 323 324 322 326 327 328 328 328 328 327 326 327 326 323 322 320 319 319 318 318 317 317 317 317
311 310 310 312 309 310 310 311 320 316 326 324 321 320 321 321 322 322 322 322 322 324 327 326 327 326 325 326 325 327 327 329 329 328 326 325 324 322 321 320 319 319 319 319 319 318 316 315 314
310 310 311 310 309 309 310 312 312 313 323 323 321 320 321 320 321 322 324 325 325 326 328 327 327 328 327 327 327 327 327 328 329 328 326 323 323 322 320 320 319 318 318 318 316 315 314 313 312
310 310 310 311 311 312 313 313 314 316 323 323 321 320 320 320 320 321 322 324 325 327 329 328 327 327 326 326 326 327 327 328 329 327 325 323 322 321 320 319 318 316 314 313 311 310 309 309 308
309 310 311 312 312 313 313 314 313 315 324 324 323 322 321 321 321 321 321 323 326 328 329 327 328 325 325 325 325 326 326 327 325 326 323 321 320 320 319 316 313 311 309 308 308 308 307 306 305
313 311 312 313 313 312 312 312 313 319 325 325 324 323 323 320 320 322 323 322 326 329 328 328 328 327 327 325 323 324 324 321 323 322 320 320 318 314 312 311 309 308 307 307 306 305 305 305 304
311 313 315 316 313 313 313 313 313 314 326 326 322 317 318 319 320 322 322 323 325 330 330 329 326 326 325 326 321 319 318 318 317 317 315 312 310 309 308 306 305 305 305 304 303 303 302 302 301
314 315 313 314 314 313 314 313 313 308 315 312 316 318 318 317 316 317 325 328 332 331 331 329 328 326 319 321 316 315 315 314 313 312 310 309 308 307 307 306 304 303 302 301 300 299 299 300 304
315 315 315 315 315 313 314 313 313 310 314 317 318 318 317 316 315 316 316 326 330 329 326 327 327 323 316 315 314 313 312 311 310 309 308 308 307 307 305 304 302 301 299 301 302 304 304 304 305
317 315 317 317 316 314 313 313 317 316 317 318 318 317 316 315 314 314 315 319 320 318 316 316 316 315 315 314 313 313 311 310 309 308 308 307 306 304 303 301 300 297 296 298 300 302 302 302 302
320 318 319 319 315 313 314 314 316 318 318 318 316 316 315 315 314 314 314 315 316 315 314 314 314 314 314 314 313 312 311 310 307 306 305 304 304 303 301 298 297 297 296 296 298 299 298 299 299
323 320 319 318 315 315 313 317 318 316 316 317 317 316 315 315 315 315 314 313 314 314 315 315 314 314 314 314 314 313 312 310 306 305 304 304 302 301 298 298 298 297 296 298 298 297 298 297 297
320 319 318 318 316 317 320 316 316 317 318 318 316 316 316 316 315 313 314 314 314 314 314 314 314 313 313 312 312 312 311 309 306 305 305 303 301 299 298 298 298 295 296 297 296 296 296 295 294
318 320 319 319 318 320 323 316 317 317 318 317 316 317 317 315 314 314 314 315 314 313 313 313 313 313 312 312 311 310 309 307 306 304 304 303 301 299 299 298 297 295 296 295 296 295 295 294 293
317 319 320 323 321 322 320 322 318 317 316 317 316 314 313 313 313 312 314 314 314 313 312 312 312 311 311 310 309 308 307 305 304 303 302 301 300 299 299 298 295 294 295 296 295 294 294 293 292
320 318 318 328 321 319 318 323 320 318 315 315 314 313 312 311 311 311 312 311 312 313 312 311 310 309 309 308 306 304 304 303 302 301 301 300 299 299 299 296 294 294 294 294 294 294 293 293 292
320 317 316 317 314 317 319 320 318 318 317 316 315 314 312 309 309 308 309 310 310 310 309 308 308 307 306 304 303 303 303 302 301 300 300 299 299 299 297 295 294 294 294 293 293 293 293 292 292
315 316 319 313 317 321 317 321 319 318 318 317 314 312 310 309 308 307 308 309 309 308 307 307 308 306 305 304 303 303 302 301 300 300 299 299 299 299 297 295 295 294 292 290 290 290 289 289 289
317 317 315 314 313 316 315 315 311 317 317 314 312 311 311 310 309 307 307 306 306 304 304 304 304 304 303 302 302 302 301 300 299 299 299 299 299 297 295 295 293 292 291 289 289 289 289 289 288
316 317 313 309 314 311 310 312 311 314 314 313 312 311 309 308 306 306 306 305 304 303 303 303 302 301 301 302 301 300 299 298 298 298 298 298 297 297 295 294 293 292 290 289 289 289 288 288 286

GFSSGP_925_thetae_030.txt.gz
Theta_e
308 307 310 313 315 315 316 316 325 331 335 332 336 339 343 343 341 341 339 339 340 339 337 337 336 336 335 335 335 335 334 332 330 328 326 325 323 318 317 315 312 314 323 324 316 312 311 310 311
308 314 313 310 315 315 319 318 333 334 335 335 336 338 342 347 341 340 340 340 339 338 337 337 336 336 336 336 335 333 330 328 327 325 323 320 317 315 314 311 310 310 313 317 315 310 310 309 309
310 313 308 310 312 315 318 328 334 334 330 330 330 328 337 345 341 339 340 340 339 338 337 337 336 336 335 333 331 329 327 326 324 321 318 317 315 315 313 310 309 309 310 310 310 310 309 309 309
314 308 305 311 313 313 318 329 332 332 330 330 330 332 329 337 339 340 340 340 339 338 337 336 335 333 331 329 327 326 325 321 319 318 316 315 315 314 311 311 310 310 312 316 317 317 316 311 314
312 304 308 312 313 318 318 329 331 332 330 330 330 332 333 339 340 339 340 339 338 338 337 335 333 330 327 326 325 323 320 318 318 316 315 316 315 318 316 316 317 318 318 318 318 318 317 318 318
309 305 309 323 323 320 327 330 332 330 329 331 334 329 331 338 339 339 339 337 340 339 336 333 330 326 324 324 321 319 318 318 316 316 319 318 321 321 320 319 319 319 318 317 317 317 317 317 317
311 308 310 325 327 323 323 328 331 330 330 330 326 331 336 336 338 338 338 338 339 336 331 328 325 323 321 318 318 318 318 317 317 322 323 322 323 323 322 320 320 319 318 317 317 317 316 317 317
308 308 311 313 327 328 320 325 330 330 331 323 328 338 341 332 337 339 338 337 335 330 325 321 319 318 318 317 317 318 318 317 322 324 324 324 324 324 323 321 320 320 319 318 318 318 317 316 316
309 311 310 311 324 327 324 325 320 324 325 325 323 329 333 334 337 337 336 335 331 325 319 318 317 317 314 316 316 317 318 324 325 326 326 325 325 325 324 323 321 320 319 318 318 318 318 317 316
311 311 314 311 322 324 322 323 323 328 328 324 322 323 329 332 334 330 329 328 326 321 321 320 317 313 314 315 318 322 324 326 327 327 326 326 326 325 324 324 322 320 319 318 318 317 317 317 316
311 313 310 310 313 318 317 321 322 327 329 324 325 324 326 327 325 324 324 322 321 321 322 322 320 315 315 318 323 325 326 326 327 327 327 326 326 326 324 322 319 319 318 318 318 318 317 315 313
313 310 309 309 310 313 318 314 326 322 324 323 324 323 324 323 321 319 319 320 321 323 324 324 323 320 318 322 324 326 327 327 328 327 326 324 325 322 321 319 319 318 318 317 316 314 313 311 310
311 310 310 308 308 309 309 314 324 314 323 319 322 322 322 321 320 318 317 320 322 323 325 325 325 323 323 322 323 325 326 328 328 329 327 324 323 321 320 319 318 316 313 311 310 309 308 307 307
309 308 309 309 309 310 311 311 313 318 320 319 322 321 321 321 320 320 320 321 322 324 325 326 326 326 325 325 326 325 325 326 328 329 327 323 322 321 320 317 313 311 309 308 307 307 306 305 305
309 310 310 310 311 312 311 313 314 320 320 320 320 321 319 318 319 319 321 322 324 325 326 326 326 327 326 325 325 325 326 327 327 327 323 321 319 318 315 311 309 307 306 306 306 305 304 303 302
311 310 310 311 312 311 310 310 312 322 322 320 319 319 319 319 319 320 321 322 323 325 327 327 327 325 324 324 323 326 322 323 323 320 318 316 313 311 310 309 307 306 305 304 303 302 301 300 300
310 311 313 315 312 312 312 312 309 322 323 322 320 319 319 320 318 320 322 322 322 326 327 327 326 325 326 324 322 319 316 316 315 314 312 310 309 309 308 307 305 304 303 303 301 300 302 303 303
312 313 312 314 313 312 312 311 312 311 323 317 317 317 317 316 314 317 324 324 325 328 327 326 326 325 322 318 316 314 314 312 312 311 310 309 309 308 307 306 305 305 302 298 296 297 298 301 301
313 314 314 313 313 311 314 317 315 311 315 317 317 316 315 314 313 316 320 325 327 328 328 327 326 319 316 313 313 313 311 311 310 310 309 309 308 306 306 304 301 298 296 295 295 296 298 298 298
314 314 316 316 313 312 315 315 316 316 317 317 316 315 314 313 313 315 316 321 322 323 325 326 322 316 314 313 313 313 311 310 309 308 307 306 306 305 304 301 298 297 297 295 294 296 296 297 298
319 317 318 317 314 311 314 314 317 316 317 316 315 314 313 313 314 314 316 315 316 315 314 314 313 313 313 314 313 312 311 308 307 306 306 306 306 304 301 298 297 297 296 295 296 296 296 296 296
320 318 317 316 313 316 312 316 318 316 317 317 316 314 313 313 314 315 314 312 312 312 313 313 313 313 313 313 313 313 311 310 307 306 305 305 303 301 299 298 298 297 294 293 294 295 294 295 294
319 317 317 316 316 316 319 317 316 318 320 318 316 315 313 313 314 312 312 312 313 313 313 314 314 313 313 313 312 312 311 309 306 306 306 304 301 300 299 298 298 297 294 294 295 295 295 295 294
316 319 317 317 316 319 322 315 316 317 318 318 316 315 314 314 313 312 312 313 313 313 314 314 313 313 313 312 311 311 310 308 306 305 304 302 301 300 299 298 298 296 294 295 295 294 293 293 293
316 318 319 322 319 322 318 318 316 314 315 317 316 315 314 312 311 311 312 312 312 311 312 312 312 312 311 310 309 308 307 305 304 303 302 301 300 299 299 298 298 297 294 295 295 294 294 293 293
317 317 319 326 322 320 317 322 319 316 314 315 315 314 312 311 311 312 313 312 312 311 311 311 311 310 309 308 307 305 304 303 303 302 301 300 300 299 299 299 298 295 294 295 295 295 293 292 291
318 316 314 317 314 316 318 319 317 315 315 315 315 313 312 310 310 309 310 310 310 309 308 309 309 308 307 306 304 303 303 302 302 301 300 300 299 299 299 298 296 294 294 294 293 293 293 291 291
315 315 317 312 317 320 316 318 319 318 317 315 314 313 310 309 307 306 307 308 308 307 306 306 307 306 305 304 303 302 301 300 299 298 298 298 298 298 298 297 296 295 294 293 292 291 290 289 289
317 316 312 313 311 314 313 317 311 317 316 316 313 311 309 308 306 305 305 306 305 304 303 304 304 303 302 302 302 301 300 298 296 296 295 293 294 295 296 297 295 295 293 293 290 290 289 288 288
315 316 311 308 312 310 310 311 311 312 314 313 311 310 308 306 304 304 305 304 303 302 303 303 302 301 299 300 300 296 296 295 294 294 294 295 294 294 294 295 294 293 294 292 289 289 288 288 287

GFSSGP_925_thetae_036.txt.gz
Theta_e
312 311 311 318 323 325 327 325 330 340 345 340 339 341 344 344 345 350 342 341 341 342 341 339 337 338 334 333 333 333 333 332 330 327 325 321 319 316 312 315 318 323 323 321 315 309 310 312 313
311 313 316 321 323 325 326 326 331 342 343 337 336 334 335 340 343 343 341 342 341 341 341 339 336 337 335 334 334 334 332 329 325 323 319 317 314 311 312 314 316 321 324 323 319 313 316 316 316
313 314 319 319 320 324 326 331 341 337 333 334 334 334 334 337 341 340 341 341 341 341 341 340 336 337 335 335 335 332 329 326 324 318 315 315 312 311 312 313 317 321 323 322 317 317 317 316 315
313 316 318 319 319 320 331 340 338 335 334 332 333 335 337 336 336 339 339 341 340 341 340 338 336 337 337 335 333 329 326 323 319 316 318 314 312 311 312 316 319 322 321 318 318 317 316 316 315
315 317 318 318 320 324 328 337 335 336 334 332 331 333 339 340 338 338 341 339 340 340 341 339 336 337 336 334 329 326 322 319 318 317 315 313 314 316 317 317 318 317 317 317 317 316 316 315 315
316 317 317 319 325 330 331 335 335 335 331 328 331 334 341 341 341 341 339 339 340 340 340 339 336 336 334 330 325 321 320 319 316 316 318 317 318 318 318 318 317 317 317 317 317 316 316 315 315
317 316 318 326 331 334 335 334 333 332 329 325 330 335 342 341 342 341 340 340 340 340 339 338 337 335 330 326 322 320 319 317 318 319 320 320 319 319 319 319 319 318 318 318 318 317 316 316 315
318 318 323 329 332 336 334 331 329 327 328 329 332 338 343 340 340 340 340 340 339 340 337 333 333 332 331 329 321 320 319 319 321 321 322 322 321 320 320 321 319 318 318 318 317 317 316 317 316
317 318 323 331 334 333 330 330 327 325 328 330 331 336 339 339 338 338 338 336 336 338 333 332 331 331 328 327 326 321 320 322 323 324 323 325 326 326 325 321 319 318 317 317 317 317 317 317 315
318 320 320 321 327 327 328 326 327 327 329 330 332 338 339 338 338 337 337 337 338 333 332 332 330 329 328 325 326 326 325 327 329 328 328 328 329 328 326 321 319 318 318 318 318 317 316 315 314
318 320 319 318 324 325 327 327 328 329 331 332 332 341 337 338 337 337 338 335 329 329 327 327 328 327 325 324 326 326 328 329 330 330 330 330 330 330 328 324 322 322 319 319 318 316 314 314 313
318 318 317 314 324 325 325 327 328 330 329 329 330 339 339 338 339 337 330 326 326 326 326 325 325 326 326 325 326 328 328 330 330 331 330 331 329 327 324 322 321 319 318 317 315 314 314 313 312
318 317 314 314 320 325 325 327 328 329 328 330 335 338 337 336 333 326 324 324 325 325 326 326 325 324 325 326 327 328 329 330 331 331 329 327 326 324 322 319 318 316 315 314 313 312 312 311 311
317 314 312 313 317 322 325 327 330 327 330 334 338 336 331 327 324 323 323 323 325 326 327 328 327 326 325 327 328 328 328 328 328 326 326 323 324 322 319 317 315 313 311 311 311 310 310 309 309
314 314 315 317 320 320 323 323 319 326 330 334 333 331 328 323 322 321 321 322 324 326 328 328 329 328 327 325 325 325 324 325 325 324 323 321 319 318 316 314 311 310 310 310 309 308 306 306 305
315 316 317 317 319 315 320 319 318 325 329 331 330 329 328 325 323 321 321 321 323 327 329 328 326 325 323 322 321 321 321 321 322 321 317 316 313 311 311 311 310 309 308 305 304 303 303 303 303
316 316 316 316 316 318 317 317 319 327 327 330 330 329 327 325 324 324 325 324 323 327 330 327 326 324 322 321 319 318 320 321 315 312 311 310 308 309 310 309 307 305 304 303 302 301 301 302 302
317 315 315 315 316 317 317 320 319 328 327 327 329 329 328 327 326 325 327 326 326 329 329 327 327 323 319 317 317 320 319 313 310 309 308 309 309 309 308 306 304 303 302 301 301 301 301 300 301
317 319 318 317 318 318 319 321 321 325 328 328 327 328 328 327 324 326 328 328 329 329 328 327 325 324 325 317 321 314 311 309 310 309 309 309 309 306 304 303 303 302 301 301 300 299 299 299 300
319 319 321 319 317 320 322 323 322 322 328 328 328 328 328 326 327 328 329 329 328 327 328 326 325 325 323 321 317 315 314 312 311 309 309 309 306 304 303 302 302 301 300 301 301 300 300 299 299
321 321 321 321 319 321 323 324 324 322 323 325 326 328 327 328 329 330 330 331 329 329 328 327 327 326 322 317 316 314 312 311 310 309 309 307 305 304 303 302 301 302 301 300 301 300 300 299 298
322 321 321 320 321 321 321 322 325 325 323 324 326 327 328 329 330 331 329 329 329 328 327 326 323 321 318 316 314 313 315 314 312 311 309 306 305 304 302 302 302 302 301 301 300 299 300 299 298
323 320 321 321 322 323 322 322 325 324 326 324 325 328 329 329 328 326 323 323 323 324 323 321 319 317 315 314 315 315 314 313 311 310 307 306 305 304 303 302 302 302 301 301 301 300 299 298 297
322 324 324 324 324 324 323 323 319 322 324 326 325 329 328 326 324 321 318 317 317 317 317 316 315 315 315 315 314 314 313 311 309 307 305 304 303 303 302 302 302 302 302 301 301 300 298 298 297
323 323 321 324 325 323 324 323 319 322 322 325 327 329 326 324 322 319 318 317 316 317 317 317 316 315 315 314 313 312 309 307 306 306 304 304 303 303 302 302 301 300 300 300 299 299 298 297 297
322 322 320 317 321 322 323 325 325 322 320 324 326 326 324 323 321 319 318 318 317 317 317 316 316 314 313 311 310 308 307 306 305 305 304 303 302 301 299 298 297 297 297 297 298 298 297 296 295
322 322 322 325 321 326 322 324 323 322 321 324 326 325 324 322 321 320 318 318 317 317 316 316 314 312 309 308 307 306 305 305 304 303 301 299 298 297 296 296 295 295 295 296 297 297 297 295 294
323 320 323 323 323 318 318 319 318 323 323 323 326 326 323 322 321 320 319 318 317 316 314 313 311 309 306 305 305 304 303 302 300 299 298 297 296 295 295 294 294 295 295 296 296 296 296 295 293
322 323 320 320 321 317 316 315 321 321 323 323 325 324 322 322 321 320 318 317 315 312 311 310 308 306 305 304 303 303 300 299 298 297 296 296 295 295 294 294 294 294 295 295 295 294 294 293 292
320 322 321 319 318 321 322 317 315 320 322 322 323 323 322 322 320 319 316 314 311 310 308 306 305 303 301 302 301 300 298 298 297 296 295 295 295 294 294 294 294 294 294 294 293 292 292 291 291

GFSSGP_925_thetae_039.txt.gz
Theta_e
314 316 314 317 322 325 327 328 329 341 343 341 340 342 346 348 351 354 342 342 342 342 340 338 333 331 331 330 331 332 333 332 330 328 325 320 316 316 317 317 319 323 323 320 318 317 316 315 316
317 314 314 321 324 326 328 328 333 346 341 336 337 337 338 348 345 344 342 342 342 342 340 340 336 334 332 332 333 334 332 330 326 323 320 316 315 317 315 316 319 324 325 321 319 316 315 314 314
313 313 319 321 324 325 327 335 342 337 336 335 334 335 335 344 340 341 341 342 342 341 341 341 338 335 334 334 334 333 330 326 323 321 319 315 315 314 315 320 322 324 324 323 318 316 315 314 314
315 315 319 322 323 323 324 340 336 337 335 333 333 334 334 335 334 339 342 342 341 340 341 336 336 336 336 337 336 331 326 323 320 319 317 315 315 314 319 320 320 320 320 317 315 315 314 314 313
314 319 320 321 323 322 324 337 335 337 336 333 331 335 332 333 327 335 342 341 340 339 339 337 336 336 337 336 331 327 324 320 318 318 316 315 314 317 318 318 317 317 316 316 316 315 315 314 314
316 319 321 322 322 328 328 335 333 336 334 332 331 333 339 337 334 332 338 338 338 338 338 338 337 337 335 332 327 325 321 318 317 317 316 316 318 318 317 317 317 317 317 317 316 315 315 314 313
318 320 320 321 327 331 332 332 335 333 329 329 331 337 341 340 338 338 333 329 338 338 338 338 338 336 332 328 326 322 320 318 318 319 318 318 319 319 318 318 318 318 318 317 317 316 316 315 314
319 320 320 323 331 333 333 332 331 331 331 329 331 333 341 339 340 336 335 334 337 338 338 337 335 334 333 329 324 321 318 319 320 321 320 319 319 319 320 321 318 318 318 317 317 317 316 316 314
319 320 321 329 333 335 332 331 329 328 328 329 333 335 339 341 340 338 338 337 338 336 332 331 330 330 329 327 324 321 320 322 321 322 322 325 325 325 327 324 319 317 317 317 317 317 316 315 317
318 319 321 331 332 332 332 329 327 327 325 325 332 337 340 340 340 339 339 339 338 332 331 331 331 329 326 324 325 325 325 327 328 328 327 329 328 328 327 321 318 318 318 318 317 316 316 317 317
319 320 322 321 326 327 327 326 326 327 328 329 332 341 339 340 339 339 338 338 332 331 330 329 329 328 325 325 325 325 327 329 330 330 330 331 329 328 328 326 323 323 320 321 319 319 318 317 317
318 319 321 320 321 326 326 326 328 329 332 329 331 340 340 340 339 337 337 331 327 328 326 326 326 326 325 325 326 327 329 329 330 330 331 330 329 329 327 324 323 322 320 320 319 318 317 316 315
318 320 318 319 322 324 324 327 327 329 326 325 335 340 340 339 337 334 327 326 327 326 325 324 324 326 328 328 329 329 330 330 331 330 331 330 328 328 325 323 321 320 318 317 316 315 315 314 313
319 319 317 321 323 324 326 327 327 329 327 331 337 337 336 336 332 326 325 326 327 325 327 325 325 326 328 330 330 330 329 330 331 329 327 325 325 326 324 321 319 317 315 314 313 312 311 310 310
317 317 317 317 321 324 325 327 329 329 329 332 336 334 331 329 324 324 325 326 327 326 329 329 330 329 330 329 328 326 324 324 325 324 324 324 324 321 320 316 313 313 312 310 309 308 307 307 306
317 317 319 320 322 323 324 323 324 327 328 329 328 327 324 323 322 323 324 326 328 329 330 330 330 329 326 324 321 320 321 321 321 321 320 318 317 314 313 313 312 311 309 308 306 305 305 305 304
317 317 319 321 321 321 323 320 323 325 327 328 327 326 324 323 322 323 323 323 327 330 332 330 328 326 321 318 318 319 319 320 318 316 314 312 312 312 312 311 309 307 306 305 305 303 302 302 302
318 319 318 317 318 319 317 319 321 325 326 328 328 327 327 325 324 324 326 325 325 330 331 330 328 327 323 317 315 317 317 318 313 311 310 311 312 312 311 309 308 306 305 304 303 303 302 302 301
318 317 316 317 317 317 317 319 321 325 325 327 329 329 328 327 326 327 328 327 327 332 331 329 328 325 322 319 319 318 317 312 312 311 312 312 312 309 308 307 306 305 304 303 303 303 302 302 301
317 320 319 319 317 318 317 319 321 323 324 325 326 329 329 329 329 329 330 330 330 332 330 330 328 325 327 320 322 321 317 315 315 313 313 312 310 308 306 306 305 304 303 303 302 303 302 302 300
319 320 322 321 319 319 321 322 323 323 326 327 327 327 328 330 330 331 331 331 331 330 329 330 328 327 325 324 320 318 317 315 314 313 313 311 308 307 306 305 304 303 303 303 303 302 302 301 300
322 322 321 321 322 321 322 321 323 325 326 327 328 329 329 329 330 331 332 332 331 331 331 328 326 325 323 319 318 317 316 315 315 314 313 311 308 307 305 304 304 304 303 303 302 302 301 300 300
324 322 322 320 320 322 323 320 324 326 326 326 327 329 329 330 331 333 333 332 331 329 328 326 325 322 319 318 317 317 317 317 315 314 313 310 308 306 305 304 304 304 303 302 302 302 301 301 300
323 323 323 322 321 325 322 322 321 325 325 326 326 328 330 331 331 329 329 327 325 326 325 323 321 319 318 317 318 317 316 314 313 312 309 307 305 304 304 304 304 303 302 301 300 300 299 300 300
322 323 326 326 324 324 324 323 321 323 324 324 327 328 330 330 329 326 325 323 323 323 322 320 319 318 317 318 317 315 314 311 309 308 306 305 304 303 303 303 301 299 298 298 298 298 299 300 299
323 322 324 322 321 321 324 320 325 325 323 325 327 328 329 328 327 324 321 320 320 320 320 319 318 318 318 316 314 312 309 307 307 306 305 303 303 301 300 298 298 297 297 296 297 297 298 298 298
323 321 324 324 329 325 319 321 325 324 324 326 328 329 328 327 325 322 320 320 320 320 320 319 318 317 315 313 310 308 306 306 305 304 303 301 300 299 297 297 296 296 296 296 296 296 297 298 297
323 323 323 322 323 321 319 318 322 323 323 325 328 329 328 326 324 322 321 320 320 320 320 319 317 315 312 310 308 306 306 305 303 301 301 300 298 297 296 296 295 296 296 296 296 297 297 296 296
324 323 322 322 323 322 318 319 319 319 322 323 326 327 327 326 324 323 322 321 320 320 318 317 315 311 310 307 306 305 304 302 301 300 299 298 297 296 295 295 295 295 295 296 296 295 295 294 294
322 323 323 324 320 321 325 320 318 319 320 322 324 326 326 325 324 323 322 321 320 318 317 314 311 309 307 304 303 304 302 301 300 299 298 297 296 295 295 295 295 295 294 294 294 294 292 292 292

GFSSGP_925_thetae_042.txt.gz
Theta_e
315 315 318 318 318 322 324 325 330 341 345 340 340 343 349 348 351 353 343 343 341 340 335 334 339 338 334 332 331 332 333 331 329 326 323 319 318 318 319 318 319 320 322 323 320 315 314 314 314
317 319 316 316 319 323 325 333 345 343 339 337 337 338 343 349 345 343 343 343 341 340 339 335 333 332 331 332 333 333 331 328 324 321 318 317 318 318 318 319 321 321 324 323 319 313 312 312 311
314 315 315 317 320 325 328 339 340 338 336 336 337 336 338 344 340 342 342 342 341 339 340 335 332 332 332 334 334 331 327 324 321 319 320 319 315 316 319 320 320 323 325 323 317 313 313 312 312
315 316 315 319 321 323 333 340 337 337 335 334 334 337 336 332 334 341 342 341 340 340 339 335 333 333 334 335 332 328 324 320 319 318 315 313 316 320 319 320 322 321 317 315 314 314 314 313 313
316 316 316 319 321 322 325 336 336 335 334 334 333 333 334 329 339 342 341 340 339 339 336 335 334 335 336 334 329 325 321 320 318 315 313 314 317 317 317 317 316 315 315 314 314 314 313 313 312
317 316 319 321 321 324 326 335 337 336 335 335 332 335 335 329 333 336 339 339 338 336 333 334 336 336 335 329 327 323 320 317 317 314 315 317 317 316 315 316 315 315 315 315 315 315 315 314 313
316 317 319 321 322 325 332 334 335 334 331 335 330 340 341 333 333 335 336 336 330 332 331 334 335 335 331 328 324 321 318 316 316 317 317 318 317 316 316 316 316 316 316 316 316 316 316 314 314
316 318 319 320 321 334 332 330 333 332 330 329 327 332 339 339 336 330 332 332 327 330 332 334 334 333 328 324 321 319 317 317 319 318 318 318 318 318 322 320 317 316 316 316 316 316 316 315 315
318 317 319 321 327 334 329 333 331 330 328 332 332 338 338 339 336 326 327 333 331 333 333 334 331 327 324 322 321 318 318 319 320 320 319 323 324 325 325 320 317 316 317 317 317 316 316 317 318
317 318 319 326 332 331 327 331 331 326 326 329 335 340 341 339 335 336 334 334 327 332 332 333 332 331 328 324 323 320 320 322 323 322 327 329 329 327 326 319 317 319 318 321 319 319 318 318 317
318 318 319 324 327 327 327 327 330 327 328 328 337 342 341 340 339 338 337 334 332 332 331 330 328 326 325 322 324 324 328 329 329 329 329 329 329 326 327 325 324 324 321 322 320 319 318 317 316
318 318 318 323 328 328 328 328 329 327 326 326 328 340 339 339 338 338 336 334 331 330 330 330 327 324 325 325 326 327 329 329 329 330 329 329 328 328 326 325 323 322 320 319 318 317 316 314 313
317 318 319 319 320 325 326 327 328 325 323 326 327 339 339 336 336 337 334 328 329 327 327 326 326 326 325 326 327 330 330 329 328 329 329 329 328 328 325 324 321 319 317 316 315 313 312 310 309
318 318 319 320 322 323 326 328 328 327 326 339 339 339 337 335 334 330 325 328 327 325 325 325 326 328 328 330 329 328 328 328 329 327 326 326 326 326 324 321 318 315 314 312 310 309 307 307 307
319 318 318 320 322 325 324 325 323 327 328 334 336 335 333 332 329 325 327 327 326 326 325 325 326 330 330 330 329 326 324 324 321 322 322 324 324 323 321 318 315 313 312 309 308 306 305 305 304
316 318 320 321 320 322 326 328 323 327 329 333 333 332 331 329 325 325 327 327 326 328 328 329 331 330 328 325 323 321 320 320 320 320 321 321 319 318 315 314 312 308 308 307 306 304 303 302 302
318 318 320 321 321 322 324 324 324 325 327 329 328 327 327 325 324 325 326 328 328 329 331 331 329 327 325 322 320 321 320 319 318 318 318 316 313 313 313 311 309 307 307 305 304 303 303 303 303
319 317 319 321 321 320 324 322 321 324 327 327 326 325 323 322 323 324 324 327 330 332 331 330 327 322 319 320 320 320 320 318 317 317 315 311 312 312 311 309 308 306 305 304 304 304 303 303 303
320 319 320 318 319 318 318 319 319 322 325 328 327 326 325 323 323 324 325 324 330 333 330 329 327 324 321 320 318 318 316 317 313 313 311 312 313 310 309 308 306 306 305 304 303 303 303 303 302
319 321 321 317 317 317 318 317 320 321 324 327 328 327 327 326 324 328 328 327 333 333 332 329 327 326 324 323 320 319 318 315 314 313 313 313 311 309 307 307 306 305 304 303 304 303 303 303 302
319 324 324 322 318 316 318 317 320 321 322 324 327 328 328 328 329 330 330 330 329 334 331 330 328 326 326 322 324 322 317 316 316 314 314 313 310 308 307 306 304 304 304 304 303 303 303 303 302
322 324 322 322 321 319 323 323 321 322 323 324 325 326 328 329 330 330 331 331 333 333 331 330 329 327 327 325 321 319 317 316 315 314 314 311 309 309 307 305 305 304 304 303 303 303 302 302 302
323 323 324 321 320 325 323 325 326 323 323 325 328 328 328 329 330 330 332 333 331 330 330 331 329 326 324 320 318 317 318 316 315 314 314 312 310 309 307 305 305 304 304 303 302 302 301 301 301
324 323 323 322 323 327 325 327 326 325 326 326 326 328 328 330 330 331 333 333 331 331 331 329 326 325 320 319 318 317 318 315 314 313 312 310 308 305 304 304 304 303 300 299 298 298 298 298 299
321 321 328 331 333 330 321 322 323 326 326 326 326 328 329 330 331 332 332 332 330 328 328 327 324 320 319 318 318 318 316 314 310 310 309 307 305 304 303 302 300 299 298 297 297 297 298 298 298
324 322 331 331 333 329 324 323 324 325 324 324 326 326 330 331 331 329 329 327 327 326 324 323 321 319 319 318 318 316 313 310 308 308 307 305 303 302 300 299 298 297 296 296 296 296 297 297 299
324 323 323 323 331 335 320 317 326 324 324 325 326 328 330 330 329 327 326 324 324 323 322 320 319 319 318 317 315 311 309 307 307 305 304 303 301 300 298 297 297 296 296 296 296 297 297 297 297
320 321 325 323 325 324 319 319 327 324 323 324 328 329 330 328 327 325 322 322 321 321 321 320 320 318 317 314 311 309 308 306 304 304 302 301 300 298 297 296 296 296 296 296 296 296 296 295 295
324 323 320 319 326 329 330 321 319 320 322 323 326 329 329 328 327 324 322 321 321 321 322 321 320 317 314 311 310 307 306 304 303 302 300 299 298 297 296 296 295 296 296 295 294 294 294 293 293
321 322 323 335 325 327 332 324 319 319 320 322 323 326 328 328 326 324 322 322 322 321 321 320 319 315 312 310 307 305 304 303 302 301 300 298 297 297 296 295 295 295 295 294 293 293 293 293 292

GFSSGP_925_thetae_045.txt.gz
Theta_e
311 314 315 316 312 312 317 320 340 345 342 336 345 347 349 347 349 351 342 340 332 337 339 341 340 338 336 332 335 333 331 328 323 319 316 314 314 316 317 318 320 324 324 321 313 310 310 311 313
310 316 316 312 310 313 315 330 343 341 339 336 336 344 346 348 343 343 341 339 335 338 340 340 339 336 333 334 335 332 328 324 321 316 314 314 316 322 321 319 321 322 323 321 315 312 312 312 314
314 315 309 308 308 312 316 337 339 338 336 335 335 334 340 342 342 342 341 340 334 335 339 338 335 332 333 335 332 328 324 320 318 314 317 318 320 323 319 318 318 318 319 316 313 313 312 313 313
314 311 308 311 313 315 319 331 333 334 333 333 334 339 332 330 336 341 341 339 338 335 334 333 331 332 334 333 328 324 320 318 317 317 318 319 318 317 317 315 313 314 314 313 313 312 312 313 314
313 310 309 312 313 316 330 330 331 335 334 331 330 334 331 332 341 341 340 340 339 335 333 332 332 333 333 329 325 320 317 316 315 314 313 316 315 315 315 313 313 314 313 314 314 313 313 313 314
312 309 310 312 315 326 334 331 334 333 333 331 330 331 331 335 339 339 339 338 337 335 334 333 333 334 331 327 322 318 316 316 313 313 316 315 314 314 314 314 314 314 315 315 314 314 314 315 315
311 310 311 311 314 330 333 332 334 335 334 331 331 340 332 334 336 337 337 336 333 331 330 330 331 331 328 324 320 317 316 314 314 316 316 314 314 314 314 314 315 315 315 315 315 315 314 316 315
311 309 311 312 315 334 332 332 329 331 331 329 329 338 335 335 332 331 331 331 329 327 327 324 330 330 326 322 319 316 315 316 317 316 316 315 315 315 315 315 315 315 316 316 316 315 316 318 317
313 310 312 312 333 334 330 331 330 328 330 332 337 336 336 330 333 327 328 330 330 328 328 329 329 326 322 320 317 316 319 318 317 316 318 320 323 324 318 315 315 316 316 319 318 317 318 318 317
312 310 313 318 329 330 328 328 331 332 331 335 341 336 330 327 331 331 327 325 329 331 330 329 326 323 321 318 316 318 320 319 321 324 324 327 326 327 322 318 320 322 321 320 319 318 317 316 316
312 313 314 322 327 325 324 325 327 328 327 323 336 337 332 329 329 331 324 325 329 329 329 328 329 324 318 317 319 320 322 324 324 327 329 329 326 324 325 323 324 323 321 319 318 316 316 315 313
312 313 315 325 326 325 325 326 328 325 326 327 330 333 335 335 334 332 328 326 330 331 330 332 331 324 319 319 322 328 328 329 328 330 329 329 328 328 326 324 323 319 316 317 317 315 314 311 309
314 315 316 326 324 325 325 327 329 326 325 325 328 327 333 336 334 333 330 330 331 330 328 325 325 322 323 324 325 327 329 330 330 329 329 328 328 326 324 321 319 318 317 316 314 310 307 306 306
316 315 317 318 320 324 327 328 328 327 323 326 328 325 328 334 333 333 331 329 329 329 326 324 326 325 328 328 329 329 329 328 327 327 327 327 326 324 323 320 318 317 315 311 309 306 305 305 304
317 316 317 319 323 324 325 327 328 326 322 329 332 336 335 330 333 330 330 326 326 326 325 326 326 328 330 329 328 327 327 326 327 323 323 325 325 323 320 317 316 312 309 307 306 305 304 302 302
318 315 317 320 320 323 323 325 322 325 333 335 338 334 331 325 325 327 325 324 325 325 324 325 329 330 329 328 327 327 325 321 321 321 321 322 322 321 319 317 311 308 307 306 305 304 302 302 302
316 316 319 321 320 324 323 323 321 323 332 332 329 329 325 321 325 326 325 325 324 324 326 330 330 329 328 328 326 322 320 319 319 319 320 318 315 315 315 312 308 307 306 306 304 303 303 303 302
318 318 317 319 319 322 320 320 319 322 329 330 326 325 323 320 323 326 325 327 326 327 328 331 329 328 327 326 321 320 319 318 317 317 316 314 313 312 310 308 307 306 305 304 303 303 303 302 303
318 318 317 317 318 318 321 319 320 320 323 323 322 322 320 318 322 325 327 328 330 330 330 330 328 326 323 321 320 319 318 316 315 315 313 312 312 311 309 307 306 305 304 303 304 303 303 302 302
320 320 320 319 316 315 314 316 317 319 322 323 322 319 317 318 321 322 325 330 331 330 329 329 327 322 321 321 319 318 316 316 316 312 312 313 311 309 308 307 306 305 304 304 303 303 303 303 302
323 323 321 322 322 317 315 315 316 317 320 323 323 322 321 320 322 324 326 331 330 329 328 328 325 323 321 322 321 318 317 316 312 313 313 313 310 309 307 306 305 304 304 304 303 303 303 302 302
324 322 323 322 322 320 320 320 321 317 319 323 324 323 323 322 325 325 326 330 331 330 328 327 326 326 324 325 321 320 315 314 314 314 313 312 310 308 307 306 305 305 304 304 303 302 301 300 299
321 321 323 323 323 323 322 321 320 321 319 320 320 321 323 323 326 326 327 331 332 330 329 328 328 327 326 325 323 317 316 316 315 314 314 312 310 309 308 306 305 305 303 301 300 298 298 298 298
322 321 323 324 325 323 323 323 323 321 321 324 323 322 322 323 326 327 329 331 332 331 330 329 328 326 327 324 321 318 317 316 315 314 313 312 310 309 306 305 303 301 299 298 297 297 296 296 297
322 322 326 326 327 327 324 323 323 323 321 322 321 321 322 323 324 328 330 330 329 330 330 329 329 327 325 320 318 317 316 315 314 313 311 307 304 303 301 301 300 299 298 297 296 296 296 296 297
321 324 323 330 330 326 324 326 323 322 321 321 322 321 322 326 327 330 330 329 330 330 330 329 326 322 320 318 318 317 314 312 310 309 306 304 304 302 300 299 298 297 297 296 296 296 297 297 296
324 324 324 326 325 322 320 318 322 322 323 322 322 323 326 326 325 326 326 328 328 329 329 327 320 320 319 318 318 315 313 310 308 307 306 304 304 301 299 298 297 296 295 296 296 296 296 295 294
322 320 322 321 320 321 320 320 325 323 324 324 324 326 326 325 323 323 322 324 325 325 323 322 320 319 318 318 315 311 309 307 305 304 304 304 302 300 299 297 296 295 296 296 295 294 294 293 293
321 321 321 319 322 322 322 319 318 320 320 322 323 325 325 323 322 320 319 322 323 323 322 321 320 318 318 314 311 309 307 305 304 304 302 301 299 298 297 296 295 295 295 295 295 293 293 294 292
319 321 323 319 321 320 317 318 316 317 318 319 321 326 324 324 321 319 317 319 320 321 321 320 319 317 313 311 309 307 305 304 303 302 301 300 298 297 297 295 295 295 295 294 294 292 292 293 292

GFSSGP_925_thetae_048.txt.gz
Theta_e
311 312 314 315 311 309 314 316 338 343 340 340 344 346 348 346 348 346 339 336 339 343 342 339 338 338 334 332 333 332 329 321 316 313 313 313 315 318 321 323 324 324 323 321 314 313 313 316 318
312 314 315 308 307 310 310 318 335 339 336 340 340 344 344 349 344 341 340 338 342 342 342 340 339 336 333 334 335 332 327 320 314 317 320 319 323 323 324 320 319 320 322 316 313 313 314 316 316
314 315 309 309 304 309 310 331 338 337 335 334 335 336 340 345 343 341 339 340 342 342 341 340 337 333 334 335 334 327 319 315 315 316 325 326 323 323 317 315 316 316 314 313 313 313 314 315 316
313 309 306 308 310 311 314 315 334 333 332 333 335 336 329 336 336 341 337 338 340 341 340 338 333 333 335 334 328 321 316 315 317 317 324 323 318 315 313 313 313 313 313 313 313 313 314 314 315
312 306 309 308 310 321 333 334 334 334 331 331 330 333 329 338 340 340 339 338 339 340 338 333 332 335 333 327 322 318 316 315 314 315 319 316 314 312 313 313 313 314 314 313 313 314 315 315 315
311 306 309 311 313 330 332 332 334 334 333 330 330 331 331 337 338 336 337 338 336 336 334 332 332 332 327 323 320 316 315 313 314 317 314 313 312 312 313 313 314 314 314 314 314 315 316 316 315
312 309 310 311 313 315 334 331 333 335 333 331 329 335 333 334 334 335 334 332 332 333 331 329 329 327 323 320 317 315 313 312 316 314 313 312 312 312 313 314 314 315 314 315 314 316 317 316 316
308 308 310 310 312 324 331 329 329 331 332 329 330 333 335 333 332 332 333 333 329 327 324 322 318 322 323 320 316 314 313 316 315 313 313 313 312 313 313 314 315 315 316 316 315 317 318 317 316
310 311 310 311 324 331 329 330 330 328 330 332 336 334 332 328 330 330 329 327 326 324 321 320 319 324 322 319 316 314 316 316 315 314 314 316 317 315 313 314 315 317 319 318 318 318 317 316 315
310 309 311 311 325 330 328 327 329 330 330 333 332 331 330 328 329 328 329 328 328 327 321 321 327 326 322 319 317 317 316 316 317 322 324 325 325 322 316 316 318 319 319 319 318 317 316 315 314
311 311 311 313 326 324 324 324 326 326 328 327 333 329 330 328 327 327 328 328 325 326 327 329 329 324 319 316 318 318 318 319 324 325 326 326 326 323 319 321 321 321 320 318 316 315 315 312 309
311 311 312 317 326 322 323 324 325 324 323 329 332 328 329 330 326 327 328 328 327 328 330 330 328 322 318 318 319 319 320 323 325 327 327 328 326 326 325 321 323 319 316 315 314 313 310 307 306
313 313 314 321 323 323 324 326 326 323 328 331 332 329 330 331 326 327 326 326 329 329 330 331 324 319 317 319 320 323 324 325 328 329 329 329 327 326 323 321 318 316 315 315 313 310 307 306 304
318 317 317 321 324 324 324 326 323 323 325 330 331 333 331 330 328 326 325 326 330 329 329 328 324 320 319 321 325 327 328 329 329 329 328 328 326 323 320 317 316 315 314 310 308 306 304 302 301
318 315 316 321 322 325 323 326 326 324 324 328 327 326 327 332 330 328 326 328 330 327 330 331 325 322 323 324 326 327 329 329 328 327 327 327 325 322 319 317 315 313 310 308 306 305 302 301 301
318 313 315 317 321 322 320 322 322 322 326 327 329 330 331 333 331 329 329 330 329 326 325 326 324 324 324 326 328 329 328 327 325 324 324 324 324 321 318 317 312 309 307 306 304 303 303 302 302
315 314 318 319 319 323 320 320 321 324 329 333 334 333 331 333 331 330 328 327 327 326 326 326 327 329 329 328 328 327 325 323 321 321 321 322 321 320 318 311 308 307 306 305 303 303 303 302 302
317 317 316 318 319 322 322 319 317 328 333 335 331 326 326 331 328 329 324 326 326 324 326 327 329 328 327 326 324 321 320 319 318 318 318 317 316 314 310 308 307 306 304 303 303 303 302 302 302
319 318 318 317 316 322 323 318 317 329 332 330 327 324 322 326 326 325 324 324 323 324 326 326 329 328 327 324 322 319 318 318 317 317 316 314 312 311 309 307 306 305 304 303 303 303 302 302 302
320 320 320 317 317 318 317 317 316 326 330 330 328 325 322 321 323 324 324 323 326 326 327 327 329 327 326 325 324 321 320 318 317 314 312 311 311 309 308 307 305 305 304 303 303 303 302 302 302
320 321 320 321 319 315 313 313 316 318 323 325 326 325 321 319 323 322 325 327 327 326 327 328 328 328 326 325 321 320 318 316 313 312 312 312 310 309 308 307 307 305 304 304 303 302 301 300 299
321 320 321 321 318 317 315 313 318 316 319 323 323 320 319 318 322 323 327 328 327 326 326 327 327 327 324 321 320 319 316 313 313 312 312 312 309 309 307 306 304 304 304 303 302 300 298 297 297
320 319 321 322 321 321 321 318 316 315 317 323 322 320 318 319 321 325 328 329 328 327 326 327 327 325 323 321 322 318 317 317 314 313 313 312 310 309 307 305 305 304 303 301 299 297 296 296 296
320 319 322 322 322 323 321 319 318 318 317 318 322 321 319 319 321 322 329 329 328 327 327 327 327 325 325 322 323 321 318 315 314 313 313 311 309 308 307 306 304 303 301 299 297 296 295 295 295
320 320 322 321 323 323 323 321 319 320 318 319 319 318 319 320 323 323 328 329 328 327 327 328 326 326 326 324 322 322 316 316 315 314 313 310 308 305 303 302 301 299 297 296 295 295 295 296 297
322 320 320 323 327 323 323 324 322 319 320 319 319 316 320 321 324 325 328 330 329 328 328 327 327 327 325 326 324 322 317 316 315 314 313 309 304 303 301 302 299 297 296 295 295 295 296 296 295
322 322 321 323 323 322 322 318 320 320 322 321 319 319 320 322 325 327 327 328 329 328 328 328 327 326 326 326 322 319 315 314 313 311 306 305 303 302 299 297 297 296 296 295 295 296 295 294 293
319 319 323 322 322 322 318 319 323 323 324 323 323 322 324 324 325 326 326 326 327 328 328 328 329 328 324 320 317 314 311 310 308 306 304 303 301 299 300 300 297 296 295 295 295 295 293 292 293
319 319 319 318 318 321 320 317 313 320 321 322 321 323 324 323 323 324 323 325 328 328 327 326 323 322 320 317 314 311 309 306 304 303 302 301 301 302 300 297 296 295 295 295 295 294 292 291 293
320 320 321 317 318 318 315 316 314 316 317 320 320 323 323 323 321 322 322 322 323 324 320 319 319 319 318 316 311 307 305 304 304 303 301 301 301 300 298 297 296 295 295 295 294 294 292 292 292

GFSSGP_925_thetae_051.txt.gz
Theta_e
312 311 314 313 311 308 312 314 320 341 341 342 343 346 347 344 344 343 338 337 341 343 341 337 338 335 330 329 331 329 321 320 321 321 314 314 319 323 321 322 323 324 324 324 323 323 328 326 321
312 313 314 304 307 309 310 311 321 328 340 342 338 342 343 347 343 339 338 339 342 342 342 339 338 335 332 332 331 325 321 323 323 320 317 317 321 325 321 319 320 322 322 322 322 317 320 327 327
313 315 309 307 304 307 309 315 335 334 335 334 336 334 338 341 341 339 339 340 341 342 341 339 337 333 333 332 329 323 319 315 318 319 323 327 327 325 316 315 315 316 317 318 320 317 315 315 317
312 308 304 308 309 310 311 330 322 333 330 330 332 333 332 338 339 341 339 342 341 341 340 338 335 335 334 332 325 319 319 318 322 324 326 327 325 315 314 313 313 313 313 314 314 315 315 315 315
311 304 309 307 310 315 333 332 332 332 332 331 329 331 334 339 339 339 340 340 340 341 340 336 334 335 334 326 319 317 316 319 322 325 320 316 314 313 313 313 313 313 313 315 315 316 315 315 315
308 305 307 310 311 320 332 331 333 332 330 330 331 330 335 335 337 338 339 337 337 337 338 334 332 333 327 321 317 316 315 316 322 320 315 312 312 313 313 313 313 314 314 315 316 316 316 316 315
309 308 310 311 312 312 332 330 333 333 330 330 329 333 335 335 334 336 335 332 331 331 331 332 330 326 321 319 314 313 311 316 318 315 312 312 313 314 314 314 314 315 314 315 317 317 316 316 316
307 307 310 310 311 314 330 329 328 330 330 327 330 333 336 334 332 331 330 329 329 330 328 326 322 321 319 321 313 312 314 317 314 312 312 312 313 314 314 315 315 316 315 316 317 317 317 316 315
306 309 310 312 312 320 329 330 328 327 330 333 334 332 332 331 330 329 326 325 324 324 324 322 320 317 317 314 312 312 315 316 313 313 313 313 314 315 315 316 318 317 317 317 317 317 316 315 314
308 308 311 310 313 328 329 328 327 327 332 334 332 331 330 331 329 328 325 324 322 319 317 316 316 316 319 318 314 314 318 315 313 314 315 317 315 315 315 317 319 318 318 318 317 316 315 314 312
310 311 311 310 318 323 326 324 326 326 331 332 336 331 329 330 329 328 327 325 323 321 320 319 320 315 322 321 319 317 317 315 316 317 322 323 320 316 318 319 320 320 318 316 315 315 312 309 307
310 309 310 311 324 322 323 322 325 324 325 330 330 328 327 328 328 328 328 327 325 324 324 325 323 325 325 318 317 318 317 318 320 322 325 326 324 319 319 320 320 318 316 315 314 311 307 306 305
310 314 315 317 321 321 323 326 324 327 331 329 329 328 328 327 328 328 327 326 326 327 326 328 328 326 322 318 319 318 318 320 323 324 327 327 326 324 320 322 320 316 314 314 310 307 305 302 301
316 316 320 322 323 323 323 324 322 326 331 329 330 330 327 327 327 328 327 327 327 327 329 328 329 323 319 316 320 319 321 323 326 328 328 328 327 326 322 320 316 314 312 309 307 305 303 300 300
317 314 321 323 323 324 321 324 324 327 331 331 329 330 329 327 326 327 325 327 328 328 329 329 330 322 319 318 320 321 324 326 329 328 328 327 325 323 320 316 314 312 308 306 305 303 301 301 301
317 312 318 320 323 323 318 321 324 326 330 329 328 331 330 328 327 326 325 325 328 328 328 330 326 322 319 320 322 325 327 329 328 327 327 326 324 319 317 315 312 308 306 306 304 302 302 302 302
314 312 317 318 319 322 320 319 320 324 328 328 326 328 331 329 327 326 326 325 329 328 327 328 327 322 322 322 325 326 328 328 327 325 325 323 320 317 316 313 309 306 306 304 303 302 302 302 302
318 317 315 317 319 321 321 319 322 323 327 328 330 331 332 331 330 328 327 326 329 326 326 328 329 323 324 325 327 328 327 324 323 322 321 321 318 316 314 309 307 306 305 304 303 302 302 302 302
318 317 317 317 316 320 320 320 316 326 332 333 331 331 331 332 331 329 328 328 327 325 325 327 325 323 325 327 326 325 323 321 319 319 320 319 317 313 309 308 306 305 305 304 303 302 302 302 301
319 319 318 317 317 318 318 320 316 326 332 332 332 328 325 331 329 329 327 325 326 324 325 326 326 327 327 327 325 322 320 318 317 317 315 314 313 310 308 307 307 306 305 303 303 303 302 302 300
319 319 319 319 318 315 314 315 316 323 329 330 330 328 323 327 328 327 323 323 323 324 325 326 327 327 327 326 324 320 318 317 315 314 313 313 311 310 309 307 306 305 304 303 303 302 300 299 298
320 319 319 320 317 315 314 314 315 316 326 329 329 325 322 324 325 324 323 322 323 324 324 325 326 327 326 325 323 321 319 317 317 316 313 311 311 309 307 306 305 304 304 303 301 299 297 296 296
320 319 319 320 320 319 319 318 315 314 322 324 328 325 322 320 323 323 323 322 324 324 324 324 324 325 325 325 323 320 319 319 318 315 312 312 310 308 307 306 305 304 304 300 298 297 296 295 295
320 319 319 320 319 320 320 318 317 316 315 317 322 324 321 316 321 321 323 324 325 325 324 324 324 325 326 324 322 320 320 318 315 313 311 312 310 307 306 304 304 302 300 299 297 296 295 295 295
318 317 319 320 321 322 320 321 318 318 316 315 317 321 317 315 318 320 323 326 326 325 324 324 323 323 324 323 321 320 321 317 316 313 312 311 308 306 304 302 301 300 297 296 295 295 295 295 296
321 318 318 322 323 320 320 325 320 318 316 318 315 316 316 317 319 322 326 327 327 326 325 325 324 324 323 323 322 322 321 319 316 313 312 312 308 304 301 302 302 296 297 300 297 294 295 295 294
322 322 318 321 320 320 319 317 316 318 321 319 317 316 318 317 319 323 326 327 327 326 326 326 325 325 325 324 324 323 322 320 315 314 313 310 305 302 303 299 298 301 302 296 295 295 294 293 292
319 318 319 318 321 323 317 316 318 321 321 321 318 317 316 320 320 322 326 328 327 327 327 326 327 327 326 326 325 324 322 318 315 312 310 305 302 303 302 301 301 298 296 295 295 294 294 293 291
318 318 317 317 315 319 319 318 310 319 319 320 319 318 321 321 323 324 324 327 327 327 327 327 327 327 326 325 323 322 317 314 311 309 305 303 302 302 302 300 299 296 295 295 295 294 294 293 292
318 318 319 317 318 316 314 315 312 312 316 318 319 319 322 322 323 324 324 324 326 326 327 327 328 326 325 323 321 315 312 309 305 304 302 302 305 302 299 299 296 295 295 294 294 294 294 293 292

GFSSGP_925_thetae_054.txt.gz
Theta_e
311 311 314 311 309 307 311 312 312 325 338 340 341 343 344 344 344 342 337 338 339 344 339 338 336 335 331 330 326 320 315 313 314 315 321 320 319 320 323 325 325 325 326 330 331 323 320 325 328
311 313 313 303 306 310 309 309 321 326 336 335 336 339 343 349 341 338 337 341 344 343 339 337 335 335 331 329 323 316 312 310 310 323 327 324 320 322 323 324 323 322 323 327 327 325 325 326 322
313 313 308 305 303 307 308 309 325 332 331 333 335 331 335 343 339 339 338 341 342 341 340 337 335 335 331 327 320 315 313 311 313 321 328 327 324 322 321 322 322 322 322 322 320 318 319 316 313
312 306 302 306 308 308 308 319 332 331 329 328 330 332 334 337 340 340 338 341 341 341 339 337 335 334 330 325 321 315 312 316 318 327 327 327 325 320 317 319 321 321 320 319 315 315 316 316 317
309 303 306 306 308 309 330 332 330 331 330 330 329 334 336 337 340 340 340 339 339 339 339 337 334 333 330 323 315 312 313 317 325 327 326 325 320 315 314 313 315 319 316 315 315 315 315 315 314
308 303 306 309 310 312 332 330 332 331 329 329 331 331 338 335 337 335 338 337 338 338 335 336 335 333 326 318 314 316 315 322 327 325 324 319 314 314 313 313 314 315 315 315 316 315 315 315 314
309 306 308 309 311 311 324 329 332 332 329 329 331 333 336 335 334 335 335 333 333 333 333 332 329 324 319 316 316 318 322 324 320 319 316 314 314 313 313 314 314 315 316 316 316 316 315 315 314
305 305 310 309 310 311 330 329 327 329 330 326 331 336 337 333 332 332 330 329 329 327 327 319 317 319 319 319 316 315 325 318 315 314 314 314 315 315 315 315 314 316 317 317 316 316 315 313 312
305 307 309 311 313 314 329 329 327 326 331 333 333 332 332 330 330 328 327 327 327 325 325 325 320 317 314 314 317 319 317 314 314 314 315 315 315 315 315 316 315 316 317 317 317 316 314 312 309
307 307 310 310 311 317 328 327 327 328 334 335 332 333 331 329 328 326 325 323 323 323 321 318 316 318 316 318 316 311 316 315 314 315 315 316 315 316 317 317 317 318 317 317 315 314 314 312 308
306 309 309 310 309 322 327 327 324 327 333 333 334 335 330 329 327 326 323 321 321 321 320 318 317 317 315 317 310 314 317 315 315 316 316 315 315 316 317 318 318 318 317 315 313 313 311 309 306
311 308 310 309 315 322 324 322 325 323 326 330 331 330 330 330 328 326 323 320 318 318 317 316 315 315 312 316 313 316 315 315 316 317 320 318 316 317 318 319 319 318 315 313 313 310 307 305 303
308 311 314 314 320 322 321 324 323 330 330 330 329 329 329 330 327 327 324 322 320 320 318 317 314 313 318 320 316 317 316 316 318 321 325 324 319 318 319 320 317 315 313 312 308 306 303 301 300
314 314 319 321 321 322 324 323 324 331 330 328 329 328 327 328 328 328 326 324 323 322 321 320 318 322 322 320 317 317 317 318 321 322 325 326 325 323 320 319 315 313 312 308 306 303 301 300 300
316 314 321 323 322 324 320 323 323 330 329 330 330 328 326 326 327 327 326 325 324 324 325 326 327 327 324 320 318 319 318 320 323 326 327 328 325 325 321 319 314 312 308 307 305 302 301 301 300
315 310 320 320 323 321 318 320 324 329 330 331 330 328 328 326 326 327 326 326 326 326 327 328 328 328 324 320 319 319 320 322 326 328 328 328 326 325 319 315 313 309 307 306 304 302 301 301 300
312 312 315 320 320 322 320 319 323 329 330 330 328 329 329 328 326 326 326 325 326 327 328 328 328 328 323 320 319 320 321 325 327 327 326 325 323 320 318 315 312 308 306 305 303 302 302 301 301
318 319 316 316 318 321 323 321 322 329 330 330 328 329 329 328 327 326 325 325 324 327 327 328 328 327 322 319 320 322 325 328 327 326 325 324 320 317 316 313 309 306 305 304 303 302 301 301 301
317 318 316 314 315 319 319 319 322 325 327 326 326 327 329 329 327 327 326 326 325 328 328 326 328 325 321 322 323 325 326 326 325 323 322 321 319 316 314 311 307 306 305 304 302 302 302 301 300
318 319 318 316 316 316 316 317 315 323 326 327 327 328 329 330 329 328 327 327 326 327 327 326 327 327 324 322 323 325 326 324 321 320 319 318 317 315 311 309 307 305 305 303 303 303 302 301 298
318 319 319 318 316 314 314 314 316 319 329 330 329 329 328 329 330 329 327 326 326 326 327 326 327 328 325 323 324 324 323 320 317 317 317 317 314 311 309 307 306 305 304 303 303 302 301 299 297
319 318 318 319 318 316 313 314 313 316 327 331 330 328 328 325 329 328 327 325 325 325 326 326 325 326 323 323 324 324 323 318 317 317 316 315 312 310 308 306 305 304 304 303 302 299 297 296 295
318 318 320 319 318 318 317 316 314 314 319 326 329 329 326 323 326 328 327 325 324 323 325 326 325 325 324 324 325 324 321 319 318 317 315 313 311 309 308 306 305 304 303 301 298 296 295 294 294
318 319 317 317 317 319 318 316 316 314 315 320 324 328 325 321 321 324 326 324 323 323 324 324 324 324 324 324 324 323 321 318 318 316 313 311 311 307 306 305 304 303 301 299 297 295 294 294 295
317 316 319 321 321 321 319 320 317 316 316 314 316 322 325 322 318 320 320 321 321 323 323 324 323 323 324 324 323 322 320 319 319 315 313 311 311 308 306 305 303 300 299 299 298 297 295 294 295
319 317 318 321 321 318 318 321 319 317 315 315 313 312 319 319 317 319 320 321 322 323 323 324 323 323 322 322 323 322 320 320 317 315 313 311 311 309 304 301 300 299 299 301 300 295 294 294 294
321 319 316 319 318 319 317 316 312 316 320 319 317 315 315 313 314 317 318 322 323 324 323 323 323 323 322 322 324 322 321 320 318 316 314 312 310 305 301 301 301 301 302 299 297 294 294 294 293
318 317 319 316 322 323 316 316 315 315 317 317 318 318 315 315 315 316 319 323 324 325 324 324 324 324 323 323 323 323 322 320 320 317 312 310 307 303 300 303 304 303 299 297 296 294 294 294 293
318 318 315 315 314 318 318 317 310 313 317 318 317 317 316 315 317 317 320 325 325 325 325 325 324 324 324 324 324 324 323 322 320 315 311 309 305 301 304 306 303 299 296 297 295 294 294 293 292
316 317 316 317 318 315 313 314 312 309 311 316 316 317 318 319 318 319 320 324 325 326 326 325 324 324 324 325 324 323 323 320 314 311 310 306 302 304 307 302 299 298 297 295 294 294 294 293 292

GFSSGP_925_thetae_057.txt.gz
Theta_e
311 310 313 311 315 314 315 315 313 319 328 341 342 344 344 344 345 346 337 338 342 341 340 337 335 331 329 328 325 321 316 311 311 309 315 322 324 323 323 324 326 331 332 332 329 333 331 316 313
310 313 312 310 314 314 314 312 317 328 332 336 337 339 340 342 340 338 337 338 340 340 339 339 337 335 331 328 321 316 320 319 311 314 322 326 326 324 323 324 329 331 331 331 332 333 321 313 314
312 312 315 314 310 313 313 311 321 332 333 335 336 332 338 341 339 339 338 339 340 340 339 338 336 335 333 327 322 322 317 313 318 320 323 326 325 323 322 322 325 327 328 330 329 322 314 314 314
312 310 308 313 312 312 311 313 333 331 331 330 332 337 337 338 340 339 338 338 341 339 338 335 335 333 328 321 322 315 311 317 322 325 324 324 325 323 320 320 321 319 318 319 318 315 315 315 315
308 309 313 311 311 311 313 331 332 333 332 332 332 337 340 337 338 339 339 338 338 338 337 335 334 331 327 320 310 310 319 320 323 325 322 324 323 321 321 318 317 315 315 315 315 316 315 314 314
314 309 313 313 312 312 325 332 332 331 331 332 334 337 339 336 336 334 337 337 337 336 336 335 334 333 330 329 326 316 319 321 327 320 321 320 320 320 320 317 316 315 315 315 315 315 314 314 313
314 313 313 311 313 313 321 330 333 331 330 329 331 337 336 335 332 334 334 335 335 330 331 325 320 319 317 319 327 322 323 327 321 323 318 317 316 316 316 315 315 315 315 316 315 315 314 313 312
311 312 312 312 313 314 326 331 328 332 331 328 332 336 336 333 330 330 327 328 330 329 328 325 324 319 314 318 323 325 325 323 322 317 315 314 314 314 314 316 316 315 315 315 315 314 313 312 311
307 314 314 313 313 316 329 331 328 327 332 334 333 333 333 330 328 328 326 324 324 322 323 322 320 317 313 312 318 324 324 318 318 315 315 314 316 315 316 317 316 316 316 315 314 313 312 310 307
313 314 314 313 313 315 328 329 328 330 335 333 332 333 330 328 329 327 326 325 324 323 321 320 318 316 316 314 314 314 319 318 314 315 315 315 315 316 315 316 317 316 315 312 312 311 309 307 305
309 315 312 312 312 314 323 329 325 329 335 334 334 331 330 329 328 327 325 324 323 322 318 315 314 314 314 313 315 321 320 316 315 315 315 316 316 316 316 317 317 315 314 314 313 310 307 305 304
313 312 311 312 310 322 323 326 327 328 328 329 332 331 330 330 327 325 324 323 323 321 319 319 320 322 317 316 319 320 315 314 314 315 315 315 316 317 317 317 316 315 314 314 312 308 305 302 300
311 312 314 314 317 322 323 325 326 331 331 331 332 331 331 328 326 323 321 320 319 320 320 321 323 323 321 319 319 316 314 314 314 316 316 315 315 317 318 318 316 315 313 311 309 306 303 300 300
314 314 319 322 322 323 325 326 326 330 331 330 330 330 330 328 327 323 322 321 320 319 319 320 322 320 320 316 314 317 314 314 316 318 321 319 317 318 319 318 316 313 310 309 307 303 301 300 300
316 317 319 324 323 325 323 326 324 331 331 330 329 329 328 328 327 324 323 322 321 320 320 321 318 313 317 318 315 317 317 316 317 321 324 325 322 318 319 317 314 311 308 307 304 302 301 300 300
317 313 319 321 324 322 321 326 327 330 331 332 330 330 330 329 329 327 326 323 322 321 322 324 321 321 325 321 317 317 317 318 320 322 323 324 325 323 320 317 313 309 307 306 304 302 301 301 301
317 317 317 321 323 323 322 322 327 329 331 331 331 329 330 328 328 327 326 325 324 323 324 326 326 326 326 323 319 318 318 319 321 325 327 327 326 324 321 317 312 308 307 305 304 302 301 302 302
320 320 318 318 319 323 324 324 328 331 332 332 329 329 329 330 328 327 326 326 326 325 325 327 328 327 327 323 320 319 320 320 323 326 327 325 325 323 318 314 311 308 307 304 303 302 301 302 302
318 319 318 316 316 323 324 323 323 333 333 332 330 329 329 330 328 326 326 325 326 326 326 327 328 328 328 323 321 321 322 323 326 327 325 324 321 320 316 313 310 307 306 305 303 302 302 302 301
319 320 320 318 317 318 317 318 317 329 332 330 330 329 328 329 329 327 326 325 325 326 326 326 326 327 327 323 320 320 321 323 326 326 324 322 319 316 315 313 309 307 305 304 302 302 303 302 299
319 320 320 320 318 315 316 316 318 322 327 329 328 328 328 330 331 330 327 326 326 326 325 326 326 326 325 322 319 320 322 323 323 321 320 318 316 315 313 312 309 306 304 304 303 303 302 302 299
319 318 319 320 321 321 316 322 316 316 326 328 329 329 328 329 329 331 330 328 327 326 325 325 326 326 326 325 321 321 322 322 320 318 319 317 315 314 312 309 306 304 304 303 303 302 300 297 298
320 318 320 320 320 321 319 321 320 314 318 325 330 331 331 330 329 330 331 330 328 326 325 325 325 326 326 326 323 321 321 322 320 319 318 315 313 311 309 306 305 304 304 303 303 300 297 295 296
318 320 318 319 320 324 320 320 322 319 318 318 321 328 331 330 329 329 330 330 328 326 325 325 325 325 324 324 322 321 321 320 319 317 315 314 312 310 308 306 305 304 303 302 299 297 297 295 295
318 320 323 326 326 324 320 321 322 318 317 318 319 321 328 329 328 327 329 329 328 325 325 325 325 325 324 322 321 322 322 320 319 318 318 314 310 309 308 307 304 303 302 298 299 298 297 295 294
320 321 326 322 324 321 318 324 321 319 317 317 317 316 316 327 328 326 327 327 327 325 325 325 325 325 324 322 321 324 324 321 318 319 318 315 312 310 307 305 304 302 299 300 302 299 295 294 294
321 322 318 322 320 325 321 319 316 316 318 319 320 318 318 319 325 324 324 325 325 324 325 325 325 324 324 322 322 323 323 320 319 321 319 314 310 308 307 305 302 298 300 304 301 296 294 294 294
320 318 323 321 324 324 319 318 318 318 320 319 319 321 319 318 317 319 321 322 323 324 324 324 324 324 324 323 321 321 322 320 320 320 316 311 307 308 306 302 299 300 305 301 296 296 295 294 294
321 320 318 318 319 322 322 320 317 317 318 320 319 319 320 318 320 318 319 320 323 324 324 324 324 324 324 323 322 321 320 319 320 320 316 312 310 310 301 299 301 304 301 296 298 295 294 294 294
318 321 320 325 321 318 319 320 315 315 313 313 317 317 319 322 320 321 320 322 324 325 325 325 324 325 324 323 322 321 320 320 319 317 315 311 308 304 301 302 304 300 298 297 296 297 294 294 294

GFSSGP_925_thetae_060.txt.gz
Theta_e
317 314 314 316 317 317 318 318 318 319 328 335 337 332 336 341 344 344 340 342 343 343 340 338 339 341 341 340 338 333 329 324 319 318 318 315 318 322 324 328 331 333 335 335 333 327 322 316 316
315 315 317 318 316 317 317 317 317 323 330 338 340 340 339 339 340 340 341 340 343 342 340 338 337 338 337 335 331 328 323 318 315 317 318 317 321 323 328 331 332 333 333 335 329 325 321 315 315
314 313 318 318 317 317 317 317 319 330 334 338 339 338 336 334 337 340 341 341 343 342 339 338 335 333 331 329 326 321 318 316 324 323 320 321 323 324 328 331 330 330 333 333 327 322 315 314 314
314 314 315 316 317 317 315 316 324 327 333 335 337 340 338 338 340 341 341 341 341 341 339 337 335 334 329 324 321 322 324 329 327 322 322 323 322 326 328 329 330 333 332 329 321 315 315 315 314
314 315 315 316 316 314 315 319 326 330 334 335 335 340 341 339 337 339 341 340 338 338 339 337 335 334 330 330 328 327 329 327 324 323 323 322 321 323 324 324 325 327 324 318 315 316 315 314 313
317 316 315 316 316 315 316 325 330 333 334 334 337 339 342 338 336 335 336 334 334 335 333 336 334 332 328 324 326 330 330 327 327 325 325 321 320 320 319 319 319 318 316 316 315 315 314 313 312
317 317 317 316 315 316 319 330 332 334 333 334 333 336 339 335 332 332 332 332 330 330 329 328 326 326 322 319 320 323 329 329 327 325 325 319 319 318 317 316 315 315 315 315 315 315 314 312 310
316 316 317 316 315 320 322 330 331 333 334 330 332 337 339 333 329 328 329 327 325 324 326 325 326 322 318 314 314 321 327 328 325 324 320 319 318 316 316 315 315 315 315 315 315 314 312 310 308
315 316 316 316 317 321 325 327 330 330 333 333 334 335 336 330 329 329 326 326 324 322 320 319 320 319 318 317 317 318 325 323 321 317 316 317 320 320 319 320 316 315 315 315 314 312 309 307 306
317 317 316 316 317 317 319 326 327 332 334 334 335 333 332 329 329 328 327 326 323 323 320 318 319 317 315 316 315 319 318 324 318 316 320 321 320 321 322 320 316 315 314 313 311 308 308 309 309
317 317 317 318 318 318 319 322 325 328 330 332 336 334 331 331 330 328 327 326 325 322 319 318 317 317 320 323 323 321 324 319 316 318 321 322 322 321 321 318 316 314 313 311 309 311 311 309 307
317 317 318 318 317 318 320 322 328 329 331 331 334 332 331 331 329 328 326 326 321 319 319 318 317 317 317 318 317 315 314 312 319 322 322 323 322 322 321 319 318 315 314 313 312 311 308 306 305
318 318 319 320 323 320 323 326 329 331 333 334 333 331 331 330 330 329 327 325 323 318 318 317 319 317 316 318 321 321 321 320 320 322 322 322 322 322 321 319 317 315 314 313 311 309 307 306 305
319 319 320 324 323 324 327 329 329 332 334 335 333 332 331 329 329 328 324 322 322 318 320 320 320 320 321 322 324 322 321 321 322 322 322 323 322 322 321 318 316 314 314 312 310 309 307 306 305
320 320 321 326 326 327 328 330 329 331 334 333 333 331 332 329 329 328 325 324 322 319 319 321 321 323 322 322 323 322 321 321 320 322 325 322 321 321 320 318 316 314 312 310 309 308 307 306 304
319 319 320 326 327 327 327 325 328 332 335 334 333 333 331 330 329 327 327 325 323 321 322 322 322 323 324 322 322 321 321 320 320 323 326 327 324 323 320 317 315 312 310 310 309 309 308 306 305
318 320 319 325 327 327 328 325 329 332 334 332 332 332 332 332 330 327 327 325 323 322 322 322 321 322 326 326 322 322 322 321 322 325 327 329 328 323 320 318 315 311 311 308 309 309 308 307 306
318 320 319 319 324 326 326 324 327 333 333 333 330 331 331 331 331 329 328 326 323 322 323 323 323 324 328 328 325 322 323 322 324 326 328 329 327 323 321 318 314 311 311 311 309 309 307 307 307
321 320 320 320 321 325 324 323 322 330 334 334 330 329 331 331 329 330 328 328 326 324 325 326 326 327 329 328 324 321 322 323 324 326 328 326 325 322 321 318 313 311 311 311 310 309 308 307 306
322 320 320 321 321 321 322 321 321 325 332 333 332 329 329 330 331 330 329 328 328 326 325 326 328 329 329 327 323 321 321 323 323 326 325 325 323 321 319 316 312 310 312 310 309 308 308 308 306
322 322 321 321 322 321 321 321 321 323 328 331 331 331 328 328 330 331 330 329 328 328 327 327 328 329 328 328 324 322 322 324 324 325 325 323 321 320 318 314 311 310 311 310 309 309 308 309 306
322 321 321 321 321 322 321 322 321 321 326 328 330 332 332 329 329 331 331 330 330 329 328 327 328 329 329 328 326 323 321 321 323 325 325 324 320 318 316 312 310 310 310 310 309 308 308 306 305
321 321 322 322 323 324 322 322 322 320 321 325 328 330 331 331 330 330 331 331 330 330 329 329 327 328 329 328 327 325 323 321 323 326 324 322 318 314 311 310 309 308 309 309 308 307 305 301 298
321 323 323 324 324 325 323 322 321 321 321 321 322 327 329 331 331 330 328 331 331 331 330 330 329 329 329 329 328 328 327 325 325 323 323 322 319 316 313 309 308 308 309 309 307 305 301 299 299
322 323 326 327 326 325 323 323 322 321 322 322 323 323 325 329 332 332 330 330 332 332 332 331 330 329 329 330 329 329 328 327 324 323 322 321 318 314 311 308 307 309 309 307 305 299 300 301 299
323 323 324 324 324 323 322 321 321 322 321 322 324 323 322 323 330 332 332 330 331 332 332 331 331 331 329 329 329 328 327 326 323 322 322 321 317 313 311 309 309 309 306 303 300 300 301 299 295
324 324 323 326 326 327 322 321 321 320 321 323 322 323 324 322 326 330 331 330 331 332 332 332 331 331 330 329 329 328 325 324 322 321 320 318 316 314 312 310 309 305 302 302 300 302 300 294 294
324 322 324 325 325 324 322 321 319 319 322 320 320 321 323 324 323 325 327 329 330 331 331 332 331 331 331 330 328 325 324 323 322 320 320 316 317 315 310 307 304 302 301 300 303 301 295 295 294
323 324 323 323 323 324 323 321 320 320 320 323 323 322 323 324 325 324 324 324 326 329 329 330 330 329 329 329 328 324 324 324 322 321 317 318 316 311 307 305 303 302 300 303 300 296 296 296 295
322 323 324 324 323 324 325 322 320 320 321 319 320 321 323 325 326 325 325 324 325 327 328 328 328 328 328 328 327 324 323 321 321 318 316 315 310 306 302 302 302 300 302 301 298 297 298 297 297

GFSSGP_925_thetae_063.txt.gz
Theta_e
315 319 316 317 318 318 318 319 320 320 320 329 333 333 328 325 337 344 331 344 345 344 341 341 343 343 342 341 340 336 331 328 325 318 317 320 325 326 331 333 334 334 334 329 328 328 326 320 316
319 316 317 319 319 318 319 319 319 319 328 331 332 334 333 331 340 341 338 343 344 343 340 341 342 342 341 340 338 334 330 326 321 317 319 323 324 326 329 332 334 334 332 329 328 327 324 315 315
317 315 319 320 319 319 318 319 319 321 328 331 333 337 336 333 335 340 342 343 344 342 339 342 341 342 340 339 336 331 328 324 319 319 324 324 327 329 328 332 333 334 329 329 328 322 315 314 314
317 317 317 316 317 318 318 318 318 322 326 333 333 336 337 340 342 342 342 343 344 343 339 339 340 340 339 336 333 332 327 322 322 326 327 327 333 333 334 333 333 333 328 328 321 315 314 314 313
316 318 317 317 318 318 317 318 325 329 329 333 334 335 337 341 338 340 341 342 342 337 337 337 338 337 335 333 332 331 329 327 327 329 327 331 332 332 332 333 333 329 325 318 315 314 314 313 312
318 318 318 317 318 318 317 324 325 331 332 335 334 335 341 339 337 334 336 337 335 332 331 335 333 331 331 330 329 330 329 329 330 328 327 328 328 329 331 331 329 322 317 316 315 314 314 312 310
318 319 318 318 318 317 321 327 329 329 332 333 333 334 342 337 331 330 329 329 330 328 328 328 329 325 324 324 324 324 326 329 329 327 325 325 324 324 325 324 320 316 316 315 315 314 313 311 309
318 318 317 318 318 319 323 326 327 324 328 332 332 334 337 334 330 327 327 326 324 326 330 329 327 327 322 318 316 319 323 326 327 324 321 321 319 318 317 317 316 315 315 315 314 314 312 309 307
317 317 317 318 318 321 324 323 330 329 330 333 334 336 335 332 328 326 324 323 322 321 321 321 322 322 320 321 319 315 323 326 323 320 317 317 318 316 319 319 315 315 316 315 314 313 310 307 305
317 319 318 318 318 319 320 321 325 326 323 334 337 336 333 330 330 329 326 325 323 320 319 320 320 318 320 319 317 317 320 323 324 321 319 320 320 323 322 316 315 315 315 314 313 312 311 311 310
318 318 319 318 319 320 321 321 322 326 323 334 334 337 332 331 331 330 327 325 323 321 320 319 318 318 319 319 319 322 322 324 321 320 321 320 323 323 321 318 317 315 314 312 311 312 313 312 310
318 317 318 319 319 319 320 322 324 327 333 332 337 335 332 333 330 328 327 325 321 320 319 319 318 318 319 319 321 323 324 323 321 323 322 322 323 322 321 320 319 317 316 314 316 315 312 310 309
318 318 319 319 320 323 322 323 325 330 334 337 334 333 332 331 329 328 326 323 321 320 319 318 318 320 321 321 322 322 322 321 322 322 323 323 323 324 321 321 319 318 318 317 316 313 311 310 308
320 320 319 320 322 323 323 325 329 332 335 336 333 332 331 330 330 329 326 321 320 318 317 318 319 318 321 319 318 316 317 318 320 323 323 324 323 324 322 321 320 319 318 317 316 314 312 310 309
320 319 320 320 323 322 324 325 325 333 334 336 335 334 332 331 329 328 325 322 319 319 319 319 318 319 319 321 323 322 321 320 321 322 323 324 323 324 323 322 320 319 318 317 315 313 311 310 308
319 319 320 322 323 324 324 329 328 332 334 335 334 333 333 330 329 327 325 325 322 321 319 318 317 320 322 323 323 321 320 321 322 322 324 324 323 324 324 323 321 318 317 316 315 313 313 310 309
319 319 321 325 323 324 324 328 329 328 331 334 332 332 333 331 328 329 328 325 322 321 322 322 321 322 322 321 322 322 322 321 320 322 325 326 324 325 324 322 321 318 316 315 314 314 313 311 309
320 318 321 319 324 323 323 324 328 329 330 331 331 331 332 331 329 327 326 324 323 324 324 323 322 323 323 324 322 322 322 321 320 322 324 327 328 327 325 323 321 318 317 315 314 315 313 311 311
322 321 320 322 322 322 324 326 324 330 329 331 330 330 331 331 329 328 327 325 324 324 323 323 322 322 325 325 323 321 321 322 322 324 325 328 328 328 327 325 322 318 317 316 315 315 312 311 311
321 321 320 321 321 322 322 325 322 324 330 329 331 329 330 331 330 328 328 326 324 324 324 324 323 323 326 326 325 321 319 320 321 323 326 328 328 327 325 325 322 318 317 317 315 314 313 312 311
322 322 323 323 324 322 321 322 322 322 327 330 330 329 327 330 331 330 328 328 326 325 325 326 326 325 326 325 325 322 320 320 322 323 325 327 327 326 325 324 321 318 316 315 314 314 313 312 311
323 321 321 321 321 322 324 325 325 322 324 328 330 332 330 328 329 331 331 330 330 328 326 326 327 327 327 327 326 324 321 320 321 323 324 326 325 324 324 323 320 316 314 315 314 313 313 312 312
322 323 322 322 324 325 325 322 326 322 320 323 328 332 331 329 328 329 331 331 330 330 329 328 327 327 328 328 327 327 324 322 322 323 324 326 325 324 323 321 317 314 313 313 313 312 312 311 310
321 322 322 323 324 328 324 324 324 323 320 320 321 326 330 329 328 328 328 330 330 330 330 330 329 328 328 329 329 329 327 326 322 322 327 327 325 323 321 318 315 313 313 311 311 312 311 307 302
322 323 326 328 331 328 326 323 324 325 322 322 322 322 326 329 330 329 328 330 330 330 330 331 331 329 329 329 330 330 329 329 327 326 327 325 325 322 320 316 314 312 311 310 311 310 308 301 301
324 323 327 331 330 330 323 322 322 322 321 321 323 324 325 325 328 330 330 328 329 330 331 332 332 331 330 331 331 331 331 331 330 328 325 324 324 323 321 318 313 310 309 310 310 307 302 301 302
325 325 325 327 325 325 323 322 321 320 320 321 322 323 325 325 325 328 330 330 328 330 332 333 332 332 331 331 332 332 332 332 331 329 326 324 323 322 320 314 310 309 309 309 306 303 301 301 302
325 324 325 324 328 327 323 322 322 321 322 320 321 321 322 324 325 327 329 330 331 331 332 333 334 333 332 332 332 332 331 330 329 327 325 324 322 320 317 313 312 310 308 306 303 300 302 300 296
323 326 324 326 327 328 325 323 322 320 320 321 322 321 321 323 326 327 327 328 330 331 333 334 334 334 333 333 332 331 329 327 325 324 322 321 321 318 313 312 309 306 305 303 301 301 300 298 297
323 323 324 326 324 324 326 326 322 321 321 321 321 321 322 323 324 326 327 327 327 330 331 333 333 334 333 333 333 330 327 325 324 323 322 320 318 314 311 310 307 305 303 301 301 299 299 298 298

GFSSGP_925_thetae_066.txt.gz
Theta_e
316 314 319 320 318 318 318 318 318 319 321 331 326 330 330 328 333 336 330 330 330 333 341 343 344 340 340 340 339 336 330 327 326 321 318 322 330 333 334 335 333 331 330 329 329 327 320 314 314
321 323 320 318 319 319 318 319 320 320 324 330 329 327 327 328 342 338 340 327 327 325 340 343 343 341 340 340 338 335 329 327 322 318 322 326 331 334 335 334 331 329 330 329 328 326 316 313 314
314 319 317 319 320 319 319 319 320 320 321 325 325 331 329 340 344 342 344 339 336 341 341 343 343 342 340 339 337 333 331 324 318 321 325 327 330 333 335 333 329 329 330 329 326 319 314 313 316
318 318 317 317 317 317 318 320 319 319 325 326 325 329 340 340 342 342 343 343 342 341 340 340 343 342 341 338 336 334 327 321 324 327 329 330 332 333 334 332 327 329 329 327 320 314 314 312 313
319 318 317 318 317 318 319 318 321 326 328 328 328 327 332 327 337 339 339 339 338 339 339 339 336 340 340 337 335 331 326 327 330 329 330 331 332 332 334 331 327 327 322 316 314 314 313 310 309
318 318 318 318 318 320 319 320 324 324 325 328 329 330 331 334 333 334 334 333 333 337 336 335 330 328 337 336 333 330 329 330 330 330 333 333 332 332 333 330 324 319 316 314 314 314 312 309 307
318 318 318 318 318 318 324 324 326 328 327 332 326 332 334 331 328 330 332 331 331 331 330 330 330 328 324 325 326 325 329 328 329 332 333 333 332 332 332 327 318 316 315 315 315 314 311 308 305
317 317 316 317 318 321 323 323 326 324 323 325 327 338 335 331 326 326 326 327 329 328 327 327 329 329 326 320 321 323 328 327 328 329 330 331 331 331 327 319 316 315 315 315 315 313 309 307 306
317 317 317 319 320 324 324 324 325 325 323 325 328 338 333 327 327 324 323 323 324 327 326 325 324 323 324 324 320 317 325 327 327 326 324 324 323 321 320 317 315 315 315 315 314 312 309 306 306
316 317 318 320 318 318 320 321 322 327 324 324 323 329 330 329 328 328 326 323 321 321 322 323 323 323 322 321 318 317 322 315 324 322 319 318 321 322 318 315 315 316 315 314 313 311 310 310 310
318 317 318 318 319 320 320 320 322 322 326 326 324 330 332 332 328 327 325 323 320 320 319 320 320 322 321 320 317 320 318 324 322 320 322 319 323 322 316 315 315 315 314 312 313 313 313 311 309
318 318 317 318 319 319 320 320 321 326 328 325 324 333 332 332 329 326 325 323 321 320 320 319 320 320 319 319 320 321 323 325 320 324 320 321 323 322 316 316 315 315 314 313 315 314 313 310 309
319 318 317 318 318 319 321 322 322 330 332 333 335 332 332 331 329 327 324 322 321 320 319 319 319 320 319 319 318 319 323 320 324 322 323 321 323 321 318 320 318 317 316 316 317 315 311 309 308
319 320 319 319 319 319 321 322 328 327 320 335 334 333 332 332 330 326 324 322 321 319 319 319 319 320 318 317 320 320 324 322 323 324 325 323 322 324 320 321 319 318 318 318 316 314 312 310 309
320 319 319 319 320 320 321 322 326 326 327 335 334 333 332 331 331 325 324 321 319 318 319 319 319 320 320 322 320 321 320 322 323 324 324 324 323 324 323 321 320 320 319 318 316 314 312 310 309
320 320 319 320 321 322 322 324 326 324 326 333 334 333 332 331 330 326 322 320 319 319 319 319 319 319 319 318 316 320 317 319 322 323 322 324 324 324 324 322 321 319 319 317 315 314 312 311 309
319 319 319 320 323 323 325 327 327 323 326 329 332 332 330 331 328 327 325 322 320 320 319 317 319 318 320 321 317 322 321 321 321 323 323 324 323 324 323 323 322 320 318 317 315 314 314 312 310
322 321 321 320 323 323 322 329 326 325 329 329 330 332 330 331 330 327 326 324 323 321 316 316 318 321 323 323 324 322 321 321 322 322 323 324 323 324 324 324 322 320 318 317 316 315 314 313 311
322 321 321 322 323 324 322 323 328 328 329 332 330 331 331 328 329 329 327 323 321 322 321 321 321 323 323 322 323 323 324 322 321 320 323 326 327 326 326 324 322 321 318 317 315 315 315 313 311
322 321 321 321 322 321 320 322 326 328 326 327 329 330 331 329 329 327 326 324 322 324 324 324 324 325 324 324 324 322 323 323 322 322 322 327 326 327 327 326 325 322 319 318 316 315 315 313 312
321 320 322 324 322 321 322 321 323 323 326 326 329 328 330 330 329 329 327 326 326 325 325 324 324 323 325 325 323 322 321 322 322 322 324 327 327 326 327 326 326 323 320 319 317 316 315 313 313
322 321 323 322 322 322 323 325 326 324 323 326 327 329 328 330 329 328 329 327 326 325 325 325 324 323 324 326 326 325 322 321 323 323 324 326 328 327 326 325 324 324 320 318 317 315 315 314 313
323 323 324 322 321 323 324 327 326 323 323 323 327 329 328 328 329 329 328 328 326 327 326 326 326 325 325 326 326 325 323 321 320 323 323 327 328 327 325 324 324 323 318 317 316 316 314 313 313
321 322 323 323 323 326 324 325 326 324 325 323 326 329 331 329 328 330 330 329 329 328 328 327 328 327 327 328 327 327 325 324 322 323 324 327 326 324 324 324 323 322 320 317 315 314 314 313 313
321 322 326 329 330 330 325 326 327 325 324 323 322 329 330 329 328 328 330 331 331 331 330 330 328 328 327 328 329 326 328 326 325 324 325 328 326 325 324 324 322 320 318 315 314 313 312 311 308
322 322 328 332 335 335 328 326 322 323 323 321 321 323 325 329 330 328 327 331 331 331 332 332 331 330 329 329 331 331 328 331 328 327 328 328 326 324 319 323 321 318 316 314 313 311 312 310 304
324 326 324 332 331 336 328 326 322 322 320 320 322 323 325 325 327 330 329 328 331 331 332 333 332 331 330 330 329 330 330 330 330 331 329 327 325 324 324 323 320 317 315 312 310 311 308 305 301
321 324 327 328 334 329 322 322 324 322 321 321 320 322 324 325 326 326 329 330 329 331 332 332 332 333 332 331 331 331 332 333 332 332 330 327 326 325 324 322 319 315 311 309 309 306 305 302 302
321 325 327 326 326 331 334 327 325 323 322 321 322 322 323 324 326 327 328 330 330 330 331 333 334 333 333 332 332 332 334 333 332 330 328 327 325 322 321 318 315 312 310 309 307 306 304 302 301
321 323 327 330 329 329 332 327 324 324 322 322 322 322 322 323 325 327 328 327 329 332 332 335 335 335 334 334 333 333 333 331 329 327 325 324 322 321 319 315 312 310 309 307 306 303 302 301 300

GFSSGP_925_thetae_069.txt.gz
Theta_e
315 315 316 319 315 311 313 314 314 314 321 328 327 328 328 327 335 342 334 334 338 340 340 340 340 338 339 337 334 329 327 326 323 318 321 330 335 334 334 333 331 329 329 328 326 321 315 320 321
316 321 320 315 313 313 314 314 315 317 326 328 325 326 325 344 342 336 334 333 331 331 332 329 326 334 339 339 334 329 327 325 320 319 332 334 334 334 332 330 328 329 328 327 323 314 315 319 321
314 318 314 312 312 315 315 315 316 324 327 326 326 325 338 332 339 341 338 333 328 327 325 325 328 338 339 338 334 329 327 323 319 323 333 334 334 332 329 328 328 328 327 324 314 313 317 320 320
316 314 311 311 312 313 314 313 323 326 326 325 325 330 332 325 335 335 337 337 340 335 333 335 338 339 339 338 336 334 326 322 321 327 333 334 334 331 327 328 326 323 317 313 313 312 316 318 317
318 312 311 312 313 314 315 316 322 323 326 329 327 330 329 331 332 333 335 337 341 340 338 338 337 337 335 338 336 330 323 323 322 328 333 334 333 329 326 326 321 315 314 314 313 310 310 316 316
314 310 313 314 314 315 319 321 325 326 326 330 328 330 331 328 323 330 333 335 336 336 337 336 333 329 327 321 334 328 323 323 327 330 332 334 333 328 324 320 315 314 314 314 312 309 307 313 315
313 311 311 312 314 315 323 320 326 327 328 331 328 331 333 328 325 330 331 333 333 330 331 330 330 330 325 322 331 330 329 333 331 330 332 334 332 328 321 318 315 314 315 314 311 308 306 311 315
313 310 311 312 313 316 322 321 324 322 326 327 329 337 335 328 326 329 329 330 329 327 326 326 325 325 325 323 322 320 321 330 333 333 333 333 332 328 320 316 315 315 315 314 311 308 306 311 312
314 310 311 313 315 320 323 321 323 322 323 323 333 333 330 327 325 324 325 327 328 325 325 322 324 324 324 323 320 318 318 325 326 332 332 332 330 325 317 316 315 316 316 315 310 307 306 309 308
313 309 312 314 315 316 319 321 320 323 323 323 332 331 328 328 326 325 324 323 323 322 322 321 322 324 323 320 319 315 318 325 326 326 329 330 326 319 316 315 315 316 315 313 310 309 310 309 308
314 313 313 314 314 316 315 316 323 322 326 323 326 332 329 328 328 326 324 322 321 321 320 321 321 319 320 318 317 316 317 323 325 326 324 321 318 316 315 315 316 315 314 312 312 312 312 309 308
314 315 315 313 314 315 315 318 326 323 323 326 325 331 332 329 327 325 323 320 320 320 320 320 321 320 318 317 318 320 320 323 321 320 320 320 317 315 315 316 315 315 314 314 314 313 311 309 308
315 316 315 315 314 314 315 324 328 326 323 325 330 331 332 330 327 325 323 322 320 320 319 320 321 321 319 318 319 319 324 321 324 320 323 321 318 315 316 316 315 315 314 315 315 314 312 308 307
317 317 316 316 315 315 317 323 327 324 323 325 332 332 330 330 328 325 322 321 320 319 319 320 320 320 319 319 322 322 324 321 324 321 322 322 321 318 315 317 317 316 316 316 316 316 312 309 308
318 318 316 316 316 315 317 320 325 325 324 328 334 331 331 330 327 325 323 321 320 319 320 320 320 319 319 319 318 322 322 324 323 324 323 322 321 318 319 320 319 318 318 318 317 314 312 309 309
318 317 317 316 316 317 319 322 324 326 330 333 332 331 330 329 326 324 322 321 319 319 319 320 320 318 317 316 317 322 321 322 324 324 324 322 323 322 322 321 320 319 318 318 317 314 312 310 309
317 318 317 317 317 319 319 325 324 323 327 328 332 331 330 328 325 323 321 320 320 319 319 319 319 318 320 318 316 320 321 322 322 322 323 324 324 323 323 322 321 320 319 318 316 314 313 311 309
319 321 317 317 320 322 323 324 325 323 325 328 329 328 329 328 326 322 320 319 319 319 319 319 320 319 318 318 318 319 319 318 320 322 321 320 323 324 323 323 322 320 319 318 317 315 313 313 311
319 320 319 318 321 322 322 323 324 324 327 328 327 329 329 328 326 324 321 320 319 319 318 318 318 317 319 319 316 315 316 321 321 320 323 322 322 322 324 323 324 322 320 318 317 316 315 314 311
321 320 319 321 321 321 318 317 326 326 325 325 328 328 329 329 327 325 323 322 320 318 316 317 315 316 320 317 317 322 321 320 322 321 323 323 323 322 323 323 324 322 321 319 317 316 315 315 312
320 320 319 322 322 320 319 318 326 325 325 325 327 329 327 330 328 326 322 321 318 315 316 316 318 319 322 322 323 322 323 322 321 321 320 321 325 325 324 325 324 324 322 322 318 316 315 314 313
320 319 320 323 322 320 319 321 322 322 325 324 327 329 327 328 328 326 322 320 320 319 318 319 319 322 324 322 321 322 322 323 322 320 322 322 323 325 325 326 325 326 325 323 319 317 316 315 313
321 323 323 324 321 320 321 324 326 323 322 323 322 328 327 326 325 325 323 322 321 322 323 322 323 324 324 325 322 322 322 321 322 322 321 322 326 326 326 326 326 325 325 322 320 318 317 315 314
320 321 322 322 321 322 321 328 327 323 321 322 323 326 325 326 326 325 324 324 324 324 324 324 323 323 322 322 324 325 322 322 321 322 322 322 325 327 327 326 325 324 324 323 320 317 317 316 314
320 320 323 324 324 323 327 328 324 324 322 322 322 325 323 324 326 326 325 324 324 324 324 323 323 323 322 322 324 324 325 323 321 320 322 323 326 327 327 326 325 324 324 323 319 318 316 315 314
320 320 324 328 328 331 328 328 322 322 321 321 321 325 325 323 325 326 325 326 324 324 324 324 324 325 324 323 324 325 324 325 322 321 321 323 325 326 326 325 324 324 323 320 319 315 314 313 312
322 321 322 330 329 332 332 325 322 321 319 318 319 320 325 324 324 325 326 326 327 325 325 326 325 325 326 326 327 327 325 326 327 324 324 323 325 325 326 325 324 323 320 319 316 314 313 311 311
320 322 326 331 334 336 331 328 323 324 322 318 317 318 320 320 322 323 324 328 328 328 328 328 328 327 326 327 327 329 328 327 328 328 325 327 326 326 325 323 321 321 320 317 315 313 311 310 308
320 320 325 328 328 328 328 327 323 322 323 317 317 317 319 320 320 321 322 325 329 329 329 329 329 329 329 328 329 328 330 330 329 329 329 327 327 326 324 324 323 320 317 314 313 310 309 308 305
319 320 325 327 328 328 324 325 322 319 320 318 317 318 317 320 320 322 322 324 326 329 329 330 330 330 330 330 330 330 329 331 329 329 324 323 326 325 323 321 318 315 314 313 310 308 306 303 302

GFSSGP_925_thetae_072.txt.gz
Theta_e
314 314 318 317 311 308 311 313 313 313 315 326 325 328 344 342 343 340 334 339 340 346 342 339 333 329 335 337 331 328 326 324 321 323 327 334 334 333 330 329 329 328 326 326 329 329 329 328 326
315 320 319 312 311 312 311 311 314 319 325 326 324 333 339 343 339 332 336 337 339 338 341 339 336 331 328 329 334 327 325 322 320 323 333 334 333 329 326 325 326 324 323 324 327 327 325 320 319
315 319 314 312 309 311 312 313 313 326 326 325 324 335 333 332 336 339 335 330 332 332 332 338 335 329 328 329 334 330 325 320 322 334 335 334 332 327 322 321 321 322 322 324 326 321 319 315 318
316 311 308 310 310 311 314 315 314 325 325 324 325 331 329 325 329 333 334 336 332 331 329 330 331 329 328 333 332 337 325 320 332 335 334 333 330 324 323 321 321 320 321 321 320 319 315 317 319
317 307 310 310 310 310 312 313 314 323 327 328 325 329 328 327 331 331 333 336 338 335 330 329 329 329 326 327 330 334 329 328 334 333 333 331 326 324 322 319 315 314 312 314 318 317 315 318 319
314 308 311 312 312 313 312 318 324 325 328 328 328 329 330 328 325 327 330 329 333 333 333 333 331 328 327 326 328 331 329 331 336 335 332 328 326 324 320 316 314 313 311 309 313 315 314 313 319
313 309 311 312 313 312 319 319 326 325 328 330 328 329 331 327 325 329 329 327 330 330 330 328 329 328 327 327 329 330 327 336 334 334 332 329 327 323 316 314 314 313 310 308 308 313 314 310 312
310 310 313 311 313 311 314 320 322 323 328 328 331 335 329 326 326 328 329 327 327 326 325 326 326 328 327 325 324 325 321 328 334 333 331 328 324 319 315 314 314 313 310 307 306 311 313 309 309
310 311 311 312 311 312 316 320 321 321 323 329 332 333 328 327 326 326 327 325 324 324 323 323 323 324 323 323 323 321 320 323 330 333 329 326 323 317 315 315 315 313 309 307 307 311 310 309 308
310 308 312 312 311 313 315 320 319 325 325 326 331 329 327 327 326 325 324 324 322 321 322 322 321 322 322 321 319 318 317 322 326 330 329 325 320 316 315 316 315 313 309 306 307 308 308 309 308
312 313 314 314 313 309 314 324 322 324 328 327 327 330 329 328 327 325 323 322 321 321 321 321 321 320 320 319 317 318 319 321 324 324 325 325 318 315 315 315 315 314 310 309 311 311 309 308 307
314 313 313 314 314 312 314 323 326 324 327 327 327 328 328 329 327 326 323 321 321 321 320 320 320 320 318 317 319 318 317 320 323 324 323 323 316 315 315 316 315 313 312 312 313 310 309 308 307
312 312 314 313 312 312 316 325 327 324 325 327 330 330 330 327 327 325 322 320 320 320 320 320 320 319 319 317 318 320 322 322 317 316 324 319 316 315 316 315 315 314 314 314 314 313 310 308 306
313 315 315 315 314 314 317 325 324 324 323 329 332 330 329 328 327 324 322 321 320 320 320 320 319 318 318 318 316 320 324 322 323 323 319 317 315 315 316 316 315 315 315 316 315 315 311 308 307
317 317 315 315 315 315 317 320 325 324 324 332 330 330 328 329 327 324 322 321 320 320 320 321 320 318 319 320 321 322 322 322 320 321 320 316 315 315 315 316 316 316 316 317 315 315 312 309 308
316 316 316 315 315 316 314 316 322 323 324 332 331 329 329 329 325 324 322 321 320 320 321 320 320 319 319 319 320 324 322 324 321 321 322 320 317 315 316 317 317 317 318 317 316 315 311 309 309
315 316 317 317 318 316 316 318 322 325 331 333 331 331 329 329 326 324 323 321 320 320 320 321 320 320 319 321 323 323 323 324 322 323 322 321 318 317 319 319 319 318 318 318 317 316 313 310 309
316 317 317 317 316 314 321 321 322 323 326 331 331 331 329 329 327 325 322 320 320 319 320 321 319 319 319 319 321 321 323 324 324 324 324 322 323 321 322 321 320 320 319 318 317 316 313 312 311
316 317 317 317 318 321 320 320 323 321 325 327 329 328 328 328 325 322 320 320 320 319 320 320 319 318 318 317 319 321 321 322 321 323 323 324 323 323 323 323 321 321 319 319 318 315 315 314 312
316 317 318 318 319 319 317 316 321 324 325 326 330 328 327 327 325 321 320 318 319 319 319 319 319 319 319 317 316 319 320 321 321 320 321 321 321 321 323 323 322 321 321 319 318 317 316 314 314
317 318 318 318 319 318 318 318 325 324 324 324 326 325 326 327 326 323 321 318 318 319 318 318 319 318 318 318 317 318 318 318 321 321 320 321 321 321 322 323 323 323 322 320 318 318 316 315 314
318 318 318 319 321 321 317 319 323 323 324 324 325 325 326 327 326 324 322 320 319 319 318 316 317 317 318 320 316 317 317 320 320 321 320 321 322 322 323 322 322 322 323 322 322 320 318 315 314
319 319 321 322 321 319 319 321 320 320 321 322 324 325 326 328 326 325 322 321 319 317 316 316 315 316 317 319 318 319 321 322 321 320 320 321 320 321 323 324 323 323 324 324 323 322 319 316 315
319 320 321 319 319 322 320 322 321 321 321 320 326 326 327 328 326 324 322 320 316 315 315 315 315 316 319 321 321 321 321 321 322 322 321 320 320 321 321 324 325 325 326 325 325 323 320 318 316
319 318 321 322 323 322 326 326 322 320 320 320 326 327 327 328 327 325 321 319 317 316 315 316 318 318 320 322 322 321 321 320 320 321 322 321 320 322 323 324 325 326 325 325 324 323 320 318 316
319 319 322 324 324 325 326 326 323 320 320 319 320 326 327 326 326 325 323 321 320 319 319 320 319 320 321 322 323 323 323 320 320 320 320 321 321 321 322 325 326 326 324 324 324 323 319 317 317
319 320 320 327 328 327 326 328 321 319 319 317 318 323 325 325 325 324 323 322 322 321 321 322 322 322 322 322 322 322 322 323 323 322 320 320 321 322 323 323 325 325 325 324 323 321 318 317 315
319 320 327 328 330 330 329 328 324 321 321 317 318 322 322 324 325 325 324 323 323 323 322 323 323 322 322 322 321 321 321 323 323 323 322 320 320 322 323 324 324 325 323 323 322 319 317 314 313
319 320 324 328 328 329 327 324 319 321 319 317 314 317 318 321 320 322 324 325 324 324 323 323 323 323 323 323 323 322 322 322 324 325 323 323 323 324 324 322 323 324 322 321 319 317 314 312 310
317 319 320 326 330 328 322 323 319 318 318 316 315 317 316 317 317 319 322 324 325 325 325 324 324 323 323 324 325 325 326 326 325 325 325 324 324 318 321 324 323 322 321 319 317 314 312 309 308

GFSSGP_925_thetae_075.txt.gz
Theta_e
313 313 318 314 310 308 312 311 311 313 315 324 324 337 341 340 340 335 337 338 338 343 340 337 330 328 330 333 332 336 335 327 324 325 329 333 334 333 331 329 329 331 331 331 331 331 332 330 328
315 319 317 307 310 310 310 310 313 314 323 324 328 337 338 342 336 333 333 334 339 342 341 337 333 335 330 331 331 329 334 337 336 336 334 333 332 332 330 329 328 330 330 330 330 329 328 327 327
314 319 311 309 307 311 311 311 312 322 324 323 324 333 333 335 336 337 335 334 333 342 339 337 331 329 329 330 330 330 330 334 336 335 333 332 331 332 329 325 327 330 330 329 327 324 323 325 323
314 310 306 310 311 309 312 311 312 319 324 323 324 330 329 326 332 332 331 331 330 337 334 335 332 328 329 333 330 330 329 327 336 334 333 331 329 330 326 324 325 328 329 327 322 316 320 321 319
314 306 309 310 310 310 310 311 312 314 323 325 323 326 328 326 330 329 330 331 336 331 331 333 332 330 331 332 331 330 329 327 335 334 332 330 327 327 324 324 324 327 326 322 316 318 319 318 315
311 306 310 311 311 311 311 311 322 319 324 326 329 329 328 329 324 328 329 330 333 334 334 329 330 329 327 328 327 329 332 327 336 334 332 329 327 325 322 321 320 323 319 313 315 320 319 318 316
310 309 310 310 312 312 312 314 322 325 328 328 327 327 328 325 326 328 328 329 331 331 332 330 328 328 328 329 327 327 328 327 333 333 331 327 322 322 318 315 314 316 315 313 313 318 319 318 317
308 310 313 311 313 311 312 317 321 325 327 327 330 334 328 324 326 327 326 327 329 329 329 329 328 328 328 328 331 330 331 331 329 330 330 322 320 317 315 312 309 309 311 312 309 310 315 318 318
306 310 310 312 311 311 311 318 320 321 324 330 331 332 326 324 326 326 324 324 325 326 327 328 327 326 326 325 325 329 328 324 327 326 328 323 321 317 313 311 308 306 308 311 309 309 311 315 318
309 309 311 310 310 313 312 319 319 324 325 325 330 329 325 325 325 325 325 323 322 323 322 323 324 323 323 322 324 324 324 325 325 322 325 321 316 315 313 310 308 306 309 309 308 308 309 312 316
310 312 312 313 312 310 309 318 322 324 326 324 327 328 326 326 325 324 324 322 322 322 322 321 321 321 321 320 320 321 324 325 324 325 323 318 316 315 313 310 307 306 309 309 309 308 308 308 311
312 311 311 311 312 311 310 318 323 321 322 326 323 327 327 326 326 324 323 322 321 321 321 321 321 320 319 319 320 320 322 322 323 325 321 316 315 315 314 312 307 308 308 309 309 308 307 307 308
311 312 312 311 311 312 320 324 324 323 326 327 327 327 328 327 326 324 322 322 321 320 320 320 320 319 318 318 320 321 322 322 323 325 320 316 315 316 315 314 310 310 312 312 310 309 308 307 306
312 312 313 313 314 313 320 323 324 321 324 323 330 329 328 326 326 323 321 321 321 321 320 320 319 318 318 319 319 320 322 323 323 323 319 315 315 316 315 313 312 313 315 314 314 312 308 306 306
314 314 313 313 314 314 317 321 324 321 322 324 331 329 328 325 325 323 322 321 321 321 321 320 319 318 317 319 319 320 320 323 322 317 320 316 315 315 315 314 314 315 315 315 315 312 308 307 305
314 314 315 314 314 314 314 315 314 321 323 326 329 328 328 327 324 322 322 321 321 321 321 320 319 319 318 319 320 322 322 321 320 319 323 317 315 315 315 316 314 315 315 316 315 314 310 309 307
313 312 314 314 315 316 315 315 316 321 322 327 330 328 327 327 323 322 322 321 320 320 321 321 320 319 320 320 321 323 322 322 321 320 320 316 315 315 315 316 315 315 316 317 316 314 312 310 308
312 315 314 315 315 315 315 314 320 323 326 329 329 328 327 328 324 323 322 321 320 320 321 321 320 319 320 320 322 323 323 323 322 321 319 316 315 315 315 316 316 317 318 317 316 315 313 312 310
315 316 315 314 315 317 316 316 320 320 325 325 328 329 327 328 323 323 322 321 320 320 320 321 320 320 319 320 322 322 323 323 320 320 321 321 319 316 316 318 318 318 319 318 317 316 315 312 310
315 315 315 315 316 317 315 316 318 320 322 324 325 326 327 327 325 320 319 319 320 319 320 320 319 320 319 319 320 321 322 323 322 323 323 321 322 320 319 321 320 320 320 318 318 317 315 313 312
315 315 315 316 316 316 317 317 323 321 323 322 322 326 325 326 324 322 319 318 319 319 320 320 319 319 319 318 318 319 320 322 322 323 323 323 322 323 323 323 322 321 321 320 319 318 316 315 313
315 314 316 317 317 318 316 319 316 321 324 324 324 323 324 325 325 322 320 317 317 318 319 319 319 318 318 317 317 318 319 320 321 321 321 321 322 322 322 322 321 322 322 321 320 319 317 316 314
316 316 317 317 318 318 319 318 317 319 323 322 323 322 321 325 325 323 320 319 317 318 319 319 319 318 318 317 317 316 318 318 319 319 320 320 320 320 321 321 321 322 322 322 322 320 318 317 315
318 318 319 318 317 320 319 319 318 319 320 320 319 321 322 324 324 323 321 320 319 318 318 318 317 318 317 317 317 317 317 317 317 318 318 320 320 320 320 322 322 322 322 322 322 322 321 320 318
317 317 320 320 321 322 321 323 321 318 317 319 319 321 322 323 325 324 321 320 319 317 316 317 316 316 316 316 317 319 316 317 316 317 320 320 320 320 320 320 321 322 323 323 323 323 323 321 319
316 317 320 324 322 321 324 327 322 319 318 317 318 321 322 324 325 324 322 320 319 316 315 315 315 315 315 316 317 318 317 316 319 321 321 321 321 320 320 320 320 321 322 323 324 324 324 322 320
316 318 318 324 325 326 323 322 320 318 316 317 317 322 324 324 326 325 323 320 318 315 314 315 314 314 314 316 317 319 318 318 319 320 320 320 320 320 320 320 320 322 323 324 324 324 323 321 319
317 319 323 323 329 329 324 326 323 321 318 315 316 320 324 324 325 325 324 322 319 317 315 314 315 316 316 317 319 320 321 321 321 320 320 319 319 319 319 320 322 323 323 324 324 323 322 320 318
318 320 323 323 322 323 326 322 319 321 318 316 315 318 323 324 323 324 324 324 322 320 318 317 317 317 318 319 320 320 321 321 321 321 322 323 322 320 320 321 323 323 321 321 323 322 320 318 316
317 318 324 323 329 324 320 324 318 317 317 314 313 315 319 322 323 323 323 323 322 322 321 320 320 320 321 321 321 321 322 321 321 321 321 322 322 322 323 323 323 321 322 320 321 320 318 315 313

GFSSGP_925_thetae_078.txt.gz
Theta_e
312 312 317 312 308 307 311 311 310 312 318 321 328 330 335 336 334 328 336 336 337 343 342 339 338 338 337 333 336 341 341 338 335 331 328 334 335 335 334 333 333 331 331 331 330 329 328 328 328
314 318 315 305 307 309 309 309 311 311 321 323 328 335 337 340 336 332 333 333 335 341 340 337 337 337 335 334 331 335 340 337 336 333 334 334 334 333 332 332 332 331 331 330 329 330 326 326 325
316 319 310 307 305 310 310 310 311 313 320 323 322 332 332 333 335 336 335 331 333 335 339 338 333 330 331 329 330 333 336 337 336 335 334 334 333 331 331 331 331 330 331 331 332 331 328 324 322
313 309 304 309 310 309 311 310 310 310 317 322 323 325 328 325 331 333 331 328 333 335 337 336 332 328 328 326 329 329 333 331 333 334 333 333 332 331 331 330 329 329 329 329 329 329 325 319 314
312 305 308 310 310 309 308 309 310 311 320 324 322 322 327 325 328 327 328 328 332 333 332 334 332 326 325 323 327 325 327 331 332 333 331 331 331 329 330 329 329 328 326 326 327 325 320 311 308
309 305 310 310 310 310 310 310 312 315 321 325 327 327 326 328 324 327 328 329 332 333 333 333 330 328 330 330 329 329 328 330 331 332 330 331 329 328 329 329 328 325 320 322 321 319 314 311 308
309 307 310 310 311 312 312 311 316 323 326 327 325 326 326 326 324 327 328 328 330 331 332 332 331 330 330 330 328 329 329 328 330 330 330 331 327 327 327 328 325 318 317 318 319 318 314 312 310
307 309 311 310 312 312 311 315 321 324 324 326 328 330 326 324 324 327 327 327 328 330 330 330 330 328 327 328 327 327 330 328 330 328 330 329 327 326 325 325 318 314 317 319 319 318 316 314 313
306 309 310 312 310 311 310 313 319 321 326 326 329 330 326 325 326 326 325 326 328 328 328 329 328 327 327 327 327 329 328 329 329 325 327 326 324 322 320 319 313 312 315 319 319 318 317 315 313
309 309 310 309 309 312 311 312 313 322 322 323 328 326 324 325 326 326 325 324 324 326 326 327 327 327 327 325 327 329 329 328 326 325 326 324 320 315 311 312 313 311 310 311 315 318 317 316 314
307 310 310 311 310 310 310 310 317 321 323 321 324 327 326 326 325 325 325 324 323 323 324 324 324 325 325 325 328 327 326 326 325 322 324 320 315 311 308 308 310 310 309 310 312 316 316 315 313
313 310 311 311 311 311 310 314 321 319 319 325 321 325 326 326 326 325 324 323 323 322 322 322 322 322 321 324 325 326 325 323 322 322 322 318 314 310 308 307 309 309 309 309 310 312 313 312 311
310 311 310 309 309 310 313 315 320 321 319 325 325 326 326 326 326 325 323 322 322 321 321 321 321 321 319 321 324 325 323 321 320 320 322 315 313 310 308 306 308 309 309 308 307 307 308 309 311
312 311 311 311 312 312 316 318 324 319 324 327 326 326 327 327 326 324 322 321 321 321 321 320 320 319 319 320 323 324 323 322 322 322 318 315 314 312 308 306 308 310 309 308 308 308 307 308 307
313 314 311 311 312 312 313 318 323 319 324 323 327 327 326 327 325 323 322 321 321 321 321 320 319 317 319 320 321 322 322 321 322 322 316 315 315 316 314 309 309 312 310 310 310 308 306 306 306
313 312 313 311 312 313 314 314 314 314 322 321 327 328 328 326 325 322 321 321 321 321 321 321 319 318 318 320 321 322 322 323 323 321 316 316 316 317 313 315 312 313 314 315 311 307 306 305 305
311 312 311 311 312 315 312 314 313 319 321 322 328 328 327 325 324 322 321 320 320 321 321 320 319 318 318 319 320 321 322 322 322 321 318 316 316 315 317 315 313 315 315 314 311 310 309 307 306
314 314 312 313 313 313 313 312 312 319 320 322 326 326 326 326 325 323 320 321 319 321 321 321 320 318 318 319 321 320 321 321 321 317 317 319 315 315 315 314 313 315 315 314 314 313 310 309 308
312 313 315 312 312 315 314 313 313 316 323 323 325 327 326 326 323 322 322 320 319 321 321 321 320 319 319 320 321 321 320 321 320 317 314 320 316 315 315 314 314 315 314 316 315 313 312 311 310
314 314 314 312 313 313 313 314 313 318 320 323 323 326 325 325 325 324 322 321 320 320 321 321 320 319 320 320 321 322 322 322 319 318 319 318 316 315 315 315 315 315 316 317 316 316 314 313 311
315 315 315 314 313 313 315 315 315 318 319 320 320 322 325 326 327 324 322 320 320 319 320 321 320 320 319 319 320 321 322 322 321 321 321 320 318 317 316 315 317 318 317 318 317 317 316 315 312
315 313 315 314 315 316 315 318 315 315 319 321 320 320 324 326 325 323 321 319 319 319 318 320 320 319 319 319 319 321 320 321 322 321 320 321 321 321 320 318 319 321 319 319 319 318 318 316 314
316 313 314 314 315 316 317 316 315 317 319 318 319 319 321 324 324 323 320 319 318 318 318 319 320 319 319 318 318 319 320 321 321 322 321 322 322 322 322 323 322 322 321 321 321 320 318 317 315
316 315 316 317 316 319 318 318 317 316 318 318 318 317 318 322 324 323 320 318 317 317 318 319 319 319 319 318 317 318 320 319 321 321 321 321 321 321 321 322 322 322 322 322 322 321 320 319 316
315 316 319 319 321 322 317 318 319 316 315 316 316 316 316 320 323 322 319 317 316 316 318 318 318 318 318 318 317 317 318 319 319 320 320 319 319 319 320 320 320 321 321 321 322 322 321 320 318
316 316 319 324 322 321 321 323 320 318 317 316 315 315 317 320 323 323 321 319 317 316 317 317 316 316 317 318 318 317 317 317 317 318 317 317 317 317 318 319 319 319 319 320 321 321 322 321 321
316 318 316 321 323 324 321 320 317 317 316 315 314 314 317 320 323 323 321 320 318 317 316 317 316 316 316 316 317 317 317 317 317 317 317 317 316 319 320 320 320 320 320 320 321 321 321 321 322
315 316 321 320 327 328 322 323 320 318 317 315 314 316 318 320 322 322 322 320 319 317 316 316 316 316 316 315 315 316 316 317 318 317 316 316 319 321 321 320 319 319 320 320 322 322 320 321 322
315 316 320 321 320 322 323 321 317 318 318 318 314 313 317 320 321 323 322 321 319 317 315 315 316 315 314 314 314 315 316 317 317 317 315 314 317 319 320 320 319 319 321 322 321 321 321 321 319
313 315 319 321 324 320 319 320 316 317 316 315 312 312 316 319 320 321 322 322 319 317 315 314 315 315 314 314 314 315 315 315 315 317 317 318 318 320 321 321 321 322 322 322 322 321 321 320 319

GFSSGP_925_thetae_081.txt.gz
Theta_e
314 312 315 313 315 314 316 316 312 314 316 318 330 329 333 337 334 331 335 335 339 343 341 340 336 336 335 338 341 342 341 339 335 333 329 328 333 334 335 335 334 333 332 331 330 330 330 329 328
313 317 314 312 315 316 316 313 315 315 318 323 337 336 337 336 337 335 335 334 337 343 343 339 338 337 335 337 339 341 341 339 338 332 333 331 334 335 335 333 333 332 331 331 330 329 329 329 327
319 318 317 314 313 316 316 313 315 314 314 318 324 332 334 336 337 337 335 332 332 338 342 339 337 337 334 332 333 335 339 337 338 336 336 335 334 334 333 332 331 330 329 328 328 328 327 326 324
314 312 310 316 315 314 315 315 313 313 318 323 323 326 329 328 335 333 331 329 329 333 338 337 336 336 333 331 331 331 333 327 336 335 335 335 334 333 332 331 330 329 329 332 327 327 324 319 320
311 312 316 315 315 313 312 312 312 314 316 325 324 324 327 326 327 327 327 328 331 333 334 336 334 333 333 329 329 328 325 332 335 334 335 333 333 332 331 330 330 332 331 330 328 324 314 313 315
316 311 316 314 313 313 313 314 313 318 319 325 325 326 327 328 326 327 327 328 328 331 332 333 331 330 329 329 328 330 329 328 328 330 333 333 332 330 329 330 330 327 328 329 326 316 309 308 311
317 315 315 313 314 315 315 313 317 319 324 325 326 327 327 327 326 326 325 327 327 330 331 332 330 329 327 325 325 327 325 327 327 326 331 332 331 329 329 328 327 326 326 326 320 310 308 310 311
313 315 314 313 315 316 313 314 321 323 320 327 326 330 329 325 325 325 326 326 326 329 330 331 331 328 327 329 328 326 326 325 328 332 330 331 330 329 329 328 325 321 322 320 314 311 310 310 311
309 317 317 315 314 315 312 314 316 322 325 326 330 331 328 326 325 326 326 325 326 326 330 331 331 330 329 328 330 330 330 328 332 332 330 328 330 329 328 326 317 318 319 318 314 312 312 310 312
314 316 316 313 313 314 313 313 313 320 324 325 329 328 326 326 326 326 327 327 326 326 327 328 330 329 328 328 327 327 328 329 329 332 328 328 328 327 326 317 317 319 319 318 316 313 313 314 315
311 316 313 313 313 313 313 312 314 320 320 322 325 329 327 326 327 327 326 326 326 325 324 326 327 327 327 326 327 327 328 329 330 327 326 325 325 324 317 315 316 321 320 320 318 315 316 316 314
313 312 313 314 313 313 313 314 318 320 319 324 322 327 327 327 327 327 326 326 325 323 323 323 324 326 327 326 327 328 328 328 326 325 321 323 321 319 316 312 312 316 321 322 320 317 315 312 309
313 313 313 312 311 311 312 315 316 320 320 325 326 326 328 327 327 326 325 324 324 322 322 322 322 323 323 326 326 325 327 325 325 324 322 319 316 315 314 311 310 310 312 316 316 316 314 312 309
314 312 313 313 314 314 314 316 322 319 322 327 327 327 328 327 327 326 324 323 322 322 321 321 322 321 321 324 324 323 322 322 324 322 319 314 310 310 311 309 310 309 311 312 314 314 313 313 310
314 315 315 315 315 315 313 317 321 320 326 328 329 328 328 327 327 325 324 322 322 321 321 321 321 321 320 323 323 323 322 321 322 320 316 311 308 306 308 309 309 309 308 308 310 310 311 311 310
315 314 316 313 313 314 316 316 318 316 325 328 329 329 327 327 326 325 323 322 321 321 321 320 320 320 320 322 323 322 321 320 318 319 316 311 308 307 307 308 309 308 308 307 307 307 309 308 309
314 315 314 314 313 314 316 318 317 319 323 325 327 328 327 327 326 324 322 321 321 321 321 320 319 319 319 321 322 322 321 322 319 319 316 313 312 309 307 308 310 310 310 310 309 307 306 306 306
316 316 314 315 314 315 315 315 316 316 322 324 326 328 328 327 327 324 322 321 321 321 321 320 319 318 319 320 321 322 321 321 322 319 315 315 313 309 308 309 312 314 314 312 311 308 305 306 306
316 315 315 315 314 315 315 315 316 317 322 323 326 329 330 329 327 325 322 321 320 321 321 320 319 318 319 319 321 322 322 321 322 320 317 316 315 314 312 313 317 316 314 314 315 309 308 307 306
315 315 316 315 314 315 316 317 317 317 319 323 325 328 330 330 327 325 323 322 320 321 321 321 320 319 319 319 321 321 321 322 321 317 319 317 315 315 314 315 314 315 314 315 314 311 311 312 308
318 318 318 316 314 315 315 317 318 318 320 321 324 326 329 330 329 326 324 322 320 321 321 321 320 320 319 320 320 320 320 321 319 318 316 317 318 316 315 315 315 314 314 315 315 314 314 315 312
317 316 316 317 317 317 316 319 318 319 318 320 322 325 328 330 329 327 324 322 321 320 321 321 320 320 319 319 320 319 319 320 319 318 315 314 315 318 315 315 315 314 315 316 316 316 316 315 316
316 315 316 317 317 316 315 318 319 317 320 321 321 323 325 327 330 329 325 322 320 319 320 321 320 320 319 319 320 320 321 320 319 319 317 317 318 317 315 315 315 315 317 318 318 318 317 317 316
316 316 316 316 317 319 317 319 321 321 321 321 320 320 323 326 328 328 325 323 319 319 318 319 319 321 321 320 320 320 321 321 320 319 319 320 321 320 320 320 319 318 319 320 321 320 319 318 317
316 318 319 323 323 318 320 321 321 320 318 319 321 320 321 324 327 328 326 321 319 318 317 318 318 320 320 319 319 319 320 320 320 321 321 320 321 321 321 321 321 322 322 322 322 322 321 320 318
317 318 318 318 323 320 319 323 321 321 320 319 319 319 318 323 326 327 326 323 320 318 317 317 319 320 320 320 318 317 318 319 319 319 320 320 320 321 320 321 321 320 320 320 321 321 321 320 320
317 318 316 320 324 326 323 322 320 321 319 318 318 317 318 322 325 326 325 324 322 319 318 318 319 320 319 319 319 318 317 318 318 319 319 321 320 319 319 318 318 319 319 319 319 320 320 320 320
317 317 319 319 320 323 323 324 322 320 320 319 320 320 319 320 324 325 325 324 323 321 319 318 319 319 319 319 319 318 318 317 317 318 318 318 318 318 317 317 317 318 320 320 319 320 320 320 320
314 317 320 319 321 321 323 323 321 322 321 322 321 318 317 322 324 325 325 324 323 321 319 318 318 318 318 318 318 318 318 318 317 317 318 317 317 317 317 316 316 318 320 320 319 320 320 321 320
314 315 317 324 325 323 322 322 318 320 321 319 319 317 315 318 323 325 325 324 322 321 319 318 318 318 317 316 316 317 317 318 317 316 316 317 317 317 316 316 316 319 319 319 319 320 320 320 319

GFSSGP_925_thetae_084.txt.gz
Theta_e
316 314 317 318 320 318 319 319 318 319 319 320 323 327 331 333 328 329 340 340 341 342 344 342 336 332 332 340 343 342 338 340 339 338 336 331 333 335 335 336 335 335 334 334 334 332 330 329 328
316 318 319 320 318 318 320 319 319 319 319 321 325 333 335 330 336 338 340 339 339 341 344 344 338 335 334 333 339 341 340 341 339 338 333 331 334 335 336 336 335 333 333 332 332 332 330 329 325
318 320 321 319 318 318 319 319 319 319 318 319 324 331 332 331 338 339 339 337 338 339 342 345 340 335 335 338 338 338 337 340 339 336 333 333 335 336 335 334 333 331 331 332 332 331 329 327 325
318 318 317 317 317 319 319 318 319 319 321 319 322 327 331 332 337 339 336 336 335 337 340 343 339 338 337 336 336 335 336 337 336 335 334 335 336 335 334 333 331 330 330 330 329 329 327 325 323
317 319 318 318 317 317 318 318 318 319 320 326 325 325 328 330 333 334 333 332 333 335 337 340 338 337 336 333 330 329 330 333 329 326 333 334 335 334 332 331 329 329 328 328 327 325 323 322 322
318 319 317 318 317 316 318 318 318 320 321 326 327 327 328 332 330 331 330 330 331 334 335 338 336 336 335 332 332 333 333 327 330 324 331 333 335 333 331 330 329 330 328 326 325 322 316 317 319
318 319 318 317 316 315 318 318 319 319 321 323 327 325 329 332 331 330 329 330 329 331 332 335 334 334 332 331 329 329 328 329 333 330 330 333 334 332 330 331 331 331 329 319 311 308 311 313 316
319 318 317 317 316 316 318 317 318 320 321 327 327 322 324 333 330 330 330 329 327 329 330 332 333 332 332 330 328 329 328 331 332 331 331 332 331 331 331 332 330 328 328 316 309 307 309 311 312
318 318 318 317 316 316 317 318 318 321 323 325 328 328 332 330 329 329 329 329 328 328 330 330 332 331 330 330 330 328 327 327 326 327 327 329 328 330 330 330 327 327 322 313 309 309 309 312 314
317 318 318 317 316 317 317 317 318 318 320 322 326 329 331 330 330 330 331 331 331 330 328 329 331 331 330 330 329 330 330 329 326 327 327 328 328 329 329 328 326 322 318 313 310 310 310 314 315
316 317 318 317 317 317 317 318 318 319 320 320 322 323 331 330 331 330 330 330 330 328 326 327 328 330 329 328 328 330 331 330 329 327 326 327 327 327 327 326 326 322 318 318 317 315 317 316 315
315 316 316 316 316 316 317 318 318 319 321 320 323 324 329 331 331 330 330 329 329 327 325 325 327 327 328 326 327 328 331 328 330 329 329 327 326 325 325 326 325 322 321 320 319 318 318 317 316
316 315 316 317 317 317 317 317 318 318 319 320 324 327 329 331 330 330 329 328 328 327 325 323 324 325 326 325 327 327 328 328 329 326 325 325 323 321 321 325 325 323 323 322 321 320 318 316 315
317 317 317 317 317 316 317 317 317 319 319 321 325 327 328 330 331 330 329 327 327 327 325 322 322 322 324 324 326 326 328 328 325 323 321 318 320 318 318 319 321 323 324 323 321 319 317 314 314
317 317 318 318 318 318 317 317 317 319 322 324 326 328 328 330 330 330 328 327 326 326 324 321 321 321 322 324 324 323 325 323 321 321 320 320 319 316 315 314 315 317 319 319 319 318 316 315 314
317 318 320 319 317 316 316 316 317 319 323 324 326 329 330 330 330 329 327 326 325 324 323 322 320 321 322 323 323 322 322 321 320 320 319 317 316 315 313 311 311 313 314 315 316 316 316 315 313
317 319 320 319 318 317 318 316 318 321 321 323 325 329 330 330 329 329 326 326 325 324 323 321 320 320 321 323 322 321 321 321 320 318 316 314 313 313 312 310 310 310 310 311 312 313 314 313 313
317 320 320 320 319 316 317 317 317 320 321 323 325 329 330 329 330 329 326 325 324 324 323 321 319 320 320 322 322 321 321 319 316 317 315 310 308 309 311 313 310 312 311 311 311 312 311 311 311
318 319 320 320 317 317 318 318 317 318 321 324 326 328 330 330 329 329 325 324 323 323 322 320 320 320 321 322 322 321 320 319 319 317 313 309 310 312 314 315 314 313 313 314 315 314 313 311 311
319 318 319 318 317 317 318 318 317 317 321 322 324 327 329 330 331 330 326 325 324 324 323 320 320 319 320 321 322 321 321 318 316 315 314 313 314 312 312 315 314 313 316 317 316 317 315 315 312
318 319 319 318 318 318 319 319 319 316 321 323 324 325 327 330 333 332 329 326 326 324 323 321 319 319 319 321 322 321 320 320 319 317 317 316 316 315 314 314 317 317 319 319 319 318 317 317 315
318 317 317 318 318 319 318 320 318 320 321 322 324 327 328 329 331 332 330 327 326 324 323 323 321 320 320 320 321 321 319 319 320 320 318 317 318 318 316 317 318 319 319 319 320 319 319 319 319
316 316 315 317 319 320 320 320 318 317 320 321 321 324 328 329 331 333 331 328 327 324 322 323 322 321 320 320 320 321 320 319 321 319 317 317 319 320 319 319 319 319 319 320 320 320 320 319 320
317 317 318 319 320 322 321 319 320 320 322 322 322 322 325 327 330 332 330 328 327 324 321 323 322 322 320 320 320 320 320 320 320 318 316 316 318 319 321 320 320 320 319 320 321 321 321 321 321
317 318 322 324 324 323 319 319 320 321 322 322 322 322 324 326 329 331 332 330 327 324 322 322 322 322 321 320 320 321 321 320 320 319 317 316 317 318 321 321 320 320 321 321 322 323 323 323 322
317 319 322 323 324 324 319 321 321 321 321 322 322 323 324 326 328 331 332 331 327 325 322 321 321 321 322 321 321 322 322 321 320 320 318 318 319 319 321 323 323 324 323 323 324 324 324 324 323
316 319 319 321 320 324 322 323 322 322 322 322 322 322 323 324 327 330 331 330 327 326 323 321 321 322 322 322 322 322 322 322 322 320 319 319 320 320 322 323 324 324 324 324 324 324 324 324 324
313 316 319 320 321 323 321 323 323 322 322 321 323 324 324 323 326 329 330 330 328 326 324 321 322 323 324 324 323 323 322 322 322 322 321 321 321 322 322 322 323 323 323 322 323 323 323 324 324
315 317 318 319 320 322 322 322 321 322 322 323 323 323 323 324 326 328 329 329 329 327 325 322 323 324 324 323 324 323 323 322 321 322 322 322 322 322 322 322 322 321 321 321 322 323 323 324 323
315 316 318 321 318 321 322 323 322 323 323 323 323 323 321 324 326 328 328 329 328 328 326 325 323 323 323 323 323 323 323 323 322 322 322 322 322 322 321 321 321 320 320 320 321 322 323 323 321

GFSSGP_925_thetae_087.txt.gz
Theta_e
315 316 317 320 322 322 321 322 321 320 321 321 323 325 328 329 327 332 341 343 345 346 346 345 337 335 337 344 345 342 341 340 340 339 336 334 332 334 333 335 336 336 336 336 335 334 333 333 328
320 317 320 323 320 322 323 323 321 321 321 321 323 327 328 327 330 335 339 342 343 344 346 346 342 335 333 340 343 342 340 341 339 339 337 332 334 333 334 335 336 335 335 335 333 331 332 331 328
320 319 324 323 322 322 323 322 321 321 321 321 322 326 329 328 333 336 342 341 341 343 344 347 344 337 334 334 336 339 339 340 340 339 336 334 335 333 335 335 335 334 334 334 332 331 330 327 327
319 320 320 318 320 322 321 321 321 321 322 321 322 324 328 334 334 340 340 339 339 340 343 345 344 340 338 335 334 335 335 337 337 338 336 334 334 335 334 335 333 332 333 333 332 330 327 326 326
318 321 322 322 322 321 320 320 320 321 322 324 323 323 327 332 336 337 337 336 337 339 340 342 342 339 338 337 335 333 327 329 327 327 331 332 332 335 335 333 331 330 332 331 330 327 325 325 325
319 320 322 322 322 321 319 320 320 320 322 323 326 324 325 333 333 334 335 334 335 337 338 338 340 339 339 338 334 330 328 331 324 324 329 330 331 333 333 331 330 331 330 328 327 325 324 322 324
320 321 322 322 321 320 319 320 320 321 321 322 325 324 328 335 332 335 333 333 334 335 336 337 338 338 336 334 332 331 330 329 326 328 328 327 329 331 332 330 329 328 327 326 324 321 322 320 320
319 320 321 322 321 320 320 319 320 320 321 325 324 324 323 335 335 334 334 333 333 333 335 336 337 338 334 335 331 331 332 331 328 330 329 330 331 328 330 329 329 327 326 323 321 316 317 318 318
320 320 322 322 322 320 319 319 320 320 321 321 324 324 331 333 333 333 333 333 333 332 333 334 336 336 334 335 333 330 329 329 330 330 328 329 331 330 331 332 330 327 317 312 314 313 313 315 317
320 321 321 322 321 319 318 319 319 320 320 321 322 324 328 332 332 333 333 334 334 332 332 333 332 334 334 333 333 331 331 327 329 329 328 325 331 331 330 332 330 327 313 310 311 310 310 314 316
320 320 321 321 320 318 318 319 320 319 320 320 321 322 324 331 331 332 332 332 334 332 331 330 329 331 332 333 332 331 332 329 327 326 327 329 327 328 330 330 328 322 314 317 315 311 316 316 315
319 319 319 319 319 318 318 318 318 319 320 321 321 321 324 325 331 332 331 332 331 331 329 329 328 328 329 330 330 332 330 333 330 328 327 329 326 328 329 329 327 321 318 318 315 317 317 316 316
319 319 319 318 319 318 318 318 318 319 319 319 320 320 323 326 329 330 331 332 330 331 327 328 326 326 327 327 328 328 330 332 330 329 328 328 328 327 326 326 325 321 320 320 317 320 319 318 317
319 318 319 319 319 320 319 319 319 319 319 319 320 321 323 327 330 330 332 331 329 329 328 326 326 324 325 326 326 328 328 330 329 329 328 328 327 326 323 326 324 323 322 321 320 321 319 317 317
318 319 320 320 320 320 320 320 320 320 319 318 321 323 327 327 330 331 332 330 329 329 329 326 326 323 324 327 325 326 326 328 327 326 323 324 324 324 324 324 323 324 323 322 321 319 317 316 316
319 320 321 321 322 321 321 322 321 320 319 319 323 324 327 329 331 330 331 330 328 328 328 325 323 322 324 324 324 324 325 323 324 323 321 322 320 317 319 323 324 324 324 322 320 318 316 316 316
320 321 322 322 322 320 319 321 322 321 321 321 323 324 328 330 331 330 331 329 328 328 327 325 322 322 322 323 323 322 321 320 319 319 318 318 316 315 318 318 319 320 320 320 319 317 317 316 315
320 321 320 321 323 323 321 321 321 320 322 322 323 325 328 331 331 330 330 328 328 327 326 324 322 321 322 323 321 320 319 318 317 317 316 314 315 314 315 315 315 315 316 317 316 316 316 316 315
318 319 320 322 323 321 321 322 322 321 320 320 323 324 327 330 330 330 330 328 328 327 325 324 321 321 322 322 321 319 319 318 317 315 315 316 316 314 314 312 312 312 312 312 313 315 314 314 314
317 318 320 320 321 321 320 322 321 322 321 320 321 324 326 329 330 331 330 328 328 327 326 323 323 321 322 322 321 319 319 317 315 315 315 314 314 314 314 313 315 314 314 314 315 316 315 314 314
317 319 321 321 321 321 320 322 322 322 322 321 319 323 323 327 331 332 332 329 327 327 325 323 323 322 323 322 321 319 318 318 318 317 315 314 312 313 316 318 316 316 316 319 319 319 317 318 316
319 319 319 319 321 322 321 324 323 323 321 320 320 323 324 325 330 332 333 330 328 328 325 325 323 322 322 322 322 319 318 318 318 316 313 316 315 313 313 316 317 317 318 320 320 321 321 320 320
318 318 318 319 320 320 321 322 323 323 323 321 323 324 325 325 329 332 333 331 330 329 325 324 323 322 322 322 322 321 318 317 317 316 316 316 317 314 311 316 319 321 321 321 322 322 322 322 321
317 317 318 319 319 323 322 324 325 324 323 323 323 322 323 325 328 331 332 331 331 329 326 324 324 322 322 321 321 321 320 318 318 317 318 318 318 316 317 317 319 321 321 321 322 322 322 322 322
316 318 322 325 325 326 323 323 324 323 323 323 322 322 323 324 327 330 334 333 331 329 326 324 323 323 321 321 321 321 320 319 320 318 318 317 317 317 319 319 321 321 322 321 322 322 323 323 323
317 318 322 325 328 327 325 324 323 322 322 322 323 323 324 325 327 330 333 333 331 330 326 323 323 323 323 322 322 321 321 319 320 321 318 316 317 318 319 321 321 321 321 321 322 323 324 324 324
315 318 318 320 322 326 326 324 323 323 323 323 323 322 323 324 326 329 331 333 331 330 327 325 323 323 323 323 322 322 322 322 320 320 319 317 316 316 317 321 321 322 322 323 323 324 325 325 325
310 311 316 318 321 324 322 322 322 323 323 323 323 324 324 323 324 328 330 333 332 330 328 326 324 324 323 323 323 323 323 323 323 321 320 320 317 317 318 320 322 323 324 325 324 325 325 324 325
312 313 315 317 320 320 323 322 323 323 323 323 324 324 324 325 325 327 330 331 332 330 329 327 325 324 325 323 323 323 324 324 324 324 322 322 319 319 320 321 322 324 325 324 323 324 324 324 324
315 315 315 318 320 320 321 322 321 323 323 324 323 325 324 326 326 327 330 331 332 330 330 328 325 325 326 326 325 324 324 324 324 325 324 323 323 321 322 322 323 324 324 323 323 324 324 324 324

GFSSGP_925_thetae_090.txt.gz
Theta_e
318 314 317 320 321 322 323 323 323 322 321 322 322 323 324 327 326 339 341 344 346 347 347 345 338 336 337 344 344 343 341 341 341 337 333 335 336 334 332 333 334 335 337 338 337 336 335 333 329
318 319 318 321 323 322 322 323 322 322 322 322 322 323 324 326 331 339 344 342 344 346 348 347 344 336 335 341 344 344 341 340 339 338 334 334 336 333 333 334 335 335 335 337 335 335 334 327 327
319 321 320 324 323 322 323 323 322 322 322 321 321 323 325 329 333 340 343 341 341 344 346 347 345 340 334 335 341 344 342 340 339 340 337 334 335 333 334 336 336 335 334 335 334 333 330 327 326
320 320 320 321 321 322 322 322 322 321 322 322 321 321 325 332 330 341 341 339 339 341 344 345 345 344 336 335 337 340 340 338 338 329 322 336 334 333 335 335 334 333 333 333 332 330 328 327 325
319 321 322 322 322 322 323 321 321 320 321 323 323 321 326 331 337 338 339 338 339 340 342 343 343 342 340 337 335 337 336 337 335 331 325 325 335 332 335 334 333 333 332 331 332 327 327 326 328
320 319 320 321 322 323 321 320 321 320 321 322 324 325 326 333 335 337 338 336 337 339 340 339 341 340 339 338 337 337 335 330 328 326 325 324 332 329 332 333 332 333 332 330 328 326 326 325 327
319 320 320 321 323 323 323 320 320 321 321 321 323 324 329 333 333 337 336 335 336 336 338 339 338 338 338 338 338 334 332 328 328 325 325 324 331 330 330 332 330 332 330 329 325 324 325 325 325
319 320 320 320 322 323 323 320 320 320 320 323 324 325 327 335 336 335 335 334 335 335 336 337 337 337 336 337 335 333 331 330 330 327 325 324 330 330 332 331 331 331 329 326 323 322 322 324 323
320 320 320 320 322 322 322 319 320 320 320 320 321 323 330 336 335 334 335 334 334 334 334 335 335 336 335 335 333 332 332 331 329 328 328 327 328 329 330 329 329 327 324 322 319 320 319 320 320
320 320 320 321 322 322 321 320 319 320 320 321 321 323 328 333 332 332 333 334 335 334 334 334 334 335 335 335 333 330 331 331 329 328 330 329 328 330 329 329 328 325 321 320 317 317 317 319 316
319 321 321 321 322 321 320 319 319 319 319 321 321 321 323 332 332 332 331 332 335 336 333 332 331 332 335 334 332 330 329 328 328 328 329 325 327 327 326 329 327 320 317 317 313 315 316 313 317
320 320 320 321 321 320 320 319 319 319 320 320 321 323 323 323 328 331 331 331 331 334 332 331 328 330 331 331 332 331 330 329 329 329 327 326 327 328 330 327 324 319 318 314 310 314 316 315 318
321 320 320 320 320 319 319 319 319 319 320 321 320 320 321 322 323 325 329 330 331 333 330 328 327 329 327 329 330 330 331 330 328 328 327 327 326 329 329 327 321 319 315 311 313 318 315 315 317
321 320 320 320 320 319 319 319 320 320 321 320 319 319 319 320 323 326 330 331 332 332 329 327 327 326 327 327 328 328 328 330 332 329 327 327 328 327 328 325 320 319 319 312 318 318 317 317 318
321 321 320 320 320 320 321 321 321 321 321 321 320 319 320 321 325 329 330 332 331 330 330 326 326 325 326 326 326 326 329 328 330 330 329 327 327 326 326 324 321 321 320 318 322 320 319 318 318
320 320 321 320 320 321 321 322 322 322 322 322 321 319 321 324 327 329 330 332 330 330 329 327 325 324 326 326 325 325 327 327 327 328 329 328 328 327 326 323 323 321 322 321 320 319 318 317 318
320 322 322 322 322 322 323 322 322 322 322 319 320 320 323 326 329 330 331 331 330 329 328 325 324 324 324 324 323 324 324 325 325 326 327 325 326 324 324 324 324 323 322 322 319 317 316 316 317
320 321 322 322 321 321 322 323 321 322 322 322 322 322 323 327 329 330 331 331 329 329 327 324 323 323 323 323 322 321 322 322 321 321 321 320 322 323 322 322 323 323 322 321 319 317 316 316 316
318 318 320 320 322 322 323 324 322 322 323 322 323 323 323 325 329 331 331 330 329 329 326 323 322 323 323 321 320 319 318 317 317 317 319 318 318 317 319 319 322 320 320 319 317 317 317 315 316
316 316 317 319 321 320 322 322 322 322 323 323 322 321 324 324 328 331 332 330 330 328 325 323 323 322 323 321 320 318 317 316 316 315 314 314 314 315 316 317 317 318 316 316 315 316 316 315 315
317 318 318 320 321 321 322 322 322 322 322 323 323 322 321 325 328 332 333 331 330 328 324 323 322 323 322 321 319 318 316 315 315 315 314 313 313 313 314 315 313 314 315 312 314 315 315 314 314
316 317 318 320 322 325 321 324 324 323 323 324 324 324 322 323 328 331 333 332 330 329 325 323 323 323 322 320 319 317 316 315 315 314 314 315 315 315 315 313 314 312 315 315 313 316 315 316 315
316 317 318 321 322 322 320 323 321 322 322 323 324 323 322 325 325 332 333 332 330 329 326 323 323 324 323 321 319 317 316 316 316 316 315 314 314 315 316 318 316 317 315 318 317 320 319 318 319
317 317 318 320 321 325 322 322 322 322 324 325 323 323 325 325 326 331 333 332 331 330 326 324 323 323 323 322 320 317 317 317 317 315 315 316 314 314 314 317 318 317 317 318 319 321 321 322 321
316 318 321 324 325 327 321 322 324 323 324 324 324 324 324 325 326 329 334 333 331 331 326 325 323 322 322 323 321 318 317 317 317 315 315 315 317 316 313 314 316 319 319 321 322 321 321 322 322
316 319 320 322 330 331 326 327 323 323 323 323 323 323 324 325 328 329 334 333 332 331 328 324 324 323 323 323 322 320 318 317 317 316 316 316 316 316 314 311 314 316 320 321 321 322 323 323 322
317 318 317 320 321 325 324 326 325 324 322 323 323 323 324 326 327 327 333 334 332 332 329 325 324 323 322 322 323 322 321 318 317 317 317 317 317 317 316 314 315 320 321 322 322 322 322 323 323
314 317 319 319 321 319 319 322 325 325 324 323 324 324 324 324 325 327 330 334 332 332 329 326 324 324 323 322 322 322 322 320 319 319 317 317 316 316 316 317 317 318 320 322 322 323 323 324 324
309 310 311 312 315 319 323 324 325 326 325 325 325 326 326 326 326 327 329 334 332 332 329 326 325 324 323 323 323 323 323 321 319 320 320 318 317 316 316 316 319 320 320 321 323 324 324 325 325
313 311 311 314 317 320 321 321 320 321 323 324 324 326 326 325 327 327 329 334 333 332 330 328 326 325 324 323 323 323 323 323 322 321 321 321 319 317 316 316 317 318 321 321 321 323 324 324 324

GFSSGP_925_thetae_093.txt.gz
Theta_e
313 316 314 316 316 314 316 317 319 319 320 319 321 321 322 322 331 338 343 339 347 346 345 342 337 337 341 343 341 341 341 342 335 333 330 328 331 332 331 328 328 329 335 338 338 338 337 334 332
316 318 317 313 316 318 318 317 318 318 319 319 321 322 323 324 338 342 342 345 346 347 347 344 340 336 337 341 342 342 340 340 340 335 333 332 331 330 329 330 331 334 336 337 336 336 335 331 331
316 319 313 315 316 317 317 319 318 319 319 319 319 320 323 334 339 343 341 342 343 343 347 347 344 337 335 338 342 343 341 340 340 338 336 334 335 331 331 333 334 335 336 336 335 335 332 330 330
318 317 313 316 317 318 319 318 319 319 319 318 320 319 325 332 336 341 339 338 343 343 345 346 344 341 334 335 339 343 342 341 340 337 331 329 327 336 334 335 335 334 334 333 332 332 326 327 328
317 313 315 316 316 317 317 318 317 318 319 322 319 321 330 339 339 339 338 338 340 342 344 344 344 343 338 334 337 340 341 341 339 331 330 330 327 326 334 334 334 334 333 332 330 327 325 324 326
313 312 314 314 316 318 319 318 318 320 319 320 323 323 327 338 338 339 337 337 339 339 340 340 341 341 340 337 336 340 339 339 339 336 331 326 327 325 331 333 333 333 331 330 329 327 325 328 327
315 314 314 314 316 318 319 317 319 320 319 320 321 323 328 333 337 337 335 334 334 338 339 339 336 336 338 338 338 336 339 337 337 330 327 324 325 328 331 333 332 332 331 328 327 326 327 328 326
314 313 315 316 317 316 318 318 318 318 319 319 323 323 331 335 336 335 333 335 334 333 336 338 337 335 335 337 338 337 336 334 329 326 326 324 324 324 332 331 331 332 330 327 325 325 327 326 324
316 314 315 315 316 317 318 318 319 318 318 319 319 320 330 336 335 334 334 335 334 333 335 335 335 335 334 334 334 335 333 331 329 325 324 325 324 328 329 330 331 331 329 325 324 325 326 323 321
316 313 316 316 316 318 318 316 317 317 317 318 318 319 334 335 334 333 333 333 333 334 333 334 333 334 334 333 334 333 332 331 329 328 327 325 326 330 330 331 329 329 327 323 322 323 324 322 319
315 316 316 317 317 317 316 315 315 316 315 317 319 318 334 332 331 330 332 334 333 334 333 333 332 333 336 336 333 331 331 331 330 328 328 327 328 327 328 328 328 327 324 321 319 321 321 320 319
317 316 316 316 317 317 316 315 315 314 315 316 316 318 330 330 329 328 328 330 333 334 333 332 329 329 331 334 332 330 330 330 329 329 328 327 326 330 330 328 327 324 320 318 318 318 319 317 319
318 318 318 318 317 316 316 316 315 314 316 317 317 317 316 321 327 328 329 330 335 332 331 330 328 329 328 332 332 331 330 328 328 328 329 326 327 327 325 326 325 320 317 314 316 315 314 317 319
319 319 319 317 316 317 317 315 315 316 317 317 317 315 314 314 315 319 327 329 332 331 329 328 327 328 328 329 330 330 330 330 328 328 327 326 327 327 327 326 321 316 313 311 315 313 314 318 319
318 318 318 318 317 317 317 316 316 317 317 318 318 316 313 313 315 319 328 329 333 331 329 327 326 326 325 327 327 328 328 330 329 329 327 326 327 328 326 324 317 312 308 316 318 313 316 316 319
318 318 319 318 317 317 317 319 318 318 318 318 317 317 315 314 315 323 329 330 331 329 328 326 325 325 326 325 326 326 328 328 330 329 328 327 327 328 326 323 316 310 312 319 318 316 316 317 318
317 319 319 318 318 318 318 319 318 318 319 319 317 316 313 314 320 327 331 330 330 330 327 326 325 324 324 325 325 325 327 328 330 329 328 327 327 328 326 321 318 311 317 320 319 319 318 318 318
317 318 316 318 317 319 319 319 319 318 317 317 316 316 314 317 323 327 330 329 330 329 327 325 323 323 323 323 323 323 323 324 326 327 328 328 327 327 324 322 317 317 319 321 319 318 317 318 318
314 316 317 316 315 317 318 318 318 318 317 317 316 316 315 316 323 327 329 328 328 327 325 324 323 322 323 322 321 321 321 322 323 324 325 327 327 326 323 322 321 320 322 320 318 317 316 317 317
310 312 313 313 314 316 316 319 319 319 318 318 317 316 316 316 324 328 327 328 327 325 324 323 323 322 322 322 320 319 319 318 319 319 319 322 321 323 322 321 323 321 320 318 316 316 316 316 316
307 310 313 315 316 317 319 321 320 319 318 318 318 317 315 318 325 329 327 327 325 324 323 323 322 323 322 321 319 317 317 315 315 316 316 316 318 321 323 323 322 321 321 318 316 316 316 315 316
308 308 310 314 319 321 320 326 322 320 319 320 319 318 318 314 328 329 328 327 325 324 324 323 322 323 322 320 318 317 316 316 315 315 315 315 317 320 320 321 320 320 318 317 316 316 316 315 315
312 310 312 318 320 321 322 325 322 319 320 320 319 318 318 315 329 330 328 328 325 324 323 323 322 323 321 320 318 316 315 315 315 315 314 315 316 317 317 317 316 314 313 314 314 315 315 315 314
314 316 318 319 321 325 323 324 322 320 320 320 320 320 318 316 329 330 328 328 325 323 323 323 323 323 321 319 317 316 315 314 314 314 315 314 314 314 315 314 314 314 313 314 313 313 315 315 314
315 316 319 322 323 322 319 323 322 320 320 320 320 320 318 318 328 331 329 328 326 324 322 323 323 324 321 319 317 316 316 315 315 314 315 314 314 315 314 314 313 313 313 315 315 313 316 318 319
315 316 320 323 326 329 321 329 326 323 322 320 320 318 318 318 328 331 330 328 327 324 323 323 322 324 322 320 318 316 317 316 315 314 316 314 314 314 315 316 316 316 314 315 316 315 318 320 320
315 316 316 320 319 325 322 320 320 323 323 322 319 319 319 320 328 331 330 329 328 325 323 323 322 322 323 322 319 317 317 317 316 315 314 315 315 314 315 315 318 318 317 316 316 318 320 321 318
313 315 318 319 320 319 317 317 323 321 324 323 321 319 319 321 325 331 330 329 329 326 324 323 322 322 322 323 322 319 317 317 317 315 315 315 315 315 316 314 313 316 318 319 319 320 320 321 321
310 313 315 314 317 319 319 320 321 323 322 324 323 320 320 320 320 324 331 330 330 327 324 323 323 322 322 322 322 322 319 318 317 317 315 316 316 316 316 315 314 314 314 316 319 320 321 322 322
310 309 310 311 313 314 316 316 321 318 322 323 324 324 322 321 320 321 331 330 330 328 324 324 323 323 322 322 322 322 322 320 318 317 317 316 317 316 316 315 315 315 314 317 320 321 321 321 322

GFSSGP_925_thetae_096.txt.gz
Theta_e
316 314 315 315 315 311 315 315 316 317 319 319 320 320 321 324 327 326 342 345 344 343 340 338 339 341 339 336 335 333 331 331 332 332 333 335 335 336 335 335 335 337 339 340 339 337 337 339 335
313 317 316 309 314 315 314 315 317 316 318 318 320 321 322 341 339 341 343 345 345 343 342 340 337 338 341 339 336 335 332 332 334 333 332 335 335 334 333 332 332 335 336 338 337 336 337 336 333
317 319 313 312 312 315 316 317 318 317 317 317 318 319 323 338 341 341 341 342 345 344 345 343 339 336 338 340 340 340 340 340 338 336 335 336 336 333 332 330 331 334 335 336 335 335 335 333 332
315 314 310 314 316 316 316 317 317 317 317 317 316 318 329 335 341 342 342 341 342 343 345 344 342 337 336 340 341 342 340 340 338 337 335 334 333 335 333 332 334 335 334 333 333 334 332 331 330
316 309 313 314 314 314 315 315 314 316 317 319 318 319 334 339 341 341 342 342 342 344 345 344 342 339 335 339 342 342 341 340 339 335 333 331 331 330 328 332 330 335 334 333 333 332 330 329 328
312 309 312 314 315 316 314 315 317 317 318 320 320 327 332 339 340 339 339 342 342 343 343 343 342 341 336 337 341 343 342 341 339 334 332 330 329 328 326 327 331 333 332 332 330 330 329 329 326
314 311 312 312 313 315 317 315 316 318 318 319 321 321 334 335 338 338 337 339 340 341 341 339 339 339 340 337 338 339 341 341 339 335 332 332 328 328 326 326 332 332 331 330 328 326 326 328 325
311 311 315 312 315 315 316 316 316 317 317 318 319 326 335 331 337 336 334 336 337 338 338 337 335 333 336 338 338 337 338 340 339 336 335 328 327 326 327 328 327 331 331 327 326 325 327 327 326
312 313 312 313 314 315 315 316 316 315 317 317 318 320 326 334 335 334 334 333 332 334 335 336 335 334 334 334 337 336 338 339 337 330 326 324 326 329 327 326 330 330 329 327 325 327 327 326 320
314 312 316 314 314 316 315 315 314 316 315 317 317 328 334 334 333 331 331 332 333 333 334 334 335 334 333 332 333 334 335 332 330 326 325 324 324 324 328 328 330 328 328 327 326 327 326 320 320
313 318 317 316 314 313 314 314 315 315 314 314 316 322 334 333 331 331 331 332 333 332 334 334 332 333 333 333 332 332 333 331 329 325 324 325 325 327 327 328 328 328 327 325 325 328 324 319 320
317 315 314 315 315 314 315 314 314 313 314 315 313 317 333 333 332 331 331 331 331 332 333 333 332 332 334 335 332 331 332 331 329 328 326 325 326 330 330 330 329 328 326 324 325 325 324 318 319
316 317 317 316 315 314 314 315 315 314 313 313 313 321 332 332 331 331 331 331 331 332 333 332 331 332 332 333 332 331 331 331 330 328 328 327 327 327 327 326 327 328 325 321 323 324 323 318 319
317 317 316 316 316 315 315 315 314 313 314 315 315 314 322 331 329 328 326 328 330 332 332 331 329 327 331 330 332 331 330 330 329 329 328 328 327 328 329 326 325 327 322 319 320 322 321 318 319
315 315 316 316 316 316 316 316 315 314 314 315 315 315 314 313 324 326 324 329 331 330 331 329 328 327 327 329 331 332 331 329 328 329 328 327 327 327 326 325 326 324 316 316 318 319 318 318 319
317 317 318 317 316 316 315 318 316 315 314 315 314 315 314 314 312 314 323 329 329 330 329 328 326 325 325 328 329 329 329 330 330 328 328 327 327 326 326 326 325 317 313 315 315 316 317 317 319
316 319 318 317 317 316 315 317 316 314 315 315 316 316 316 315 311 318 327 330 329 330 328 326 325 325 325 326 326 327 327 328 329 329 328 327 327 327 322 324 319 311 311 315 313 314 317 317 318
317 317 316 317 316 316 316 317 315 314 315 316 316 316 313 312 313 324 328 329 328 328 327 326 325 325 324 324 325 325 326 328 328 329 328 327 327 327 326 322 315 309 315 317 313 315 316 318 318
315 315 314 314 314 313 313 313 313 314 316 316 317 315 312 311 317 327 328 327 326 326 326 325 324 324 323 323 324 322 323 325 328 328 328 327 327 327 324 322 314 311 317 317 315 314 317 318 318
308 309 311 311 311 311 311 314 315 315 316 316 316 317 313 313 323 326 326 325 325 324 324 323 323 323 323 322 321 321 321 321 323 325 327 328 327 325 324 321 315 314 319 318 317 317 317 317 317
306 306 307 308 310 313 317 316 315 316 317 318 318 317 315 313 325 327 326 324 323 323 322 323 323 322 322 321 321 320 319 319 319 321 322 324 327 327 323 322 316 318 319 318 318 317 317 317 317
307 307 306 306 307 310 317 318 316 316 317 317 318 318 316 312 324 327 327 324 323 322 322 323 323 322 320 321 320 319 317 316 316 317 318 321 324 325 323 320 317 319 319 317 317 316 316 316 315
308 308 308 307 314 318 320 321 316 319 319 319 318 318 318 314 323 327 327 325 323 322 322 323 322 322 321 321 320 318 317 317 316 315 316 318 319 320 320 319 319 319 318 317 316 316 315 315 315
312 312 314 316 317 320 321 320 316 318 318 318 319 319 319 314 323 327 327 325 323 322 322 321 322 320 320 320 319 318 317 316 315 315 316 317 316 316 316 317 318 319 319 317 316 316 316 315 315
312 313 315 318 320 321 318 321 318 318 318 318 319 319 319 318 322 327 327 324 323 321 321 321 322 319 320 320 319 317 316 316 315 315 315 316 317 318 319 319 319 319 318 317 316 315 315 315 315
311 313 316 320 321 320 322 324 324 321 319 320 321 321 321 320 327 328 327 324 323 322 321 322 322 320 320 319 318 316 315 315 315 315 315 315 316 317 318 317 317 318 317 316 315 314 312 313 314
311 314 314 317 318 319 320 319 317 319 321 323 324 321 318 317 327 329 327 325 324 322 322 322 322 321 320 319 318 316 315 315 315 315 315 315 314 315 315 315 314 314 314 314 314 314 315 314 313
312 313 316 315 319 320 317 315 317 320 323 325 324 323 322 322 330 329 328 326 324 323 322 321 322 322 320 320 318 316 316 315 315 314 315 314 314 314 314 314 314 314 314 314 316 316 316 317 315
310 310 315 316 317 319 318 317 323 324 324 323 322 322 321 320 327 330 329 327 326 323 322 321 321 322 321 321 319 317 316 316 316 315 314 315 314 314 315 314 315 314 316 316 315 315 316 316 317
313 310 314 317 318 317 317 318 320 321 324 321 320 321 323 321 320 329 329 328 325 323 322 321 321 321 322 322 321 319 317 317 316 316 314 314 315 314 314 315 315 316 317 317 317 317 317 319 318

GFSSGP_925_thetae_099.txt.gz
Theta_e
320 316 315 313 314 310 314 313 312 315 317 317 318 319 320 323 323 322 338 343 344 341 339 340 339 338 335 334 333 332 333 333 333 335 339 339 338 337 337 336 335 338 338 339 339 337 337 338 337
314 315 314 307 312 313 312 313 315 314 316 318 319 319 324 335 339 339 343 344 343 339 338 339 338 338 337 334 333 332 333 333 333 335 337 338 337 336 336 336 337 338 339 338 339 338 336 336 336
316 318 311 311 309 313 313 315 316 316 315 316 318 318 330 335 339 340 339 342 342 339 338 338 338 337 338 336 334 333 333 333 333 333 335 336 336 337 336 336 336 337 337 337 339 336 335 335 334
315 314 309 313 314 313 314 315 316 314 315 315 316 320 329 335 339 337 339 343 342 340 339 339 338 338 339 340 339 337 338 336 335 336 335 336 336 335 334 333 334 335 334 335 337 333 335 334 333
314 307 312 313 312 313 314 314 314 315 315 317 316 318 331 338 339 339 338 343 340 341 342 341 338 338 338 340 340 340 341 339 337 334 334 335 335 334 331 329 331 332 333 333 332 333 333 333 332
310 307 312 313 313 314 314 314 315 315 316 317 318 330 334 337 341 341 340 340 341 341 343 342 339 337 339 340 341 341 341 340 338 334 333 332 333 331 331 329 327 332 331 331 332 332 331 330 329
311 309 312 312 312 313 315 314 315 315 316 319 319 329 331 336 338 342 341 341 342 343 343 341 340 339 337 340 340 341 341 340 339 335 331 331 331 330 328 327 328 332 331 331 331 330 329 328 327
310 311 314 312 314 315 315 315 316 315 315 315 319 331 336 334 338 338 340 342 342 342 342 341 340 339 338 337 339 340 341 340 339 335 332 330 330 330 328 327 330 331 330 330 330 329 328 326 324
308 313 313 313 313 314 313 315 314 313 314 315 317 328 327 337 336 336 336 339 340 340 339 338 336 334 336 337 337 337 341 340 339 337 332 331 333 330 327 326 327 330 325 329 328 328 328 324 323
315 313 314 313 312 315 314 313 313 314 313 314 315 328 333 335 333 332 331 331 335 337 337 336 334 333 332 333 337 337 335 338 338 337 336 334 327 326 327 327 327 325 328 329 326 327 328 325 321
313 317 314 314 313 312 312 313 313 314 312 313 315 321 332 332 332 331 331 331 331 333 335 334 334 333 333 332 333 332 333 336 337 336 332 327 325 325 328 327 329 330 329 327 325 327 326 321 321
316 312 316 316 314 314 314 313 313 310 314 314 312 316 332 332 332 330 329 331 331 331 331 333 333 333 333 332 332 332 331 333 332 330 326 324 324 324 327 327 327 324 327 326 326 326 322 319 321
315 316 315 315 314 313 313 314 313 313 314 313 311 316 331 332 331 331 331 330 330 331 332 333 333 332 333 332 332 332 331 331 332 329 325 324 324 327 328 328 327 326 327 326 326 324 319 320 320
313 313 314 314 315 315 316 316 313 313 312 312 312 311 326 331 330 331 330 329 329 330 331 333 332 331 333 333 333 331 330 331 330 329 327 325 326 326 329 328 328 327 327 326 326 324 318 319 320
314 315 313 313 314 315 315 315 313 313 313 312 312 312 312 327 329 330 329 329 330 330 331 332 332 331 332 332 332 331 330 330 333 330 329 328 327 327 327 328 326 326 326 325 325 324 318 319 319
316 316 317 316 315 315 315 318 316 314 313 313 312 311 312 311 321 328 329 328 328 330 330 332 331 328 330 330 331 331 330 330 330 330 328 328 327 326 327 327 325 324 325 323 323 322 317 319 319
314 315 317 317 316 316 313 316 315 314 314 314 313 312 312 312 312 312 326 326 328 329 329 330 329 327 325 328 330 330 330 330 329 328 328 327 327 327 325 323 320 322 322 320 321 319 317 318 318
314 316 315 316 315 315 315 315 313 312 312 312 313 313 312 311 313 312 314 324 328 328 328 329 328 326 325 327 328 328 328 329 330 329 328 327 327 327 326 323 320 323 319 317 318 318 317 319 318
314 315 315 313 313 311 312 312 311 309 311 313 312 312 312 312 312 316 322 326 326 327 327 327 326 325 325 325 325 325 325 326 328 327 328 327 327 327 326 324 324 318 315 316 316 316 316 318 318
309 311 311 310 311 311 311 311 309 310 313 313 313 313 314 313 319 324 326 325 325 325 325 325 325 324 325 324 323 323 323 324 325 327 327 327 327 326 325 323 323 314 314 315 314 315 316 316 317
305 307 306 309 307 307 309 310 312 313 313 314 314 313 314 314 316 325 326 325 325 324 324 323 323 325 323 323 323 322 321 321 322 323 325 327 326 325 325 321 321 314 315 316 313 316 317 316 317
305 305 306 305 305 305 311 309 308 312 313 315 315 315 315 314 315 324 326 325 324 324 323 323 322 324 322 321 321 320 318 318 319 321 321 324 327 327 326 322 319 312 317 316 314 315 317 317 316
306 307 306 306 305 306 310 318 312 316 315 314 314 314 315 314 312 324 326 325 324 323 322 322 322 322 321 320 320 320 319 318 319 319 320 321 322 323 324 323 317 313 318 317 316 316 317 317 316
311 309 310 309 308 315 311 318 314 312 315 316 316 316 320 315 311 322 325 325 323 321 321 322 321 321 320 319 320 320 319 317 317 317 317 318 320 322 323 320 318 315 317 317 316 316 317 317 316
310 311 315 317 321 317 318 319 316 315 316 316 319 321 321 317 313 321 326 324 323 321 321 321 321 320 318 319 320 319 318 318 317 316 316 317 317 319 320 319 317 316 317 317 317 318 317 317 314
307 309 314 318 318 316 317 321 316 319 318 320 320 321 320 320 318 321 326 324 323 321 321 321 321 320 318 319 319 318 318 317 316 316 316 316 316 316 317 318 317 316 316 317 317 316 315 314 313
308 312 310 313 316 318 318 318 314 318 321 321 321 320 319 319 321 322 326 324 323 322 321 321 320 320 319 319 318 318 318 316 316 315 316 316 317 316 316 316 316 316 316 316 316 316 315 315 315
308 309 313 313 318 319 315 316 315 322 324 321 321 320 319 319 320 325 326 324 323 322 321 321 321 320 319 318 317 316 316 316 316 315 315 316 317 318 318 317 318 318 317 316 316 316 315 314 313
308 310 313 313 314 317 317 314 321 322 320 323 322 320 320 320 319 328 327 324 323 322 321 321 321 320 319 318 317 316 315 315 316 315 315 315 316 316 317 317 317 316 315 316 315 316 315 314 315
308 310 313 315 315 315 315 316 319 317 322 322 321 321 319 320 318 318 327 325 324 322 321 321 321 320 319 318 317 316 316 315 315 315 315 315 315 315 315 315 315 316 316 315 315 315 315 316 315

GFSSGP_925_thetae_102.txt.gz
Theta_e
319 318 314 312 313 309 313 313 311 314 315 315 317 318 320 320 323 318 333 342 341 338 336 337 338 337 335 334 334 334 335 337 339 339 337 336 335 335 335 334 335 337 340 340 339 335 339 340 336
318 315 312 306 311 312 310 312 315 313 314 315 318 321 326 326 336 338 341 343 342 336 336 338 338 336 334 334 333 333 334 336 338 339 338 337 337 337 336 336 336 337 338 340 340 339 338 338 335
315 316 309 309 308 310 310 313 313 315 313 316 316 317 325 331 337 337 339 342 343 336 335 337 338 337 334 333 333 332 333 335 337 339 339 338 339 337 336 336 337 337 337 337 339 338 337 337 335
316 313 307 312 313 312 311 314 314 314 315 314 314 318 327 333 337 333 336 341 342 336 334 336 338 339 338 335 333 333 333 332 334 338 339 339 338 339 336 336 334 335 336 335 338 336 335 336 335
312 307 311 312 311 311 312 312 314 315 314 315 314 316 327 337 338 336 336 341 339 335 335 337 339 339 340 339 338 337 335 333 332 334 337 337 338 338 336 333 329 333 333 332 335 333 334 335 333
310 307 312 311 310 312 312 312 314 314 314 315 315 322 329 335 339 338 338 339 338 335 337 338 338 339 339 340 339 340 339 336 333 333 335 336 336 335 332 329 332 331 331 330 331 332 334 334 333
311 309 312 312 312 312 312 311 314 315 314 314 319 325 327 335 339 340 340 340 340 338 340 339 338 338 339 340 340 340 341 339 336 335 336 336 335 333 331 331 332 328 326 323 329 333 333 333 332
308 310 312 311 313 313 313 315 314 314 314 312 321 323 324 332 338 341 342 342 342 341 341 340 339 337 338 340 340 340 340 339 338 335 334 334 333 332 330 332 328 329 331 332 331 332 332 331 330
306 311 312 313 312 313 312 314 313 312 313 312 316 324 326 334 338 340 340 341 342 342 342 340 339 338 337 337 339 341 340 339 339 337 333 331 331 331 330 328 328 330 329 330 330 331 330 329 328
312 311 310 311 311 313 314 313 312 314 311 313 313 324 333 335 335 334 335 337 338 340 341 340 339 339 337 336 336 338 339 338 339 338 334 331 330 330 331 329 328 327 328 327 329 329 329 327 325
314 314 313 313 311 311 312 313 313 314 313 313 314 314 332 332 332 332 333 335 336 339 339 339 337 335 334 335 334 336 337 337 337 338 335 332 330 331 331 326 326 328 328 327 326 328 327 324 324
315 312 314 314 313 315 314 313 313 310 313 313 312 312 330 332 332 331 331 332 333 335 336 336 335 333 332 331 334 336 336 333 334 337 336 333 333 330 326 327 327 326 328 326 326 326 324 323 324
312 315 313 313 313 312 312 313 313 311 311 312 311 311 322 330 332 332 332 331 330 331 333 334 334 333 332 332 333 334 332 332 331 332 334 334 330 325 324 326 327 328 328 327 326 326 323 322 322
309 310 311 312 314 313 315 315 314 313 312 311 311 310 309 327 329 331 330 329 329 329 329 330 332 333 333 332 332 332 331 331 331 330 330 329 325 324 325 326 328 327 326 326 325 325 322 321 321
311 311 311 311 313 313 313 314 313 313 312 312 311 310 309 319 325 328 329 329 329 329 329 329 331 332 333 332 332 332 331 332 328 329 330 327 324 324 326 327 328 325 326 325 324 323 320 320 320
315 314 315 314 312 314 315 317 316 313 312 312 311 311 311 309 317 325 327 328 329 329 329 329 331 332 332 331 332 332 331 332 330 329 328 328 325 325 326 328 327 324 325 325 323 319 319 319 320
311 313 315 316 314 315 314 316 314 312 312 312 312 311 311 310 309 313 317 320 327 328 328 329 330 332 331 332 332 332 331 332 332 327 329 330 327 327 327 327 327 326 324 324 320 317 319 318 319
313 315 314 315 315 315 314 314 312 311 310 310 309 310 310 310 310 311 313 314 321 327 328 329 329 332 331 331 330 330 330 329 331 329 330 328 327 327 327 326 324 323 321 321 319 317 318 319 318
312 312 314 313 313 312 312 311 309 308 308 307 308 310 310 310 310 313 318 315 321 326 327 328 328 330 329 326 326 328 328 329 330 331 328 328 327 327 326 325 321 319 319 320 319 317 317 317 317
311 312 312 310 310 311 311 312 309 307 306 308 309 309 311 311 311 312 323 323 323 325 326 325 326 328 326 324 324 325 325 324 326 326 328 328 327 327 326 324 321 322 319 319 318 317 316 317 317
307 310 308 310 306 304 305 306 305 307 308 311 311 311 311 311 310 311 322 323 324 325 324 325 325 326 324 323 323 321 321 322 324 325 327 327 327 326 326 323 320 320 319 318 317 316 317 317 317
307 304 306 305 304 303 306 305 307 308 309 311 311 312 310 310 315 310 317 322 323 324 324 323 324 324 323 324 321 321 320 320 320 322 324 326 326 325 325 323 320 319 315 313 315 316 317 317 316
304 304 304 304 303 304 310 306 307 310 311 311 311 310 312 317 316 313 313 322 324 324 322 323 324 322 323 322 322 321 319 319 318 319 321 323 324 324 324 325 322 320 314 315 314 315 316 317 317
307 308 307 307 305 309 307 306 309 310 312 315 314 316 319 316 316 316 315 322 324 323 322 322 322 321 320 322 320 319 318 318 318 318 318 320 320 321 324 322 321 320 314 316 314 315 316 316 317
307 308 313 316 316 314 310 311 311 312 314 318 319 318 317 316 316 316 317 322 323 322 322 321 321 320 319 319 318 319 319 319 318 317 317 318 319 320 322 323 319 317 316 316 314 315 316 316 317
306 307 312 317 317 314 316 317 316 316 319 319 318 317 316 315 316 317 317 320 323 323 322 322 321 320 319 319 318 319 319 318 317 317 316 317 318 319 320 322 319 316 316 315 313 314 316 317 316
307 308 308 311 312 315 313 315 312 318 320 319 318 317 316 315 316 317 318 321 323 323 322 322 321 321 319 319 316 318 318 318 317 317 317 317 317 317 319 320 318 316 316 314 314 312 315 316 315
306 307 311 312 317 316 313 315 314 318 319 321 319 318 317 316 316 317 318 323 324 323 322 321 321 320 319 318 316 318 318 318 317 317 316 317 317 317 317 318 316 316 316 314 313 315 314 316 314
307 307 310 310 312 314 314 312 312 318 318 321 320 319 318 317 316 316 319 324 323 322 321 321 320 320 319 318 315 316 317 317 317 316 316 316 317 316 316 317 316 316 316 315 316 316 315 314 315
307 309 308 312 313 314 313 313 319 315 318 320 321 319 317 317 317 317 320 322 323 322 321 320 320 320 319 317 315 315 317 316 316 316 315 316 317 317 316 317 316 316 316 316 316 316 315 314 315

GFSSGP_925_thetae_105.txt.gz
Theta_e
315 317 314 314 318 317 318 317 314 316 317 316 317 321 326 328 335 328 333 340 338 334 336 338 341 340 337 335 334 335 338 340 340 340 337 336 336 337 339 337 338 339 340 340 340 339 339 339 336
319 314 312 313 317 316 315 315 317 318 318 316 319 324 326 326 333 336 340 340 338 334 336 338 339 338 336 335 334 334 335 338 339 339 337 336 337 338 337 336 338 338 339 339 340 340 341 337 336
314 314 316 318 316 315 315 314 319 317 317 317 318 318 324 329 337 336 338 340 338 334 335 336 336 338 335 334 334 333 334 336 339 339 337 336 336 337 335 335 336 337 337 338 340 340 339 335 335
317 316 312 317 316 316 314 316 316 317 317 316 316 319 326 332 336 335 335 340 337 333 333 336 336 337 335 334 334 333 333 334 337 338 337 337 337 337 335 337 336 335 335 336 338 338 338 335 334
312 314 316 317 316 315 315 315 316 317 317 317 316 319 328 337 336 333 334 340 338 332 332 335 337 340 340 335 334 333 333 335 337 340 339 339 338 337 334 335 334 334 330 336 337 337 337 334 334
316 313 316 313 313 313 315 315 316 316 317 316 316 318 326 335 338 335 335 339 340 332 334 336 338 340 340 340 335 335 334 335 339 343 342 342 341 338 335 335 335 329 330 334 336 335 335 334 334
317 317 315 314 314 314 314 314 315 317 316 316 318 320 327 334 338 336 337 340 339 333 335 337 338 339 339 339 338 339 337 334 335 338 337 338 338 337 335 334 331 331 329 330 334 334 335 333 333
313 316 315 315 313 314 315 314 315 317 317 314 323 323 324 331 337 340 339 340 339 336 336 337 338 339 340 340 339 339 339 337 334 334 335 336 335 335 335 332 330 333 331 329 330 334 334 333 333
310 315 315 315 314 314 314 316 315 313 315 315 316 320 327 332 337 340 340 340 340 339 338 339 338 338 339 339 340 340 340 339 338 336 334 335 334 334 332 329 328 330 329 328 330 333 332 332 332
315 314 313 313 314 315 314 314 315 316 316 316 315 320 332 334 338 340 340 340 339 339 340 340 339 338 338 339 339 339 339 338 338 337 335 334 333 332 330 328 327 328 328 328 329 331 331 331 330
315 315 313 313 313 313 314 314 314 316 317 317 317 316 330 334 336 340 339 339 339 339 338 340 339 338 337 337 338 337 339 339 337 338 336 333 332 332 331 330 328 329 330 328 328 329 329 328 327
316 315 314 315 314 315 316 316 316 316 317 317 316 315 322 332 335 337 338 337 337 337 337 341 339 339 338 337 336 334 335 337 338 337 337 334 331 331 329 329 331 328 329 329 327 329 328 327 326
316 315 315 315 315 315 315 316 316 315 315 316 315 315 315 322 329 333 336 336 335 335 336 337 339 338 336 335 335 334 332 334 336 336 334 336 332 330 330 331 328 327 328 327 327 327 326 326 323
309 311 313 314 315 315 316 317 316 315 316 316 315 316 316 315 322 329 333 334 333 333 334 334 335 336 334 332 332 332 332 336 337 335 333 335 334 333 331 330 327 327 328 328 327 326 325 325 322
311 312 311 311 312 314 315 316 316 316 316 316 317 316 315 314 316 325 328 332 332 332 332 331 332 334 333 331 331 334 333 336 332 332 332 332 332 332 331 326 326 327 327 327 326 325 324 322 321
315 315 315 315 314 314 315 318 317 316 316 316 315 315 314 315 315 318 323 327 328 330 330 330 329 330 333 332 332 332 331 330 329 330 329 330 329 329 326 326 327 327 327 321 323 322 322 321 320
313 316 316 316 314 316 316 317 316 315 315 315 315 315 314 314 315 314 315 319 322 325 328 329 329 329 331 332 331 332 330 331 330 328 328 329 327 326 326 326 327 327 325 322 321 322 322 319 318
311 315 315 316 316 315 317 317 316 316 313 314 314 314 313 314 315 315 314 314 315 317 324 328 329 329 330 332 332 330 330 331 330 328 327 326 327 327 325 326 327 325 324 322 320 320 320 319 318
312 312 314 315 314 315 317 317 315 314 314 314 314 313 312 313 315 314 314 315 318 316 324 327 328 329 329 329 330 328 329 328 329 327 326 327 326 326 326 326 327 325 323 321 318 318 319 317 318
311 312 313 313 312 313 314 314 312 310 311 311 311 311 312 314 315 317 316 318 322 322 325 327 327 327 328 328 328 328 327 326 326 326 326 327 326 327 326 326 326 325 323 320 319 318 318 317 317
310 312 312 312 310 307 308 308 307 308 307 308 310 312 314 314 316 320 318 316 320 324 325 326 327 326 328 328 327 325 325 324 325 324 326 327 328 327 327 326 322 320 319 317 318 318 319 317 317
307 308 310 311 310 310 307 308 309 311 310 311 313 314 314 320 320 319 319 318 318 322 325 325 325 325 327 326 325 324 324 324 323 324 327 327 327 327 326 324 321 319 317 317 318 318 318 318 317
306 307 309 309 308 306 307 310 311 310 312 313 314 318 321 320 319 319 319 318 319 321 324 325 324 323 325 325 324 323 323 322 321 322 323 324 325 326 324 324 321 319 319 319 319 319 319 318 318
306 307 307 307 308 312 310 312 312 312 313 316 320 321 320 319 318 318 318 318 319 323 324 324 322 323 322 323 322 321 321 321 320 319 319 321 324 325 323 322 321 320 317 317 317 317 318 318 318
309 312 314 317 314 315 310 310 313 314 317 322 322 320 319 318 318 319 319 319 319 321 325 323 322 322 321 322 321 320 321 320 319 318 319 319 321 321 323 320 320 320 319 317 317 316 317 318 318
309 312 313 314 318 315 312 314 315 315 320 319 318 318 318 318 318 318 318 318 318 322 324 323 322 321 320 320 319 320 320 320 320 319 318 319 320 319 321 322 321 319 317 315 314 314 315 317 317
308 309 311 313 313 315 314 316 314 321 321 320 319 318 319 319 318 318 318 318 318 321 324 322 321 321 320 319 318 318 319 320 320 318 317 317 318 318 320 322 321 319 316 315 314 314 315 316 317
309 310 312 312 314 314 314 315 315 318 318 320 319 320 318 318 317 318 319 319 319 320 324 322 321 321 320 319 321 319 318 319 319 318 316 318 318 317 317 320 321 319 317 316 314 314 315 316 316
307 307 310 312 313 312 313 313 313 318 318 319 320 320 318 319 318 318 319 318 318 319 324 322 321 321 320 319 319 317 317 318 318 317 317 318 318 317 317 319 319 317 317 315 314 313 313 315 314
309 309 308 310 313 314 312 312 318 317 318 320 321 320 319 318 318 317 316 316 319 321 323 322 321 321 319 319 318 316 316 317 317 317 317 317 317 316 316 317 317 317 316 315 314 312 312 314 314

GFSSGP_925_thetae_108.txt.gz
Theta_e
313 320 316 317 320 318 319 319 319 321 321 321 322 327 328 328 329 328 337 341 340 341 344 338 339 337 337 336 336 337 340 341 342 340 337 338 339 338 340 342 342 341 341 341 341 339 340 338 335
321 317 315 318 317 319 320 319 320 321 321 321 322 322 325 326 329 336 340 341 340 342 344 344 336 336 337 335 335 337 339 341 341 340 337 337 338 339 341 341 340 340 339 341 341 341 341 337 335
318 316 318 318 318 318 319 319 321 322 321 321 323 324 325 326 333 334 336 341 341 341 343 345 334 336 336 335 334 335 338 340 340 340 338 338 337 338 340 338 339 340 339 339 341 341 340 336 336
316 316 317 317 318 319 318 319 323 321 321 321 321 323 326 332 333 333 338 339 339 340 342 344 334 336 336 335 334 334 336 338 340 340 338 338 338 339 337 337 338 338 337 338 338 338 338 336 336
317 318 317 317 318 319 319 319 322 321 320 321 321 322 324 334 336 335 339 340 339 340 342 343 335 336 336 335 334 334 335 337 339 340 339 338 338 337 336 336 335 333 334 334 328 337 337 335 334
317 318 317 318 318 318 318 319 319 320 319 320 320 321 323 335 338 336 340 342 340 342 343 344 338 337 337 336 335 334 334 336 338 339 339 338 337 336 336 334 334 334 334 330 336 337 337 335 334
318 318 318 318 318 318 317 317 318 318 319 320 320 322 325 332 339 340 341 343 345 343 343 344 343 341 339 338 336 335 334 335 338 339 340 339 337 336 335 335 334 334 329 330 332 336 335 335 334
317 319 319 318 319 318 318 318 318 317 319 320 322 324 326 331 341 341 341 343 345 342 342 343 344 343 344 342 340 338 337 336 337 340 342 340 338 338 336 335 334 333 330 333 330 330 331 333 334
316 318 320 320 319 319 317 317 318 319 320 319 320 321 325 332 339 342 341 341 343 341 340 342 343 343 344 344 343 339 339 337 336 338 341 337 337 337 336 335 335 331 330 330 330 330 333 331 332
317 319 320 320 319 318 317 317 319 318 319 320 319 321 326 332 335 339 341 340 341 341 340 340 341 342 342 341 343 342 342 340 340 339 339 338 337 337 336 335 334 329 330 330 329 331 332 331 331
317 318 320 319 318 318 318 317 318 318 317 319 320 320 320 326 329 334 336 338 337 338 339 340 341 342 341 340 340 342 343 341 340 341 340 339 338 337 335 334 333 330 332 330 331 331 333 330 329
317 318 318 319 317 316 317 317 317 318 318 318 319 319 320 321 326 328 331 334 336 337 339 340 341 341 341 339 339 339 339 341 339 339 338 339 338 338 336 334 333 332 331 332 332 331 330 329 328
317 318 318 317 317 317 317 317 318 318 319 319 319 319 320 321 322 324 327 329 333 337 339 340 340 341 340 340 338 337 339 340 340 337 338 337 336 335 335 333 332 332 332 333 330 330 329 328 327
316 316 317 317 317 317 317 318 318 319 319 319 320 320 320 321 321 322 326 328 331 334 337 339 339 340 340 340 339 338 337 336 338 337 337 337 337 335 335 334 332 330 332 332 331 329 328 327 326
313 314 314 314 315 315 315 317 317 317 317 318 318 319 320 321 321 321 322 327 329 331 333 337 340 340 340 339 337 336 335 335 337 335 335 337 334 335 334 334 331 332 330 329 330 328 327 326 325
313 314 315 316 316 315 316 320 321 320 320 320 320 321 321 321 320 320 321 323 325 327 329 333 335 338 339 338 336 333 333 333 332 334 334 334 335 333 333 332 331 330 328 327 328 326 324 324 324
315 317 317 318 318 318 317 319 320 320 319 320 320 320 320 320 320 319 319 319 321 323 325 328 333 334 337 338 336 333 332 333 334 333 330 331 333 333 332 331 329 327 326 327 326 324 324 323 323
315 317 317 318 318 318 319 319 320 319 320 320 320 320 321 320 320 320 319 319 318 319 320 323 328 332 334 337 335 333 332 332 333 333 332 332 331 330 331 330 329 327 326 325 323 321 321 321 321
313 312 313 313 315 317 318 319 319 320 320 320 320 320 320 320 319 317 318 321 322 322 322 321 325 330 332 335 333 331 330 331 332 331 331 331 330 330 329 328 328 326 324 322 320 320 320 320 320
310 311 312 310 314 316 316 317 317 317 317 317 317 316 317 316 315 318 321 323 323 324 325 325 327 330 332 332 331 331 330 330 330 330 331 329 329 328 327 327 326 326 321 321 320 321 320 319 319
311 311 310 309 311 313 314 313 313 313 313 313 313 313 314 315 318 321 323 323 323 324 325 326 327 330 331 331 329 331 330 330 329 329 328 327 328 326 327 326 326 325 323 320 319 320 319 318 320
310 310 309 310 313 312 311 311 312 312 313 314 315 316 317 320 322 323 323 323 323 324 325 326 327 329 330 331 329 331 330 329 329 328 328 327 326 326 326 326 324 326 323 320 319 319 319 319 320
309 308 308 310 311 310 310 309 310 313 313 314 316 318 322 323 323 323 323 323 322 323 327 327 327 328 328 330 329 330 331 331 330 329 328 325 326 325 328 326 325 324 322 322 319 319 319 318 319
309 308 309 309 309 310 310 309 312 314 315 316 320 323 323 323 322 322 322 322 322 323 325 328 328 327 326 328 329 330 332 331 328 326 325 324 325 325 326 325 324 322 320 319 318 319 318 318 319
308 310 315 316 315 314 314 313 313 315 316 318 321 322 321 320 321 321 321 322 322 322 323 327 328 326 325 326 327 330 331 329 328 327 325 323 324 325 324 323 321 320 319 318 318 319 319 319 318
309 311 312 314 316 315 314 314 314 314 318 321 320 320 320 320 320 320 320 321 321 321 323 325 327 325 324 324 325 327 328 329 327 325 323 321 323 324 324 322 321 321 319 318 318 319 319 319 318
311 313 312 314 314 316 315 316 318 320 321 321 320 319 319 320 320 321 321 321 321 321 322 324 326 325 324 323 323 323 325 327 326 324 323 322 323 323 324 323 322 320 318 318 317 318 318 319 318
309 310 313 313 312 312 311 313 314 320 320 320 319 319 320 320 322 321 320 320 318 318 320 323 326 324 323 322 321 320 326 326 325 324 321 321 321 322 322 322 321 319 318 317 316 316 317 318 319
307 311 311 311 312 311 311 314 315 316 318 318 318 320 321 322 321 320 319 317 314 317 315 324 324 323 323 321 320 322 325 325 324 323 320 320 322 321 321 323 321 319 318 317 316 315 315 316 317
307 307 310 311 312 313 312 312 317 318 318 319 320 322 322 322 320 318 317 314 312 310 307 323 323 323 322 321 321 322 323 324 322 321 320 320 321 321 321 320 319 319 318 316 315 314 315 315 316